GFSNE_prec_precacc24_036.txt.gz
Total_Precipitation_Accumulation
0.05 0.03 0.01 0.01 0.01 0.00 0.00 0.00 0.00 0.00 0.00 0.00 0.00 0.00 0.00 0.00 0.00 0.00 0.00 0.00 0.00 0.00 0.00 0.00 0.00 0.00 0.00 0.00 0.00 0.01 0.01 0.01 0.02 0.06 0.09 0.13 0.17 0.19
0.05 0.03 0.01 0.01 0.00 0.00 0.00 0.00 0.00 0.01 0.00 0.00 0.00 0.00 0.00 0.00 0.00 0.00 0.00 0.00 0.00 0.00 0.00 0.00 0.00 0.00 0.00 0.00 0.00 0.00 0.01 0.02 0.03 0.09 0.16 0.23 0.27 0.29
0.07 0.08 0.08 0.06 0.02 0.01 0.02 0.02 0.03 0.04 0.05 0.04 0.01 0.01 0.01 0.01 0.01 0.00 0.00 0.00 0.00 0.00 0.00 0.00 0.00 0.00 0.01 0.00 0.00 0.00 0.01 0.02 0.04 0.06 0.11 0.19 0.25 0.27
0.10 0.10 0.09 0.08 0.10 0.12 0.12 0.12 0.12 0.10 0.06 0.07 0.06 0.07 0.05 0.03 0.01 0.00 0.00 0.00 0.00 0.00 0.00 0.00 0.00 0.00 0.00 0.00 0.01 0.01 0.02 0.03 0.04 0.05 0.06 0.07 0.08 0.10
0.12 0.12 0.12 0.12 0.14 0.12 0.12 0.14 0.15 0.15 0.14 0.10 0.05 0.02 0.02 0.02 0.02 0.00 0.00 0.00 0.00 0.00 0.00 0.00 0.00 0.00 0.00 0.01 0.00 0.01 0.00 0.00 0.01 0.01 0.01 0.02 0.03 0.04
0.15 0.16 0.16 0.15 0.15 0.17 0.21 0.23 0.21 0.16 0.09 0.04 0.02 0.02 0.03 0.02 0.01 0.00 0.00 0.00 0.00 0.00 0.00 0.00 0.00 0.00 0.00 0.00 0.00 0.00 0.00 0.00 0.00 0.01 0.02 0.03 0.04 0.06
0.16 0.18 0.20 0.22 0.27 0.27 0.20 0.15 0.11 0.08 0.06 0.05 0.05 0.05 0.02 0.00 0.00 0.00 0.00 0.00 0.00 0.00 0.00 0.00 0.00 0.00 0.00 0.00 0.00 0.00 0.00 0.00 0.01 0.01 0.03 0.04 0.06 0.08
0.21 0.25 0.28 0.29 0.24 0.18 0.11 0.07 0.06 0.06 0.07 0.08 0.06 0.03 0.00 0.00 0.00 0.00 0.00 0.02 0.04 0.00 0.00 0.00 0.00 0.00 0.00 0.00 0.00 0.00 0.00 0.00 0.00 0.02 0.03 0.04 0.05 0.06
0.36 0.31 0.25 0.19 0.15 0.12 0.09 0.06 0.04 0.04 0.04 0.03 0.01 0.00 0.00 0.00 0.00 0.04 0.05 0.07 0.03 0.00 0.00 0.00 0.00 0.00 0.00 0.00 0.00 0.00 0.00 0.00 0.00 0.01 0.02 0.03 0.04 0.05
0.24 0.19 0.15 0.10 0.06 0.02 0.01 0.01 0.01 0.00 0.00 0.00 0.00 0.00 0.00 0.00 0.06 0.16 0.06 0.01 0.00 0.00 0.00 0.01 0.00 0.00 0.00 0.00 0.00 0.00 0.00 0.00 0.00 0.01 0.02 0.02 0.03 0.03
0.06 0.03 0.01 0.00 0.00 0.00 0.01 0.01 0.00 0.00 0.00 0.00 0.00 0.01 0.01 0.01 0.00 0.00 0.00 0.01 0.02 0.00 0.00 0.00 0.00 0.00 0.00 0.00 0.00 0.00 0.00 0.00 0.00 0.00 0.01 0.02 0.02 0.03
0.00 0.00 0.00 0.00 0.00 0.01 0.01 0.00 0.00 0.00 0.00 0.00 0.00 0.00 0.00 0.00 0.00 0.00 0.00 0.06 0.06 0.07 0.00 0.06 0.03 0.02 0.09 0.00 0.00 0.00 0.00 0.00 0.00 0.00 0.00 0.00 0.01 0.03
0.00 0.00 0.00 0.00 0.01 0.02 0.01 0.00 0.00 0.00 0.00 0.00 0.00 0.00 0.00 0.00 0.00 0.00 0.00 0.04 0.15 0.11 0.00 0.19 0.25 0.03 0.15 0.04 0.00 0.00 0.00 0.00 0.00 0.00 0.00 0.00 0.00 0.05
0.00 0.00 0.00 0.01 0.01 0.00 0.00 0.00 0.00 0.00 0.00 0.00 0.00 0.00 0.00 0.00 0.00 0.00 0.00 0.00 0.02 0.05 0.00 0.07 0.42 0.10 0.23 0.14 0.01 0.00 0.00 0.00 0.00 0.00 0.00 0.00 0.01 0.01
0.00 0.00 0.00 0.00 0.00 0.00 0.00 0.00 0.00 0.00 0.00 0.00 0.00 0.00 0.00 0.00 0.00 0.00 0.00 0.00 0.00 0.00 0.00 0.00 0.12 0.12 0.23 0.22 0.10 0.02 0.00 0.00 0.00 0.00 0.00 0.02 0.05 0.04
0.00 0.00 0.00 0.00 0.00 0.00 0.00 0.00 0.00 0.00 0.00 0.00 0.00 0.00 0.00 0.00 0.00 0.00 0.01 0.00 0.03 0.00 0.00 0.00 0.00 0.07 0.21 0.10 0.13 0.09 0.00 0.01 0.00 0.00 0.00 0.01 0.01 0.02
0.00 0.00 0.00 0.00 0.00 0.00 0.00 0.00 0.00 0.00 0.00 0.00 0.01 0.02 0.01 0.00 0.00 0.00 0.01 0.04 0.07 0.01 0.00 0.00 0.00 0.00 0.03 0.06 0.18 0.03 0.00 0.00 0.00 0.00 0.03 0.06 0.01 0.02
0.00 0.00 0.00 0.00 0.00 0.00 0.00 0.00 0.00 0.00 0.00 0.01 0.02 0.02 0.03 0.02 0.02 0.01 0.01 0.04 0.05 0.01 0.01 0.00 0.01 0.05 0.02 0.00 0.04 0.10 0.11 0.01 0.00 0.00 0.03 0.20 0.09 0.00
0.00 0.00 0.00 0.00 0.00 0.00 0.00 0.00 0.00 0.00 0.01 0.02 0.03 0.02 0.05 0.05 0.02 0.02 0.01 0.03 0.03 0.01 0.00 0.01 0.08 0.22 0.27 0.05 0.00 0.02 0.33 0.23 0.05 0.04 0.01 0.05 0.11 0.03
0.00 0.00 0.00 0.00 0.00 0.00 0.00 0.01 0.01 0.01 0.01 0.02 0.04 0.05 0.07 0.10 0.04 0.04 0.03 0.07 0.11 0.08 0.05 0.00 0.02 0.17 0.49 0.35 0.24 0.02 0.01 0.17 0.39 0.29 0.04 0.02 0.02 0.02
0.00 0.00 0.00 0.00 0.00 0.00 0.01 0.01 0.02 0.02 0.04 0.07 0.04 0.05 0.06 0.15 0.09 0.03 0.05 0.04 0.08 0.10 0.08 0.01 0.00 0.03 0.10 0.17 0.16 0.01 0.00 0.00 0.10 0.48 0.46 0.39 0.09 0.02
0.00 0.00 0.00 0.00 0.00 0.01 0.02 0.02 0.02 0.01 0.02 0.03 0.04 0.07 0.08 0.11 0.16 0.12 0.07 0.10 0.06 0.04 0.06 0.02 0.01 0.03 0.09 0.26 0.17 0.04 0.01 0.00 0.00 0.04 0.13 0.49 0.63 0.50
0.00 0.00 0.00 0.00 0.00 0.01 0.03 0.03 0.02 0.02 0.03 0.06 0.05 0.06 0.10 0.13 0.08 0.08 0.07 0.06 0.10 0.15 0.09 0.07 0.02 0.02 0.03 0.08 0.13 0.10 0.04 0.01 0.01 0.04 0.01 0.01 0.05 0.12

GFSNE_prec_precacc24_042.txt.gz
Total_Precipitation_Accumulation
0.18 0.16 0.12 0.10 0.09 0.09 0.09 0.08 0.08 0.09 0.08 0.07 0.08 0.07 0.03 0.03 0.02 0.01 0.00 0.00 0.00 0.00 0.00 0.00 0.00 0.00 0.00 0.00 0.00 0.00 0.01 0.01 0.02 0.05 0.07 0.09 0.13 0.16
0.20 0.20 0.15 0.11 0.12 0.11 0.09 0.07 0.11 0.18 0.26 0.26 0.24 0.20 0.14 0.07 0.02 0.01 0.01 0.01 0.01 0.01 0.00 0.00 0.00 0.00 0.00 0.00 0.00 0.00 0.00 0.01 0.02 0.08 0.13 0.16 0.19 0.22
0.20 0.23 0.23 0.28 0.36 0.45 0.49 0.55 0.63 0.71 0.74 0.64 0.37 0.20 0.11 0.07 0.06 0.07 0.05 0.04 0.02 0.01 0.00 0.00 0.00 0.00 0.00 0.00 0.00 0.00 0.00 0.01 0.02 0.05 0.08 0.13 0.17 0.19
0.18 0.19 0.16 0.14 0.18 0.21 0.22 0.26 0.33 0.39 0.46 0.48 0.40 0.34 0.29 0.20 0.13 0.06 0.02 0.00 0.00 0.00 0.00 0.00 0.00 0.00 0.00 0.00 0.00 0.01 0.01 0.02 0.03 0.04 0.04 0.03 0.03 0.04
0.16 0.17 0.17 0.16 0.19 0.22 0.24 0.28 0.32 0.35 0.38 0.38 0.33 0.23 0.17 0.10 0.06 0.02 0.01 0.00 0.00 0.00 0.00 0.00 0.00 0.00 0.00 0.00 0.00 0.01 0.00 0.00 0.00 0.00 0.00 0.01 0.01 0.02
0.18 0.20 0.19 0.20 0.21 0.25 0.30 0.34 0.33 0.28 0.22 0.16 0.12 0.09 0.06 0.03 0.02 0.01 0.00 0.00 0.00 0.00 0.00 0.00 0.00 0.00 0.00 0.00 0.00 0.00 0.00 0.00 0.00 0.01 0.01 0.02 0.02 0.04
0.21 0.23 0.26 0.32 0.36 0.35 0.30 0.26 0.24 0.22 0.18 0.13 0.08 0.05 0.03 0.01 0.00 0.00 0.00 0.00 0.00 0.00 0.00 0.00 0.00 0.00 0.00 0.00 0.00 0.00 0.00 0.00 0.00 0.01 0.02 0.03 0.04 0.06
0.26 0.31 0.38 0.48 0.42 0.35 0.24 0.17 0.12 0.09 0.07 0.05 0.03 0.01 0.00 0.00 0.00 0.00 0.00 0.01 0.02 0.00 0.00 0.00 0.00 0.00 0.00 0.00 0.00 0.00 0.00 0.00 0.00 0.01 0.01 0.02 0.03 0.04
0.47 0.41 0.34 0.29 0.26 0.22 0.18 0.14 0.09 0.05 0.02 0.01 0.00 0.00 0.00 0.00 0.00 0.02 0.03 0.04 0.02 0.00 0.00 0.00 0.00 0.00 0.00 0.00 0.00 0.00 0.00 0.00 0.00 0.00 0.01 0.02 0.02 0.03
0.42 0.37 0.30 0.21 0.13 0.06 0.02 0.00 0.00 0.00 0.00 0.00 0.00 0.00 0.00 0.00 0.03 0.10 0.04 0.01 0.00 0.00 0.00 0.00 0.00 0.00 0.00 0.00 0.00 0.00 0.00 0.00 0.00 0.00 0.00 0.01 0.01 0.02
0.14 0.07 0.03 0.02 0.01 0.00 0.00 0.00 0.00 0.00 0.00 0.00 0.00 0.00 0.01 0.01 0.00 0.00 0.00 0.00 0.01 0.00 0.00 0.00 0.00 0.00 0.00 0.00 0.00 0.00 0.00 0.00 0.00 0.00 0.00 0.00 0.01 0.01
0.00 0.00 0.00 0.00 0.00 0.00 0.00 0.00 0.00 0.00 0.00 0.00 0.00 0.00 0.00 0.00 0.00 0.00 0.00 0.02 0.04 0.05 0.00 0.03 0.01 0.01 0.06 0.00 0.00 0.00 0.00 0.00 0.00 0.00 0.00 0.00 0.00 0.00
0.00 0.00 0.00 0.00 0.01 0.01 0.01 0.00 0.00 0.00 0.00 0.00 0.00 0.00 0.00 0.00 0.00 0.00 0.00 0.01 0.06 0.07 0.00 0.14 0.18 0.02 0.11 0.03 0.00 0.00 0.00 0.00 0.00 0.00 0.00 0.00 0.00 0.01
0.00 0.00 0.00 0.00 0.01 0.00 0.00 0.00 0.00 0.00 0.00 0.00 0.00 0.00 0.00 0.00 0.00 0.00 0.00 0.00 0.01 0.02 0.00 0.06 0.32 0.06 0.17 0.11 0.01 0.00 0.00 0.00 0.00 0.00 0.00 0.00 0.00 0.00
0.00 0.00 0.00 0.00 0.00 0.00 0.00 0.00 0.00 0.00 0.00 0.00 0.00 0.00 0.00 0.00 0.00 0.00 0.00 0.00 0.00 0.00 0.00 0.00 0.10 0.08 0.17 0.18 0.08 0.01 0.00 0.00 0.00 0.00 0.00 0.00 0.00 0.00
0.00 0.00 0.00 0.00 0.00 0.00 0.00 0.00 0.00 0.00 0.00 0.00 0.00 0.00 0.00 0.00 0.00 0.00 0.00 0.00 0.02 0.00 0.00 0.00 0.00 0.06 0.16 0.09 0.12 0.07 0.00 0.02 0.00 0.00 0.00 0.00 0.00 0.00
0.00 0.00 0.00 0.00 0.00 0.00 0.00 0.00 0.00 0.00 0.00 0.00 0.00 0.01 0.00 0.00 0.00 0.00 0.00 0.03 0.05 0.01 0.00 0.00 0.00 0.00 0.03 0.07 0.18 0.03 0.00 0.00 0.00 0.00 0.02 0.05 0.01 0.00
0.00 0.00 0.00 0.00 0.00 0.00 0.00 0.00 0.00 0.00 0.00 0.00 0.01 0.01 0.02 0.01 0.02 0.01 0.01 0.04 0.04 0.01 0.01 0.00 0.00 0.04 0.02 0.00 0.04 0.10 0.11 0.01 0.00 0.00 0.02 0.15 0.07 0.00
0.00 0.00 0.00 0.00 0.00 0.00 0.00 0.00 0.00 0.00 0.00 0.01 0.01 0.02 0.03 0.04 0.02 0.02 0.01 0.03 0.03 0.01 0.00 0.01 0.06 0.18 0.23 0.05 0.00 0.02 0.31 0.21 0.04 0.03 0.00 0.02 0.05 0.01
0.00 0.00 0.00 0.00 0.00 0.00 0.00 0.01 0.01 0.01 0.01 0.01 0.02 0.03 0.05 0.07 0.04 0.03 0.03 0.06 0.08 0.06 0.04 0.00 0.02 0.13 0.39 0.28 0.22 0.02 0.01 0.15 0.30 0.22 0.02 0.01 0.01 0.00
0.00 0.00 0.00 0.00 0.00 0.00 0.00 0.01 0.01 0.01 0.02 0.03 0.03 0.03 0.04 0.10 0.06 0.03 0.04 0.04 0.06 0.08 0.07 0.01 0.00 0.02 0.08 0.18 0.17 0.01 0.00 0.00 0.08 0.34 0.31 0.33 0.08 0.01
0.00 0.00 0.00 0.00 0.00 0.00 0.01 0.01 0.01 0.00 0.01 0.01 0.02 0.03 0.04 0.07 0.09 0.07 0.05 0.07 0.04 0.03 0.04 0.02 0.01 0.03 0.09 0.28 0.17 0.04 0.00 0.00 0.00 0.00 0.07 0.38 0.47 0.38
0.00 0.00 0.00 0.00 0.00 0.01 0.01 0.01 0.01 0.01 0.01 0.03 0.02 0.02 0.04 0.06 0.04 0.05 0.05 0.05 0.07 0.10 0.07 0.06 0.02 0.02 0.04 0.08 0.11 0.08 0.03 0.01 0.00 0.00 0.00 0.01 0.02 0.03

GFSNE_prec_precacc24_045.txt.gz
Total_Precipitation_Accumulation
0.25 0.25 0.19 0.15 0.16 0.14 0.15 0.15 0.15 0.14 0.12 0.11 0.13 0.15 0.17 0.19 0.22 0.20 0.21 0.20 0.17 0.12 0.06 0.03 0.01 0.00 0.00 0.00 0.00 0.00 0.00 0.00 0.01 0.02 0.02 0.04 0.09 0.12
0.28 0.28 0.23 0.17 0.17 0.16 0.14 0.12 0.17 0.26 0.39 0.38 0.43 0.48 0.47 0.42 0.39 0.32 0.26 0.19 0.12 0.06 0.03 0.02 0.01 0.00 0.00 0.00 0.00 0.00 0.00 0.00 0.01 0.03 0.07 0.10 0.13 0.16
0.23 0.28 0.30 0.34 0.42 0.51 0.57 0.64 0.71 0.76 0.79 0.72 0.57 0.47 0.40 0.33 0.30 0.21 0.14 0.08 0.04 0.04 0.02 0.01 0.00 0.00 0.00 0.00 0.00 0.00 0.00 0.01 0.02 0.03 0.06 0.10 0.12 0.14
0.19 0.19 0.17 0.15 0.19 0.24 0.26 0.31 0.41 0.48 0.55 0.58 0.49 0.44 0.39 0.31 0.23 0.15 0.06 0.03 0.02 0.02 0.01 0.00 0.00 0.00 0.00 0.00 0.00 0.01 0.01 0.01 0.02 0.02 0.02 0.02 0.02 0.03
0.17 0.17 0.18 0.17 0.21 0.24 0.27 0.32 0.39 0.45 0.48 0.51 0.47 0.37 0.30 0.19 0.12 0.05 0.02 0.01 0.00 0.00 0.00 0.00 0.00 0.00 0.00 0.00 0.00 0.01 0.00 0.00 0.00 0.00 0.00 0.00 0.01 0.01
0.18 0.20 0.20 0.20 0.21 0.26 0.31 0.36 0.37 0.35 0.32 0.30 0.25 0.12 0.08 0.04 0.03 0.02 0.00 0.00 0.00 0.00 0.00 0.00 0.00 0.00 0.00 0.00 0.00 0.00 0.00 0.00 0.00 0.01 0.01 0.01 0.02 0.03
0.21 0.23 0.26 0.32 0.37 0.36 0.31 0.28 0.25 0.23 0.20 0.15 0.10 0.06 0.03 0.01 0.01 0.00 0.00 0.00 0.00 0.00 0.00 0.00 0.00 0.00 0.00 0.00 0.00 0.00 0.00 0.00 0.00 0.01 0.01 0.02 0.03 0.05
0.26 0.33 0.41 0.49 0.44 0.39 0.29 0.19 0.14 0.10 0.08 0.05 0.02 0.01 0.00 0.00 0.00 0.00 0.00 0.01 0.02 0.00 0.00 0.00 0.00 0.00 0.00 0.00 0.00 0.00 0.00 0.00 0.00 0.01 0.01 0.02 0.03 0.04
0.48 0.44 0.36 0.33 0.30 0.25 0.21 0.15 0.10 0.06 0.03 0.01 0.00 0.00 0.00 0.00 0.00 0.01 0.01 0.03 0.01 0.00 0.00 0.00 0.00 0.00 0.00 0.00 0.00 0.00 0.00 0.00 0.00 0.00 0.01 0.01 0.02 0.03
0.44 0.39 0.32 0.26 0.18 0.12 0.07 0.03 0.01 0.00 0.00 0.00 0.00 0.00 0.00 0.00 0.02 0.07 0.02 0.00 0.00 0.00 0.00 0.00 0.00 0.00 0.00 0.00 0.00 0.00 0.00 0.00 0.00 0.00 0.00 0.01 0.01 0.01
0.14 0.07 0.03 0.02 0.02 0.00 0.00 0.00 0.00 0.00 0.00 0.00 0.00 0.00 0.00 0.01 0.00 0.00 0.00 0.00 0.01 0.00 0.00 0.00 0.00 0.00 0.00 0.00 0.00 0.00 0.00 0.00 0.00 0.00 0.00 0.00 0.01 0.01
0.00 0.00 0.00 0.00 0.00 0.00 0.00 0.00 0.00 0.00 0.00 0.00 0.00 0.00 0.00 0.00 0.00 0.00 0.00 0.01 0.03 0.04 0.00 0.02 0.01 0.00 0.04 0.00 0.00 0.00 0.00 0.00 0.00 0.00 0.00 0.00 0.00 0.00
0.00 0.00 0.00 0.00 0.01 0.01 0.00 0.00 0.00 0.00 0.00 0.00 0.00 0.00 0.00 0.00 0.00 0.00 0.00 0.00 0.04 0.05 0.00 0.11 0.14 0.01 0.09 0.03 0.00 0.00 0.00 0.00 0.00 0.00 0.00 0.00 0.00 0.01
0.00 0.00 0.00 0.00 0.01 0.00 0.00 0.00 0.00 0.00 0.00 0.00 0.00 0.00 0.00 0.00 0.00 0.00 0.00 0.00 0.01 0.02 0.00 0.05 0.27 0.04 0.14 0.10 0.01 0.00 0.00 0.00 0.00 0.00 0.00 0.00 0.00 0.00
0.00 0.00 0.00 0.00 0.00 0.00 0.00 0.00 0.00 0.00 0.00 0.00 0.00 0.00 0.00 0.00 0.00 0.00 0.00 0.00 0.00 0.00 0.00 0.00 0.09 0.07 0.15 0.16 0.07 0.01 0.00 0.00 0.00 0.00 0.00 0.00 0.00 0.00
0.00 0.00 0.00 0.00 0.00 0.00 0.00 0.00 0.00 0.00 0.00 0.00 0.00 0.00 0.00 0.00 0.00 0.00 0.00 0.00 0.01 0.00 0.00 0.00 0.00 0.06 0.14 0.08 0.11 0.07 0.00 0.02 0.00 0.00 0.00 0.00 0.00 0.00
0.00 0.00 0.00 0.00 0.00 0.00 0.00 0.00 0.00 0.00 0.00 0.00 0.00 0.00 0.00 0.00 0.00 0.00 0.00 0.02 0.04 0.01 0.00 0.00 0.00 0.00 0.03 0.07 0.19 0.03 0.00 0.00 0.00 0.00 0.02 0.05 0.01 0.00
0.00 0.00 0.00 0.00 0.00 0.00 0.00 0.00 0.00 0.00 0.00 0.00 0.00 0.01 0.01 0.01 0.01 0.01 0.01 0.03 0.03 0.01 0.00 0.00 0.00 0.04 0.02 0.00 0.04 0.09 0.09 0.01 0.00 0.00 0.02 0.15 0.06 0.00
0.00 0.00 0.00 0.00 0.00 0.00 0.00 0.00 0.00 0.00 0.00 0.01 0.01 0.02 0.02 0.03 0.02 0.02 0.01 0.02 0.02 0.01 0.00 0.01 0.05 0.16 0.21 0.05 0.00 0.01 0.25 0.18 0.04 0.02 0.00 0.02 0.04 0.00
0.00 0.00 0.00 0.00 0.00 0.00 0.00 0.01 0.01 0.01 0.00 0.01 0.01 0.02 0.03 0.05 0.04 0.03 0.02 0.05 0.06 0.04 0.03 0.00 0.01 0.09 0.32 0.23 0.20 0.02 0.01 0.11 0.24 0.18 0.02 0.01 0.01 0.00
0.00 0.00 0.00 0.00 0.00 0.00 0.00 0.01 0.01 0.01 0.02 0.02 0.02 0.02 0.02 0.07 0.05 0.03 0.03 0.03 0.05 0.07 0.06 0.01 0.00 0.01 0.05 0.18 0.18 0.01 0.00 0.00 0.07 0.29 0.27 0.29 0.07 0.01
0.00 0.00 0.00 0.00 0.00 0.00 0.01 0.01 0.01 0.00 0.01 0.01 0.02 0.02 0.03 0.06 0.07 0.05 0.04 0.06 0.04 0.02 0.03 0.01 0.00 0.01 0.09 0.27 0.17 0.03 0.00 0.00 0.00 0.00 0.07 0.32 0.39 0.31
0.00 0.00 0.00 0.00 0.00 0.01 0.01 0.01 0.01 0.01 0.01 0.02 0.01 0.01 0.03 0.05 0.03 0.06 0.05 0.05 0.06 0.08 0.05 0.05 0.01 0.02 0.04 0.08 0.10 0.08 0.03 0.01 0.00 0.00 0.00 0.01 0.02 0.03

GFSNE_prec_precacc24_048.txt.gz
Total_Precipitation_Accumulation
0.26 0.27 0.20 0.18 0.20 0.19 0.20 0.21 0.24 0.23 0.16 0.12 0.14 0.16 0.18 0.24 0.35 0.41 0.48 0.54 0.52 0.48 0.41 0.32 0.26 0.19 0.12 0.06 0.02 0.01 0.00 0.00 0.00 0.01 0.01 0.02 0.05 0.07
0.28 0.28 0.24 0.19 0.20 0.20 0.19 0.17 0.23 0.33 0.45 0.39 0.45 0.52 0.54 0.54 0.55 0.48 0.44 0.43 0.36 0.29 0.22 0.20 0.18 0.13 0.07 0.03 0.02 0.00 0.00 0.00 0.00 0.01 0.03 0.05 0.08 0.11
0.23 0.28 0.30 0.34 0.43 0.53 0.58 0.67 0.78 0.89 0.94 0.82 0.63 0.54 0.46 0.41 0.42 0.37 0.31 0.25 0.17 0.16 0.12 0.10 0.08 0.04 0.02 0.01 0.00 0.00 0.00 0.00 0.01 0.02 0.03 0.05 0.08 0.10
0.19 0.20 0.17 0.16 0.20 0.24 0.26 0.32 0.42 0.52 0.65 0.71 0.65 0.60 0.50 0.39 0.31 0.23 0.18 0.13 0.11 0.09 0.07 0.02 0.01 0.01 0.00 0.00 0.00 0.00 0.01 0.01 0.01 0.02 0.02 0.02 0.02 0.01
0.17 0.18 0.18 0.18 0.21 0.25 0.28 0.33 0.40 0.46 0.53 0.59 0.59 0.52 0.46 0.36 0.28 0.15 0.09 0.04 0.01 0.02 0.02 0.00 0.00 0.00 0.00 0.00 0.00 0.00 0.00 0.00 0.00 0.00 0.00 0.00 0.00 0.01
0.18 0.20 0.20 0.20 0.22 0.26 0.31 0.38 0.39 0.37 0.34 0.31 0.28 0.24 0.17 0.12 0.09 0.05 0.03 0.01 0.00 0.00 0.00 0.00 0.00 0.00 0.00 0.00 0.00 0.00 0.00 0.00 0.00 0.00 0.01 0.01 0.01 0.02
0.21 0.23 0.26 0.32 0.38 0.36 0.32 0.30 0.30 0.31 0.26 0.17 0.13 0.08 0.04 0.03 0.03 0.01 0.01 0.00 0.00 0.00 0.00 0.00 0.00 0.00 0.00 0.00 0.00 0.00 0.00 0.00 0.00 0.01 0.01 0.01 0.02 0.03
0.26 0.33 0.41 0.49 0.44 0.40 0.31 0.24 0.17 0.12 0.09 0.06 0.04 0.02 0.01 0.01 0.00 0.00 0.00 0.01 0.01 0.00 0.00 0.00 0.00 0.00 0.00 0.00 0.00 0.00 0.00 0.00 0.00 0.01 0.01 0.01 0.02 0.03
0.48 0.44 0.36 0.33 0.31 0.26 0.22 0.17 0.11 0.07 0.03 0.01 0.00 0.00 0.00 0.00 0.00 0.01 0.01 0.02 0.01 0.00 0.00 0.00 0.00 0.00 0.00 0.00 0.00 0.00 0.00 0.00 0.00 0.00 0.01 0.01 0.02 0.02
0.44 0.39 0.32 0.26 0.18 0.12 0.07 0.03 0.01 0.00 0.00 0.00 0.00 0.00 0.00 0.00 0.01 0.04 0.02 0.00 0.00 0.00 0.00 0.00 0.00 0.00 0.00 0.00 0.00 0.00 0.00 0.00 0.00 0.00 0.00 0.01 0.01 0.01
0.14 0.07 0.03 0.02 0.02 0.00 0.00 0.00 0.00 0.00 0.00 0.00 0.00 0.00 0.00 0.00 0.00 0.00 0.00 0.00 0.00 0.00 0.00 0.00 0.00 0.00 0.00 0.00 0.00 0.00 0.00 0.00 0.00 0.00 0.00 0.00 0.01 0.01
0.00 0.00 0.00 0.00 0.00 0.00 0.00 0.00 0.00 0.00 0.00 0.00 0.00 0.00 0.00 0.00 0.00 0.00 0.00 0.00 0.02 0.03 0.00 0.01 0.00 0.00 0.03 0.00 0.00 0.00 0.00 0.00 0.00 0.00 0.00 0.00 0.00 0.00
0.00 0.00 0.00 0.00 0.00 0.01 0.00 0.00 0.00 0.00 0.00 0.00 0.00 0.00 0.00 0.00 0.00 0.00 0.00 0.00 0.03 0.04 0.00 0.08 0.10 0.01 0.07 0.02 0.00 0.00 0.00 0.00 0.00 0.00 0.00 0.00 0.00 0.00
0.00 0.00 0.00 0.00 0.01 0.00 0.00 0.00 0.00 0.00 0.00 0.00 0.00 0.00 0.00 0.00 0.00 0.00 0.00 0.00 0.00 0.01 0.00 0.04 0.21 0.03 0.11 0.08 0.01 0.00 0.00 0.00 0.00 0.00 0.00 0.00 0.00 0.00
0.00 0.00 0.00 0.00 0.00 0.00 0.00 0.00 0.00 0.00 0.00 0.00 0.00 0.00 0.00 0.00 0.00 0.00 0.00 0.00 0.00 0.00 0.00 0.00 0.07 0.05 0.13 0.15 0.07 0.01 0.00 0.00 0.00 0.00 0.00 0.00 0.00 0.00
0.00 0.00 0.00 0.00 0.00 0.00 0.00 0.00 0.00 0.00 0.00 0.00 0.00 0.00 0.00 0.00 0.00 0.00 0.00 0.00 0.01 0.00 0.00 0.00 0.00 0.04 0.12 0.07 0.11 0.06 0.00 0.02 0.00 0.00 0.00 0.00 0.00 0.00
0.00 0.00 0.00 0.00 0.00 0.00 0.00 0.00 0.00 0.00 0.00 0.00 0.00 0.00 0.00 0.00 0.00 0.00 0.00 0.02 0.03 0.01 0.00 0.00 0.00 0.00 0.02 0.06 0.17 0.03 0.00 0.00 0.00 0.00 0.02 0.04 0.01 0.00
0.00 0.00 0.00 0.00 0.00 0.00 0.00 0.00 0.00 0.00 0.00 0.00 0.00 0.01 0.01 0.01 0.01 0.01 0.01 0.03 0.03 0.01 0.00 0.00 0.00 0.03 0.01 0.00 0.03 0.07 0.08 0.00 0.00 0.00 0.02 0.14 0.05 0.00
0.00 0.00 0.00 0.00 0.00 0.00 0.00 0.00 0.00 0.00 0.00 0.01 0.01 0.01 0.02 0.02 0.02 0.02 0.01 0.02 0.02 0.01 0.00 0.00 0.03 0.12 0.19 0.05 0.00 0.01 0.18 0.14 0.03 0.02 0.00 0.02 0.03 0.00
0.00 0.00 0.00 0.00 0.00 0.00 0.00 0.01 0.01 0.00 0.00 0.01 0.01 0.02 0.02 0.04 0.03 0.02 0.02 0.04 0.04 0.03 0.02 0.00 0.01 0.07 0.26 0.18 0.17 0.02 0.00 0.08 0.19 0.14 0.01 0.01 0.00 0.00
0.00 0.00 0.00 0.00 0.00 0.00 0.00 0.01 0.01 0.01 0.01 0.02 0.02 0.02 0.02 0.05 0.04 0.02 0.02 0.03 0.04 0.06 0.06 0.01 0.00 0.01 0.05 0.18 0.18 0.01 0.00 0.00 0.06 0.25 0.23 0.24 0.06 0.01
0.00 0.00 0.00 0.00 0.00 0.00 0.00 0.01 0.01 0.00 0.00 0.01 0.01 0.01 0.02 0.04 0.05 0.04 0.03 0.05 0.03 0.02 0.03 0.01 0.00 0.01 0.08 0.25 0.16 0.03 0.00 0.00 0.00 0.00 0.07 0.29 0.32 0.26
0.00 0.00 0.00 0.00 0.00 0.00 0.01 0.01 0.01 0.00 0.01 0.01 0.01 0.01 0.02 0.04 0.03 0.05 0.05 0.05 0.05 0.06 0.04 0.05 0.01 0.02 0.04 0.08 0.10 0.08 0.03 0.01 0.00 0.00 0.00 0.01 0.02 0.02

GFSNE_prec_precacc24_051.txt.gz
Total_Precipitation_Accumulation
0.26 0.27 0.21 0.18 0.20 0.20 0.22 0.23 0.28 0.27 0.18 0.12 0.14 0.16 0.20 0.29 0.42 0.50 0.56 0.62 0.60 0.57 0.54 0.49 0.41 0.33 0.25 0.19 0.15 0.13 0.11 0.10 0.07 0.04 0.02 0.01 0.03 0.04
0.28 0.28 0.25 0.19 0.21 0.21 0.19 0.18 0.25 0.37 0.48 0.40 0.45 0.52 0.55 0.55 0.58 0.52 0.49 0.51 0.43 0.37 0.32 0.31 0.28 0.23 0.17 0.13 0.12 0.11 0.10 0.08 0.05 0.03 0.02 0.03 0.05 0.07
0.23 0.28 0.31 0.35 0.43 0.53 0.59 0.67 0.78 0.89 0.95 0.82 0.63 0.54 0.48 0.44 0.47 0.42 0.38 0.33 0.26 0.29 0.26 0.23 0.20 0.14 0.12 0.08 0.05 0.03 0.02 0.01 0.01 0.02 0.02 0.04 0.05 0.07
0.18 0.19 0.17 0.16 0.20 0.24 0.26 0.32 0.43 0.53 0.65 0.72 0.67 0.63 0.58 0.52 0.46 0.38 0.29 0.24 0.22 0.24 0.20 0.13 0.08 0.04 0.03 0.01 0.01 0.00 0.01 0.01 0.01 0.01 0.01 0.01 0.01 0.01
0.16 0.18 0.18 0.18 0.21 0.25 0.28 0.33 0.40 0.46 0.54 0.60 0.61 0.55 0.48 0.42 0.35 0.25 0.22 0.18 0.13 0.12 0.09 0.04 0.02 0.02 0.01 0.00 0.00 0.00 0.00 0.00 0.00 0.00 0.00 0.00 0.00 0.00
0.18 0.20 0.20 0.20 0.22 0.26 0.31 0.38 0.39 0.37 0.34 0.31 0.29 0.26 0.21 0.17 0.16 0.12 0.09 0.05 0.03 0.02 0.01 0.00 0.00 0.00 0.00 0.00 0.00 0.00 0.00 0.00 0.00 0.00 0.00 0.00 0.00 0.01
0.21 0.23 0.26 0.32 0.38 0.36 0.32 0.30 0.30 0.31 0.27 0.19 0.14 0.10 0.06 0.04 0.04 0.03 0.03 0.02 0.00 0.00 0.00 0.00 0.00 0.00 0.00 0.00 0.00 0.00 0.00 0.00 0.00 0.00 0.01 0.01 0.02 0.02
0.25 0.33 0.41 0.49 0.45 0.41 0.32 0.25 0.17 0.12 0.09 0.06 0.04 0.02 0.02 0.01 0.01 0.01 0.00 0.01 0.01 0.00 0.00 0.00 0.00 0.00 0.00 0.00 0.00 0.00 0.00 0.00 0.00 0.00 0.00 0.01 0.01 0.02
0.47 0.44 0.36 0.33 0.31 0.26 0.22 0.17 0.12 0.07 0.03 0.01 0.00 0.00 0.00 0.00 0.00 0.00 0.00 0.01 0.01 0.00 0.00 0.00 0.00 0.00 0.00 0.00 0.00 0.00 0.00 0.00 0.00 0.00 0.00 0.01 0.01 0.02
0.44 0.39 0.32 0.26 0.18 0.12 0.07 0.03 0.01 0.00 0.00 0.00 0.00 0.00 0.00 0.00 0.00 0.02 0.01 0.00 0.00 0.00 0.00 0.00 0.00 0.00 0.00 0.00 0.00 0.00 0.00 0.00 0.00 0.00 0.00 0.00 0.01 0.01
0.14 0.07 0.03 0.02 0.02 0.00 0.00 0.00 0.00 0.00 0.00 0.00 0.00 0.00 0.00 0.00 0.00 0.00 0.00 0.00 0.00 0.00 0.00 0.00 0.00 0.00 0.00 0.00 0.00 0.00 0.00 0.00 0.00 0.00 0.00 0.00 0.00 0.01
0.00 0.00 0.00 0.00 0.00 0.00 0.00 0.00 0.00 0.00 0.00 0.00 0.00 0.00 0.00 0.00 0.00 0.00 0.00 0.00 0.02 0.02 0.00 0.01 0.00 0.00 0.02 0.00 0.00 0.00 0.00 0.00 0.00 0.00 0.00 0.00 0.00 0.00
0.00 0.00 0.00 0.00 0.00 0.00 0.00 0.00 0.00 0.00 0.00 0.00 0.00 0.00 0.00 0.00 0.00 0.00 0.00 0.00 0.02 0.02 0.00 0.05 0.06 0.01 0.04 0.01 0.00 0.00 0.00 0.00 0.00 0.00 0.00 0.00 0.00 0.00
0.00 0.00 0.00 0.00 0.00 0.00 0.00 0.00 0.00 0.00 0.00 0.00 0.00 0.00 0.00 0.00 0.00 0.00 0.00 0.00 0.00 0.01 0.00 0.02 0.14 0.02 0.08 0.07 0.01 0.00 0.00 0.00 0.00 0.00 0.00 0.00 0.00 0.00
0.00 0.00 0.00 0.00 0.00 0.00 0.00 0.00 0.00 0.00 0.00 0.00 0.00 0.00 0.00 0.00 0.00 0.00 0.00 0.00 0.00 0.00 0.00 0.00 0.03 0.03 0.11 0.13 0.06 0.01 0.00 0.00 0.00 0.00 0.00 0.00 0.00 0.00
0.00 0.00 0.00 0.00 0.00 0.00 0.00 0.00 0.00 0.00 0.00 0.00 0.00 0.00 0.00 0.00 0.00 0.00 0.00 0.00 0.01 0.00 0.00 0.00 0.00 0.03 0.10 0.07 0.10 0.05 0.00 0.01 0.00 0.00 0.00 0.00 0.00 0.00
0.00 0.00 0.00 0.00 0.00 0.00 0.00 0.00 0.00 0.00 0.00 0.00 0.00 0.00 0.00 0.00 0.00 0.00 0.00 0.01 0.03 0.01 0.00 0.00 0.00 0.00 0.02 0.05 0.13 0.03 0.00 0.00 0.00 0.00 0.02 0.03 0.01 0.00
0.00 0.00 0.00 0.00 0.00 0.00 0.00 0.00 0.00 0.00 0.00 0.00 0.00 0.01 0.01 0.01 0.01 0.01 0.01 0.03 0.02 0.01 0.00 0.00 0.00 0.03 0.01 0.00 0.02 0.05 0.05 0.00 0.00 0.00 0.02 0.10 0.04 0.00
0.00 0.00 0.00 0.00 0.00 0.00 0.00 0.00 0.00 0.00 0.00 0.00 0.01 0.01 0.02 0.02 0.02 0.02 0.01 0.02 0.02 0.01 0.00 0.00 0.02 0.09 0.16 0.04 0.00 0.00 0.10 0.09 0.02 0.01 0.00 0.02 0.02 0.00
0.00 0.00 0.00 0.00 0.00 0.00 0.00 0.01 0.01 0.00 0.00 0.00 0.01 0.01 0.02 0.03 0.03 0.02 0.02 0.03 0.03 0.02 0.02 0.00 0.01 0.05 0.20 0.12 0.13 0.02 0.00 0.06 0.14 0.11 0.01 0.01 0.00 0.00
0.00 0.00 0.00 0.00 0.00 0.00 0.00 0.01 0.01 0.01 0.01 0.01 0.01 0.01 0.01 0.04 0.03 0.02 0.02 0.02 0.03 0.05 0.05 0.01 0.00 0.00 0.04 0.16 0.18 0.01 0.00 0.00 0.05 0.20 0.18 0.18 0.04 0.01
0.00 0.00 0.00 0.00 0.00 0.00 0.00 0.00 0.00 0.00 0.00 0.00 0.01 0.01 0.01 0.03 0.04 0.03 0.03 0.04 0.03 0.02 0.03 0.00 0.00 0.01 0.07 0.21 0.14 0.03 0.00 0.00 0.00 0.00 0.06 0.24 0.25 0.20
0.00 0.00 0.00 0.00 0.00 0.00 0.00 0.01 0.00 0.00 0.00 0.01 0.01 0.01 0.01 0.03 0.02 0.04 0.05 0.04 0.04 0.05 0.03 0.04 0.01 0.02 0.04 0.07 0.09 0.07 0.03 0.01 0.00 0.00 0.00 0.01 0.02 0.02

GFSNE_prec_precacc24_054.txt.gz
Total_Precipitation_Accumulation
0.26 0.27 0.21 0.18 0.21 0.21 0.22 0.23 0.29 0.27 0.19 0.12 0.14 0.16 0.20 0.29 0.42 0.50 0.57 0.67 0.71 0.73 0.73 0.71 0.63 0.46 0.32 0.25 0.20 0.18 0.16 0.15 0.13 0.10 0.08 0.07 0.06 0.06
0.28 0.29 0.25 0.19 0.21 0.21 0.20 0.18 0.26 0.38 0.48 0.40 0.45 0.52 0.55 0.55 0.58 0.52 0.50 0.54 0.52 0.54 0.55 0.53 0.47 0.39 0.27 0.21 0.18 0.17 0.16 0.14 0.11 0.10 0.10 0.11 0.12 0.12
0.22 0.28 0.30 0.34 0.44 0.53 0.59 0.68 0.79 0.90 0.95 0.82 0.63 0.54 0.48 0.44 0.47 0.42 0.39 0.36 0.37 0.48 0.42 0.36 0.31 0.24 0.20 0.18 0.14 0.12 0.10 0.06 0.04 0.03 0.04 0.05 0.06 0.08
0.15 0.15 0.15 0.16 0.20 0.24 0.26 0.32 0.43 0.53 0.65 0.72 0.67 0.63 0.58 0.52 0.47 0.39 0.33 0.30 0.29 0.34 0.29 0.20 0.14 0.11 0.09 0.07 0.08 0.07 0.05 0.02 0.01 0.02 0.01 0.01 0.01 0.01
0.12 0.14 0.17 0.18 0.21 0.25 0.28 0.33 0.40 0.46 0.54 0.60 0.61 0.55 0.48 0.42 0.35 0.26 0.24 0.21 0.18 0.19 0.16 0.12 0.09 0.08 0.06 0.06 0.04 0.03 0.01 0.01 0.01 0.00 0.00 0.00 0.00 0.00
0.10 0.13 0.15 0.19 0.21 0.25 0.31 0.38 0.39 0.37 0.34 0.31 0.29 0.26 0.21 0.17 0.16 0.12 0.09 0.06 0.03 0.03 0.02 0.01 0.01 0.01 0.01 0.01 0.01 0.00 0.00 0.00 0.00 0.00 0.00 0.00 0.00 0.01
0.14 0.18 0.24 0.32 0.38 0.36 0.32 0.30 0.30 0.31 0.27 0.19 0.14 0.10 0.06 0.04 0.04 0.03 0.03 0.02 0.00 0.00 0.00 0.00 0.00 0.00 0.00 0.00 0.00 0.00 0.00 0.00 0.00 0.00 0.00 0.01 0.01 0.02
0.19 0.28 0.37 0.48 0.45 0.41 0.33 0.25 0.18 0.12 0.09 0.06 0.04 0.02 0.02 0.01 0.01 0.01 0.00 0.00 0.00 0.00 0.00 0.00 0.00 0.00 0.00 0.00 0.00 0.00 0.00 0.00 0.00 0.00 0.00 0.01 0.01 0.01
0.40 0.39 0.34 0.32 0.30 0.26 0.22 0.17 0.12 0.08 0.03 0.01 0.00 0.00 0.00 0.00 0.00 0.00 0.00 0.00 0.00 0.00 0.00 0.00 0.00 0.00 0.00 0.00 0.00 0.00 0.00 0.00 0.00 0.00 0.00 0.01 0.01 0.01
0.38 0.36 0.31 0.25 0.18 0.12 0.07 0.03 0.01 0.00 0.00 0.00 0.00 0.00 0.00 0.00 0.00 0.01 0.00 0.00 0.00 0.00 0.00 0.00 0.00 0.00 0.00 0.00 0.00 0.00 0.00 0.00 0.00 0.00 0.00 0.00 0.01 0.01
0.13 0.07 0.03 0.02 0.02 0.00 0.00 0.00 0.00 0.00 0.00 0.00 0.00 0.00 0.00 0.00 0.00 0.00 0.00 0.00 0.00 0.00 0.00 0.00 0.00 0.00 0.00 0.00 0.00 0.00 0.00 0.00 0.00 0.00 0.00 0.00 0.00 0.01
0.00 0.00 0.00 0.00 0.00 0.00 0.00 0.00 0.00 0.00 0.00 0.00 0.00 0.00 0.00 0.00 0.00 0.00 0.00 0.00 0.01 0.01 0.00 0.00 0.00 0.00 0.01 0.00 0.00 0.00 0.00 0.00 0.00 0.00 0.00 0.00 0.00 0.00
0.00 0.00 0.00 0.00 0.00 0.00 0.00 0.00 0.00 0.00 0.00 0.00 0.00 0.00 0.00 0.00 0.00 0.00 0.00 0.00 0.01 0.01 0.00 0.04 0.04 0.00 0.02 0.01 0.00 0.00 0.00 0.00 0.00 0.00 0.00 0.00 0.00 0.00
0.00 0.00 0.00 0.00 0.00 0.00 0.00 0.00 0.00 0.00 0.00 0.00 0.00 0.00 0.00 0.00 0.00 0.00 0.00 0.00 0.00 0.00 0.00 0.02 0.08 0.01 0.06 0.05 0.01 0.00 0.00 0.00 0.00 0.00 0.00 0.00 0.00 0.00
0.00 0.00 0.00 0.00 0.00 0.00 0.00 0.00 0.00 0.00 0.00 0.00 0.00 0.00 0.00 0.00 0.00 0.00 0.00 0.00 0.00 0.00 0.00 0.00 0.02 0.02 0.09 0.11 0.05 0.00 0.00 0.00 0.00 0.00 0.00 0.00 0.00 0.00
0.00 0.00 0.00 0.00 0.00 0.00 0.00 0.00 0.00 0.00 0.00 0.00 0.00 0.00 0.00 0.00 0.00 0.00 0.00 0.00 0.00 0.00 0.00 0.00 0.00 0.03 0.09 0.06 0.08 0.04 0.00 0.01 0.00 0.00 0.00 0.00 0.00 0.00
0.00 0.00 0.00 0.00 0.00 0.00 0.00 0.00 0.00 0.00 0.00 0.00 0.00 0.00 0.00 0.00 0.00 0.00 0.00 0.01 0.02 0.01 0.00 0.00 0.00 0.00 0.02 0.04 0.10 0.02 0.00 0.00 0.00 0.00 0.02 0.03 0.01 0.00
0.00 0.00 0.00 0.00 0.00 0.00 0.00 0.00 0.00 0.00 0.00 0.00 0.00 0.01 0.01 0.01 0.01 0.01 0.01 0.02 0.02 0.01 0.00 0.00 0.00 0.02 0.01 0.00 0.01 0.02 0.01 0.00 0.00 0.00 0.01 0.08 0.03 0.00
0.00 0.00 0.00 0.00 0.00 0.00 0.00 0.00 0.00 0.00 0.00 0.00 0.01 0.01 0.02 0.02 0.02 0.02 0.01 0.02 0.02 0.01 0.00 0.00 0.01 0.07 0.15 0.04 0.00 0.00 0.03 0.04 0.01 0.00 0.00 0.01 0.01 0.00
0.00 0.00 0.00 0.00 0.00 0.00 0.00 0.00 0.00 0.00 0.00 0.00 0.01 0.01 0.01 0.02 0.03 0.02 0.02 0.02 0.03 0.02 0.02 0.00 0.01 0.04 0.16 0.08 0.09 0.02 0.00 0.03 0.08 0.06 0.01 0.00 0.00 0.00
0.00 0.00 0.00 0.00 0.00 0.00 0.00 0.00 0.00 0.00 0.01 0.01 0.01 0.01 0.01 0.03 0.03 0.01 0.01 0.02 0.03 0.05 0.05 0.00 0.00 0.01 0.05 0.16 0.17 0.01 0.00 0.00 0.04 0.15 0.11 0.11 0.03 0.01
0.00 0.00 0.00 0.00 0.00 0.00 0.00 0.00 0.00 0.00 0.00 0.00 0.01 0.01 0.01 0.02 0.03 0.02 0.02 0.03 0.02 0.02 0.03 0.00 0.00 0.01 0.06 0.17 0.10 0.02 0.00 0.00 0.00 0.00 0.05 0.17 0.18 0.14
0.00 0.00 0.00 0.00 0.00 0.00 0.00 0.00 0.00 0.00 0.00 0.00 0.00 0.00 0.01 0.02 0.02 0.04 0.05 0.05 0.04 0.05 0.03 0.04 0.01 0.02 0.04 0.06 0.07 0.05 0.01 0.00 0.00 0.00 0.00 0.00 0.01 0.00

GFSNE_prec_precacc24_057.txt.gz
Total_Precipitation_Accumulation
0.26 0.26 0.21 0.18 0.20 0.20 0.22 0.24 0.29 0.28 0.19 0.13 0.14 0.16 0.20 0.29 0.42 0.50 0.57 0.67 0.71 0.73 0.75 0.76 0.75 0.67 0.52 0.43 0.38 0.33 0.28 0.22 0.17 0.14 0.13 0.12 0.11 0.09
0.27 0.28 0.25 0.19 0.21 0.22 0.20 0.19 0.26 0.38 0.49 0.40 0.45 0.52 0.55 0.55 0.58 0.52 0.50 0.54 0.52 0.54 0.56 0.60 0.58 0.47 0.43 0.38 0.33 0.30 0.25 0.20 0.15 0.14 0.15 0.16 0.15 0.14
0.22 0.27 0.30 0.34 0.43 0.53 0.59 0.67 0.79 0.90 0.95 0.82 0.63 0.54 0.48 0.44 0.47 0.42 0.39 0.36 0.37 0.50 0.48 0.47 0.40 0.30 0.25 0.22 0.20 0.18 0.16 0.14 0.15 0.15 0.15 0.11 0.10 0.10
0.11 0.11 0.09 0.09 0.13 0.18 0.24 0.31 0.41 0.52 0.64 0.71 0.67 0.63 0.58 0.52 0.47 0.39 0.33 0.30 0.29 0.35 0.32 0.23 0.16 0.12 0.11 0.10 0.11 0.11 0.09 0.08 0.08 0.09 0.09 0.08 0.05 0.02
0.09 0.10 0.11 0.12 0.14 0.19 0.23 0.29 0.36 0.44 0.52 0.59 0.61 0.55 0.48 0.42 0.35 0.26 0.24 0.21 0.18 0.19 0.16 0.12 0.10 0.09 0.08 0.09 0.08 0.06 0.05 0.05 0.04 0.04 0.02 0.02 0.01 0.01
0.05 0.07 0.07 0.09 0.13 0.17 0.22 0.30 0.35 0.35 0.33 0.31 0.29 0.26 0.21 0.17 0.16 0.12 0.09 0.06 0.03 0.03 0.02 0.02 0.01 0.01 0.02 0.02 0.01 0.01 0.00 0.00 0.00 0.00 0.00 0.00 0.00 0.00
0.08 0.10 0.12 0.21 0.29 0.29 0.26 0.26 0.28 0.30 0.26 0.19 0.14 0.10 0.06 0.04 0.04 0.03 0.03 0.02 0.00 0.00 0.00 0.00 0.00 0.00 0.00 0.00 0.00 0.00 0.00 0.00 0.00 0.00 0.00 0.00 0.00 0.01
0.10 0.16 0.25 0.37 0.36 0.34 0.29 0.23 0.16 0.12 0.09 0.06 0.04 0.02 0.02 0.01 0.01 0.01 0.00 0.00 0.00 0.00 0.00 0.00 0.00 0.00 0.00 0.00 0.00 0.00 0.00 0.00 0.00 0.00 0.00 0.01 0.01 0.00
0.24 0.26 0.24 0.24 0.22 0.18 0.18 0.16 0.11 0.08 0.03 0.01 0.00 0.00 0.00 0.00 0.00 0.00 0.00 0.00 0.00 0.00 0.00 0.00 0.00 0.00 0.00 0.00 0.00 0.00 0.00 0.00 0.00 0.00 0.00 0.01 0.01 0.01
0.25 0.26 0.23 0.20 0.16 0.11 0.07 0.03 0.01 0.00 0.00 0.00 0.00 0.00 0.00 0.00 0.00 0.00 0.00 0.00 0.00 0.00 0.00 0.00 0.00 0.00 0.00 0.00 0.00 0.00 0.00 0.00 0.00 0.00 0.00 0.00 0.01 0.01
0.10 0.06 0.03 0.02 0.02 0.00 0.00 0.00 0.00 0.00 0.00 0.00 0.00 0.00 0.00 0.00 0.00 0.00 0.00 0.00 0.00 0.00 0.00 0.00 0.00 0.00 0.00 0.00 0.00 0.00 0.00 0.00 0.00 0.00 0.00 0.00 0.00 0.00
0.00 0.00 0.00 0.00 0.00 0.00 0.00 0.00 0.00 0.00 0.00 0.00 0.00 0.00 0.00 0.00 0.00 0.00 0.00 0.00 0.00 0.00 0.00 0.00 0.00 0.00 0.01 0.00 0.00 0.00 0.00 0.00 0.00 0.00 0.00 0.00 0.00 0.00
0.00 0.00 0.00 0.00 0.00 0.00 0.00 0.00 0.00 0.00 0.00 0.00 0.00 0.00 0.00 0.00 0.00 0.00 0.00 0.00 0.01 0.00 0.00 0.02 0.02 0.00 0.01 0.00 0.00 0.00 0.00 0.00 0.00 0.00 0.00 0.00 0.00 0.00
0.00 0.00 0.00 0.00 0.00 0.00 0.00 0.00 0.00 0.00 0.00 0.00 0.00 0.00 0.00 0.00 0.00 0.00 0.00 0.00 0.00 0.00 0.00 0.01 0.05 0.01 0.04 0.04 0.01 0.00 0.00 0.00 0.00 0.00 0.00 0.00 0.00 0.00
0.00 0.00 0.00 0.00 0.00 0.00 0.00 0.00 0.00 0.00 0.00 0.00 0.00 0.00 0.00 0.00 0.00 0.00 0.00 0.00 0.00 0.00 0.00 0.00 0.01 0.02 0.07 0.09 0.04 0.00 0.00 0.00 0.00 0.00 0.00 0.00 0.00 0.00
0.00 0.00 0.00 0.00 0.00 0.00 0.00 0.00 0.00 0.00 0.00 0.00 0.00 0.00 0.00 0.00 0.00 0.00 0.00 0.00 0.00 0.00 0.00 0.00 0.00 0.02 0.08 0.06 0.07 0.04 0.00 0.01 0.00 0.00 0.00 0.00 0.00 0.00
0.00 0.00 0.00 0.00 0.00 0.00 0.00 0.00 0.00 0.00 0.00 0.00 0.00 0.00 0.00 0.00 0.00 0.00 0.00 0.01 0.02 0.01 0.00 0.00 0.00 0.00 0.02 0.04 0.09 0.02 0.00 0.00 0.00 0.00 0.01 0.03 0.01 0.00
0.00 0.00 0.00 0.00 0.00 0.00 0.00 0.00 0.00 0.00 0.00 0.00 0.00 0.01 0.01 0.01 0.01 0.01 0.01 0.02 0.02 0.01 0.00 0.00 0.00 0.02 0.01 0.00 0.01 0.01 0.00 0.00 0.00 0.00 0.01 0.05 0.02 0.00
0.00 0.00 0.00 0.00 0.00 0.00 0.00 0.00 0.00 0.00 0.00 0.00 0.01 0.01 0.02 0.02 0.02 0.02 0.01 0.01 0.02 0.01 0.00 0.00 0.01 0.06 0.12 0.03 0.00 0.00 0.00 0.01 0.00 0.00 0.00 0.01 0.01 0.00
0.00 0.00 0.00 0.00 0.00 0.00 0.00 0.00 0.00 0.00 0.00 0.00 0.01 0.01 0.01 0.02 0.02 0.02 0.01 0.02 0.02 0.02 0.01 0.00 0.01 0.04 0.13 0.06 0.07 0.01 0.00 0.00 0.02 0.03 0.00 0.00 0.00 0.00
0.00 0.00 0.00 0.00 0.00 0.00 0.00 0.00 0.00 0.00 0.00 0.00 0.01 0.01 0.01 0.02 0.02 0.01 0.01 0.01 0.02 0.04 0.04 0.00 0.00 0.01 0.05 0.16 0.16 0.01 0.00 0.00 0.01 0.05 0.04 0.06 0.03 0.01
0.00 0.00 0.00 0.00 0.00 0.00 0.00 0.00 0.00 0.00 0.00 0.00 0.00 0.00 0.01 0.01 0.02 0.02 0.02 0.03 0.02 0.02 0.02 0.00 0.00 0.00 0.06 0.16 0.08 0.01 0.00 0.00 0.00 0.00 0.01 0.08 0.12 0.11
0.00 0.00 0.00 0.00 0.00 0.00 0.00 0.00 0.00 0.00 0.00 0.00 0.00 0.00 0.01 0.02 0.02 0.04 0.05 0.05 0.04 0.04 0.02 0.02 0.01 0.02 0.04 0.06 0.06 0.04 0.01 0.00 0.00 0.00 0.00 0.00 0.01 0.00

GFSNE_prec_precacc24_060.txt.gz
Total_Precipitation_Accumulation
0.23 0.26 0.22 0.19 0.20 0.20 0.22 0.24 0.29 0.28 0.19 0.13 0.14 0.16 0.20 0.29 0.42 0.50 0.57 0.67 0.71 0.73 0.75 0.76 0.75 0.68 0.55 0.50 0.49 0.41 0.39 0.35 0.27 0.20 0.18 0.17 0.15 0.14
0.24 0.27 0.24 0.19 0.21 0.22 0.20 0.18 0.25 0.37 0.49 0.39 0.45 0.52 0.55 0.55 0.58 0.52 0.50 0.54 0.53 0.55 0.57 0.60 0.60 0.50 0.44 0.41 0.42 0.39 0.34 0.31 0.23 0.18 0.19 0.20 0.19 0.18
0.16 0.20 0.23 0.28 0.41 0.52 0.57 0.65 0.76 0.85 0.90 0.78 0.62 0.53 0.46 0.43 0.47 0.42 0.39 0.36 0.37 0.50 0.49 0.49 0.45 0.34 0.28 0.25 0.22 0.21 0.19 0.17 0.17 0.18 0.17 0.16 0.16 0.15
0.09 0.10 0.08 0.07 0.10 0.12 0.14 0.20 0.31 0.44 0.59 0.65 0.60 0.56 0.53 0.49 0.45 0.39 0.33 0.30 0.29 0.35 0.32 0.24 0.18 0.13 0.12 0.11 0.11 0.10 0.09 0.08 0.08 0.10 0.10 0.10 0.09 0.06
0.05 0.06 0.07 0.06 0.08 0.13 0.16 0.19 0.25 0.31 0.40 0.50 0.55 0.52 0.46 0.40 0.33 0.26 0.24 0.21 0.18 0.19 0.16 0.12 0.10 0.09 0.08 0.09 0.08 0.06 0.06 0.06 0.05 0.04 0.03 0.03 0.02 0.02
0.03 0.04 0.04 0.06 0.07 0.08 0.10 0.15 0.18 0.21 0.25 0.27 0.27 0.24 0.19 0.16 0.15 0.11 0.09 0.06 0.03 0.03 0.02 0.02 0.01 0.01 0.02 0.02 0.01 0.01 0.00 0.00 0.00 0.00 0.00 0.00 0.00 0.00
0.05 0.05 0.06 0.11 0.12 0.10 0.12 0.15 0.18 0.22 0.21 0.15 0.11 0.08 0.05 0.04 0.04 0.03 0.03 0.02 0.00 0.00 0.00 0.00 0.00 0.00 0.00 0.00 0.00 0.00 0.00 0.00 0.00 0.00 0.00 0.00 0.00 0.00
0.05 0.08 0.13 0.20 0.21 0.24 0.22 0.18 0.12 0.07 0.04 0.03 0.03 0.02 0.02 0.01 0.01 0.01 0.00 0.00 0.00 0.00 0.00 0.00 0.00 0.00 0.00 0.00 0.00 0.00 0.00 0.00 0.00 0.00 0.00 0.00 0.00 0.00
0.12 0.13 0.12 0.15 0.16 0.14 0.13 0.11 0.08 0.05 0.03 0.01 0.00 0.00 0.00 0.00 0.00 0.00 0.00 0.00 0.00 0.00 0.00 0.00 0.00 0.00 0.00 0.00 0.00 0.00 0.00 0.00 0.00 0.00 0.00 0.00 0.01 0.01
0.19 0.20 0.17 0.15 0.13 0.10 0.06 0.03 0.01 0.00 0.00 0.00 0.00 0.00 0.00 0.00 0.00 0.00 0.00 0.00 0.00 0.00 0.00 0.00 0.00 0.00 0.00 0.00 0.00 0.00 0.00 0.00 0.00 0.00 0.00 0.00 0.01 0.01
0.07 0.04 0.02 0.02 0.02 0.00 0.00 0.00 0.00 0.00 0.00 0.00 0.00 0.00 0.00 0.00 0.00 0.00 0.00 0.00 0.00 0.00 0.00 0.00 0.00 0.00 0.00 0.00 0.00 0.00 0.00 0.00 0.00 0.00 0.00 0.00 0.00 0.00
0.00 0.00 0.00 0.00 0.00 0.00 0.00 0.00 0.00 0.00 0.00 0.00 0.00 0.00 0.00 0.00 0.00 0.00 0.00 0.00 0.00 0.00 0.00 0.00 0.00 0.00 0.00 0.00 0.00 0.00 0.00 0.00 0.00 0.00 0.00 0.00 0.00 0.00
0.00 0.00 0.00 0.00 0.00 0.00 0.00 0.00 0.00 0.00 0.00 0.00 0.00 0.00 0.00 0.00 0.00 0.00 0.00 0.00 0.00 0.00 0.00 0.01 0.01 0.00 0.01 0.00 0.00 0.00 0.00 0.00 0.00 0.00 0.00 0.00 0.00 0.00
0.00 0.00 0.00 0.00 0.00 0.00 0.00 0.00 0.00 0.00 0.00 0.00 0.00 0.00 0.00 0.00 0.00 0.00 0.00 0.00 0.00 0.00 0.00 0.01 0.04 0.01 0.03 0.04 0.01 0.00 0.00 0.00 0.00 0.00 0.00 0.00 0.00 0.00
0.00 0.00 0.00 0.00 0.00 0.00 0.00 0.00 0.00 0.00 0.00 0.00 0.00 0.00 0.00 0.00 0.00 0.00 0.00 0.00 0.00 0.00 0.00 0.00 0.01 0.02 0.07 0.07 0.03 0.00 0.00 0.00 0.00 0.00 0.00 0.00 0.00 0.00
0.00 0.00 0.00 0.00 0.00 0.00 0.00 0.00 0.00 0.00 0.00 0.00 0.00 0.00 0.00 0.00 0.00 0.00 0.00 0.00 0.00 0.00 0.00 0.00 0.00 0.02 0.07 0.05 0.06 0.03 0.00 0.01 0.00 0.00 0.00 0.00 0.00 0.00
0.00 0.00 0.00 0.00 0.00 0.00 0.00 0.00 0.00 0.00 0.00 0.00 0.00 0.00 0.00 0.00 0.00 0.00 0.00 0.01 0.02 0.00 0.00 0.00 0.00 0.00 0.01 0.03 0.08 0.01 0.00 0.00 0.00 0.00 0.01 0.02 0.00 0.00
0.00 0.00 0.00 0.00 0.00 0.00 0.00 0.00 0.00 0.00 0.00 0.00 0.00 0.00 0.00 0.01 0.01 0.01 0.01 0.02 0.02 0.00 0.00 0.00 0.00 0.01 0.01 0.00 0.01 0.01 0.00 0.00 0.00 0.00 0.00 0.04 0.01 0.00
0.00 0.00 0.00 0.00 0.00 0.00 0.00 0.00 0.00 0.00 0.00 0.00 0.00 0.01 0.01 0.01 0.01 0.01 0.01 0.01 0.01 0.01 0.00 0.00 0.00 0.04 0.09 0.03 0.00 0.00 0.00 0.00 0.00 0.00 0.00 0.00 0.00 0.00
0.00 0.00 0.00 0.00 0.00 0.00 0.00 0.00 0.00 0.00 0.00 0.00 0.00 0.01 0.01 0.01 0.02 0.02 0.01 0.02 0.02 0.01 0.01 0.00 0.01 0.03 0.11 0.05 0.07 0.01 0.00 0.00 0.00 0.00 0.00 0.00 0.00 0.00
0.00 0.00 0.00 0.00 0.00 0.00 0.00 0.00 0.00 0.00 0.00 0.00 0.00 0.01 0.00 0.01 0.02 0.01 0.01 0.01 0.02 0.04 0.03 0.00 0.00 0.01 0.05 0.16 0.15 0.01 0.00 0.00 0.00 0.00 0.01 0.04 0.02 0.01
0.00 0.00 0.00 0.00 0.00 0.00 0.00 0.00 0.00 0.00 0.00 0.00 0.00 0.00 0.00 0.01 0.02 0.01 0.01 0.03 0.02 0.02 0.02 0.00 0.00 0.00 0.04 0.13 0.07 0.01 0.00 0.00 0.00 0.00 0.00 0.03 0.06 0.07
0.00 0.00 0.00 0.00 0.00 0.00 0.00 0.00 0.00 0.00 0.00 0.00 0.00 0.00 0.01 0.02 0.02 0.04 0.05 0.05 0.04 0.04 0.02 0.02 0.00 0.01 0.04 0.05 0.05 0.03 0.01 0.00 0.00 0.00 0.00 0.00 0.00 0.00

GFSNE_prec_precacc24_063.txt.gz
Total_Precipitation_Accumulation
0.16 0.18 0.16 0.16 0.20 0.21 0.23 0.23 0.29 0.26 0.17 0.12 0.14 0.16 0.20 0.29 0.42 0.50 0.57 0.67 0.71 0.73 0.75 0.76 0.75 0.68 0.56 0.50 0.52 0.50 0.43 0.38 0.31 0.25 0.23 0.19 0.17 0.15
0.16 0.18 0.18 0.15 0.19 0.21 0.20 0.17 0.23 0.34 0.44 0.37 0.43 0.50 0.53 0.54 0.57 0.51 0.49 0.54 0.53 0.55 0.57 0.61 0.61 0.52 0.46 0.42 0.43 0.40 0.36 0.33 0.30 0.24 0.22 0.22 0.21 0.18
0.10 0.14 0.14 0.12 0.12 0.13 0.18 0.31 0.51 0.71 0.83 0.72 0.56 0.49 0.44 0.39 0.43 0.39 0.38 0.36 0.37 0.51 0.49 0.49 0.45 0.35 0.31 0.27 0.23 0.22 0.20 0.18 0.19 0.20 0.20 0.18 0.16 0.15
0.05 0.06 0.06 0.04 0.04 0.05 0.06 0.12 0.24 0.37 0.49 0.53 0.49 0.44 0.40 0.37 0.38 0.36 0.32 0.30 0.29 0.35 0.32 0.24 0.18 0.13 0.12 0.11 0.11 0.11 0.09 0.08 0.08 0.10 0.10 0.10 0.09 0.06
0.02 0.02 0.04 0.04 0.05 0.06 0.07 0.10 0.16 0.22 0.28 0.36 0.42 0.44 0.42 0.38 0.32 0.25 0.23 0.21 0.18 0.19 0.16 0.12 0.10 0.09 0.08 0.09 0.08 0.06 0.06 0.06 0.05 0.04 0.03 0.03 0.02 0.02
0.01 0.01 0.02 0.02 0.03 0.03 0.04 0.07 0.10 0.13 0.16 0.20 0.21 0.21 0.18 0.16 0.13 0.10 0.09 0.06 0.03 0.03 0.02 0.02 0.01 0.01 0.02 0.02 0.01 0.01 0.00 0.00 0.00 0.00 0.00 0.00 0.00 0.00
0.00 0.01 0.02 0.05 0.06 0.05 0.05 0.08 0.11 0.13 0.12 0.08 0.07 0.06 0.05 0.04 0.03 0.03 0.03 0.02 0.00 0.00 0.00 0.00 0.00 0.00 0.00 0.00 0.00 0.00 0.00 0.00 0.00 0.00 0.00 0.00 0.00 0.00
0.02 0.04 0.05 0.06 0.10 0.18 0.16 0.14 0.09 0.05 0.03 0.02 0.02 0.02 0.02 0.01 0.01 0.01 0.00 0.00 0.00 0.00 0.00 0.00 0.00 0.00 0.00 0.00 0.00 0.00 0.00 0.00 0.00 0.00 0.00 0.00 0.00 0.00
0.07 0.08 0.05 0.07 0.09 0.08 0.09 0.08 0.06 0.04 0.02 0.01 0.00 0.00 0.00 0.00 0.00 0.00 0.00 0.00 0.00 0.00 0.00 0.00 0.00 0.00 0.00 0.00 0.00 0.00 0.00 0.00 0.00 0.00 0.00 0.00 0.00 0.01
0.10 0.11 0.10 0.11 0.11 0.09 0.06 0.03 0.01 0.00 0.00 0.00 0.00 0.00 0.00 0.00 0.00 0.00 0.00 0.00 0.00 0.00 0.00 0.00 0.00 0.00 0.00 0.00 0.00 0.00 0.00 0.00 0.00 0.00 0.00 0.00 0.00 0.01
0.05 0.04 0.02 0.02 0.02 0.00 0.00 0.00 0.00 0.00 0.00 0.00 0.00 0.00 0.00 0.00 0.00 0.00 0.00 0.00 0.00 0.00 0.00 0.00 0.00 0.00 0.00 0.00 0.00 0.00 0.00 0.00 0.00 0.00 0.00 0.00 0.00 0.01
0.00 0.00 0.00 0.00 0.00 0.00 0.00 0.00 0.00 0.00 0.00 0.00 0.00 0.00 0.00 0.00 0.00 0.00 0.00 0.00 0.00 0.00 0.00 0.00 0.00 0.00 0.00 0.00 0.00 0.00 0.00 0.00 0.00 0.00 0.00 0.00 0.00 0.00
0.00 0.00 0.00 0.00 0.00 0.00 0.00 0.00 0.00 0.00 0.00 0.00 0.00 0.00 0.00 0.00 0.00 0.00 0.00 0.00 0.00 0.00 0.00 0.00 0.01 0.00 0.00 0.00 0.00 0.00 0.00 0.00 0.00 0.00 0.00 0.00 0.00 0.00
0.00 0.00 0.00 0.00 0.00 0.00 0.00 0.00 0.00 0.00 0.00 0.00 0.00 0.00 0.00 0.00 0.00 0.00 0.00 0.00 0.00 0.00 0.00 0.00 0.02 0.01 0.03 0.03 0.00 0.00 0.00 0.00 0.00 0.00 0.00 0.00 0.00 0.00
0.00 0.00 0.00 0.00 0.00 0.00 0.00 0.00 0.00 0.00 0.00 0.00 0.00 0.00 0.00 0.00 0.00 0.00 0.00 0.00 0.00 0.00 0.00 0.00 0.00 0.01 0.06 0.06 0.02 0.00 0.00 0.00 0.00 0.00 0.00 0.00 0.00 0.00
0.00 0.00 0.00 0.00 0.00 0.00 0.00 0.00 0.00 0.00 0.00 0.00 0.00 0.00 0.00 0.00 0.00 0.00 0.00 0.00 0.00 0.00 0.00 0.00 0.00 0.02 0.06 0.04 0.05 0.02 0.00 0.00 0.00 0.00 0.00 0.00 0.00 0.00
0.00 0.00 0.00 0.00 0.00 0.00 0.00 0.00 0.00 0.00 0.00 0.00 0.00 0.00 0.00 0.00 0.00 0.00 0.00 0.01 0.02 0.00 0.00 0.00 0.00 0.00 0.01 0.02 0.06 0.01 0.00 0.00 0.00 0.00 0.00 0.01 0.00 0.00
0.00 0.00 0.00 0.00 0.00 0.00 0.00 0.00 0.00 0.00 0.00 0.00 0.00 0.00 0.00 0.00 0.01 0.00 0.00 0.01 0.02 0.00 0.00 0.00 0.00 0.01 0.01 0.00 0.01 0.01 0.00 0.00 0.00 0.00 0.00 0.03 0.01 0.00
0.00 0.00 0.00 0.00 0.00 0.00 0.00 0.00 0.00 0.00 0.00 0.00 0.00 0.00 0.01 0.01 0.01 0.01 0.01 0.01 0.01 0.00 0.00 0.00 0.00 0.04 0.08 0.02 0.00 0.00 0.00 0.00 0.00 0.00 0.00 0.00 0.00 0.00
0.00 0.00 0.00 0.00 0.00 0.00 0.00 0.00 0.00 0.00 0.00 0.00 0.00 0.00 0.00 0.01 0.01 0.01 0.01 0.01 0.01 0.01 0.01 0.00 0.01 0.03 0.10 0.04 0.06 0.01 0.00 0.00 0.00 0.00 0.00 0.00 0.00 0.00
0.00 0.00 0.00 0.00 0.00 0.00 0.00 0.00 0.00 0.00 0.00 0.00 0.00 0.00 0.00 0.01 0.01 0.00 0.00 0.01 0.01 0.03 0.03 0.00 0.00 0.01 0.07 0.17 0.15 0.01 0.00 0.00 0.00 0.00 0.00 0.02 0.02 0.01
0.00 0.00 0.00 0.00 0.00 0.00 0.00 0.00 0.00 0.00 0.00 0.00 0.00 0.00 0.00 0.00 0.01 0.01 0.01 0.02 0.02 0.02 0.02 0.00 0.00 0.00 0.04 0.11 0.05 0.01 0.00 0.00 0.00 0.00 0.00 0.02 0.02 0.03
0.00 0.00 0.00 0.00 0.00 0.00 0.00 0.00 0.00 0.00 0.00 0.00 0.00 0.00 0.00 0.01 0.01 0.03 0.04 0.04 0.04 0.03 0.02 0.02 0.01 0.01 0.03 0.04 0.04 0.03 0.01 0.00 0.00 0.00 0.00 0.00 0.00 0.00

GFSNE_prec_precacc24_066.txt.gz
Total_Precipitation_Accumulation
0.11 0.13 0.12 0.11 0.14 0.15 0.17 0.19 0.24 0.21 0.12 0.06 0.06 0.10 0.17 0.26 0.40 0.49 0.56 0.67 0.72 0.74 0.75 0.76 0.75 0.68 0.56 0.51 0.53 0.50 0.43 0.38 0.31 0.26 0.24 0.22 0.20 0.18
0.08 0.10 0.11 0.11 0.11 0.14 0.14 0.16 0.20 0.23 0.24 0.14 0.20 0.31 0.41 0.48 0.55 0.51 0.49 0.54 0.52 0.55 0.58 0.61 0.61 0.53 0.47 0.43 0.45 0.42 0.37 0.34 0.30 0.26 0.24 0.25 0.25 0.23
0.03 0.06 0.07 0.07 0.07 0.09 0.10 0.13 0.16 0.19 0.21 0.18 0.26 0.34 0.37 0.37 0.41 0.35 0.34 0.32 0.36 0.50 0.49 0.49 0.46 0.36 0.31 0.28 0.25 0.23 0.21 0.20 0.22 0.23 0.23 0.21 0.21 0.18
0.01 0.01 0.01 0.01 0.02 0.03 0.04 0.06 0.09 0.14 0.19 0.24 0.27 0.29 0.29 0.32 0.33 0.32 0.31 0.30 0.29 0.35 0.32 0.24 0.18 0.14 0.13 0.12 0.12 0.11 0.09 0.08 0.08 0.10 0.10 0.11 0.09 0.06
0.00 0.01 0.01 0.02 0.02 0.03 0.04 0.05 0.07 0.11 0.16 0.21 0.27 0.32 0.31 0.32 0.29 0.24 0.23 0.21 0.18 0.19 0.16 0.12 0.10 0.09 0.08 0.09 0.08 0.06 0.06 0.06 0.05 0.04 0.03 0.03 0.02 0.02
0.00 0.00 0.00 0.00 0.01 0.01 0.01 0.04 0.07 0.09 0.12 0.15 0.17 0.17 0.15 0.14 0.13 0.10 0.09 0.06 0.03 0.03 0.02 0.02 0.01 0.01 0.02 0.02 0.01 0.01 0.00 0.00 0.00 0.00 0.00 0.00 0.00 0.00
0.00 0.00 0.00 0.01 0.03 0.02 0.02 0.03 0.06 0.09 0.08 0.06 0.06 0.05 0.04 0.03 0.03 0.03 0.03 0.02 0.00 0.00 0.00 0.00 0.00 0.00 0.00 0.00 0.00 0.00 0.00 0.00 0.00 0.00 0.00 0.00 0.00 0.00
0.00 0.02 0.03 0.02 0.04 0.07 0.09 0.09 0.06 0.03 0.02 0.02 0.02 0.02 0.02 0.01 0.01 0.01 0.00 0.00 0.00 0.00 0.00 0.00 0.00 0.00 0.00 0.00 0.00 0.00 0.00 0.00 0.00 0.00 0.00 0.00 0.00 0.00
0.01 0.03 0.02 0.04 0.05 0.04 0.04 0.03 0.02 0.03 0.01 0.01 0.00 0.00 0.00 0.00 0.00 0.00 0.00 0.00 0.00 0.00 0.00 0.00 0.00 0.00 0.00 0.00 0.00 0.00 0.00 0.00 0.00 0.00 0.00 0.00 0.00 0.01
0.01 0.03 0.03 0.05 0.05 0.06 0.05 0.03 0.01 0.00 0.00 0.00 0.00 0.00 0.00 0.00 0.00 0.00 0.00 0.00 0.00 0.00 0.00 0.00 0.00 0.00 0.00 0.00 0.00 0.00 0.00 0.00 0.00 0.00 0.00 0.00 0.00 0.01
0.00 0.00 0.00 0.00 0.00 0.00 0.00 0.00 0.00 0.00 0.00 0.00 0.00 0.00 0.00 0.00 0.00 0.00 0.00 0.00 0.00 0.00 0.00 0.00 0.00 0.00 0.00 0.00 0.00 0.00 0.00 0.00 0.00 0.00 0.00 0.00 0.00 0.00
0.00 0.00 0.00 0.00 0.00 0.00 0.00 0.00 0.00 0.00 0.00 0.00 0.00 0.00 0.00 0.00 0.00 0.00 0.00 0.00 0.00 0.00 0.00 0.00 0.00 0.00 0.00 0.00 0.00 0.00 0.00 0.00 0.00 0.00 0.00 0.00 0.00 0.00
0.00 0.00 0.00 0.00 0.00 0.00 0.00 0.00 0.00 0.00 0.00 0.00 0.00 0.00 0.00 0.00 0.00 0.00 0.00 0.00 0.00 0.00 0.00 0.00 0.00 0.00 0.00 0.00 0.00 0.00 0.00 0.00 0.00 0.00 0.00 0.00 0.00 0.00
0.00 0.00 0.00 0.00 0.00 0.00 0.00 0.00 0.00 0.00 0.00 0.00 0.00 0.00 0.00 0.00 0.00 0.00 0.00 0.00 0.00 0.00 0.00 0.00 0.01 0.01 0.02 0.02 0.00 0.00 0.00 0.00 0.00 0.00 0.00 0.00 0.00 0.00
0.00 0.00 0.00 0.00 0.00 0.00 0.00 0.00 0.00 0.00 0.00 0.00 0.00 0.00 0.00 0.00 0.00 0.00 0.00 0.00 0.00 0.00 0.00 0.00 0.00 0.01 0.05 0.04 0.02 0.00 0.00 0.00 0.00 0.00 0.00 0.00 0.00 0.00
0.00 0.00 0.00 0.00 0.00 0.00 0.00 0.00 0.00 0.00 0.00 0.00 0.00 0.00 0.00 0.00 0.00 0.00 0.00 0.00 0.00 0.00 0.00 0.00 0.00 0.01 0.04 0.03 0.04 0.02 0.00 0.00 0.00 0.00 0.00 0.00 0.00 0.00
0.00 0.00 0.00 0.00 0.00 0.00 0.00 0.00 0.00 0.00 0.00 0.00 0.00 0.00 0.00 0.00 0.00 0.00 0.00 0.00 0.01 0.00 0.00 0.00 0.00 0.00 0.00 0.01 0.04 0.01 0.00 0.00 0.00 0.00 0.00 0.00 0.00 0.00
0.00 0.00 0.00 0.00 0.00 0.00 0.00 0.00 0.00 0.00 0.00 0.00 0.00 0.00 0.00 0.00 0.00 0.00 0.00 0.01 0.01 0.00 0.00 0.00 0.00 0.01 0.00 0.00 0.00 0.00 0.00 0.00 0.00 0.00 0.00 0.02 0.01 0.00
0.00 0.00 0.00 0.00 0.00 0.00 0.00 0.00 0.00 0.00 0.00 0.00 0.00 0.00 0.01 0.01 0.01 0.01 0.00 0.01 0.01 0.00 0.00 0.00 0.00 0.03 0.06 0.02 0.00 0.00 0.00 0.00 0.00 0.00 0.00 0.00 0.00 0.00
0.00 0.00 0.00 0.00 0.00 0.00 0.00 0.00 0.00 0.00 0.00 0.00 0.00 0.00 0.00 0.00 0.01 0.01 0.01 0.01 0.01 0.00 0.00 0.00 0.00 0.03 0.08 0.02 0.04 0.00 0.00 0.00 0.00 0.00 0.00 0.00 0.00 0.00
0.00 0.00 0.00 0.00 0.00 0.00 0.00 0.00 0.00 0.00 0.00 0.00 0.00 0.00 0.00 0.00 0.00 0.00 0.00 0.00 0.01 0.02 0.02 0.00 0.00 0.01 0.08 0.17 0.15 0.01 0.00 0.00 0.00 0.00 0.00 0.02 0.02 0.01
0.00 0.00 0.00 0.00 0.00 0.00 0.00 0.00 0.00 0.00 0.00 0.00 0.00 0.00 0.00 0.00 0.00 0.00 0.00 0.02 0.01 0.01 0.02 0.00 0.00 0.00 0.04 0.10 0.05 0.00 0.00 0.00 0.00 0.00 0.00 0.01 0.03 0.03
0.00 0.00 0.00 0.00 0.00 0.00 0.00 0.00 0.00 0.00 0.00 0.00 0.00 0.00 0.00 0.01 0.01 0.03 0.04 0.04 0.03 0.03 0.01 0.02 0.00 0.01 0.03 0.04 0.04 0.02 0.01 0.00 0.00 0.00 0.00 0.00 0.00 0.00

GFSNE_prec_precacc24_069.txt.gz
Total_Precipitation_Accumulation
0.03 0.04 0.05 0.06 0.08 0.09 0.11 0.13 0.19 0.17 0.09 0.03 0.01 0.01 0.03 0.10 0.20 0.31 0.36 0.47 0.55 0.62 0.69 0.74 0.74 0.68 0.57 0.52 0.54 0.51 0.43 0.39 0.31 0.28 0.28 0.28 0.28 0.34
0.01 0.02 0.03 0.04 0.06 0.08 0.09 0.11 0.15 0.17 0.14 0.03 0.02 0.04 0.08 0.13 0.18 0.20 0.23 0.36 0.42 0.50 0.55 0.60 0.61 0.53 0.48 0.45 0.46 0.44 0.39 0.36 0.32 0.27 0.25 0.26 0.27 0.25
0.00 0.00 0.00 0.00 0.01 0.03 0.03 0.03 0.08 0.14 0.16 0.11 0.06 0.07 0.08 0.11 0.17 0.20 0.25 0.29 0.33 0.48 0.48 0.49 0.46 0.36 0.32 0.29 0.26 0.24 0.22 0.20 0.23 0.24 0.25 0.23 0.24 0.23
0.00 0.00 0.00 0.00 0.00 0.00 0.00 0.01 0.01 0.06 0.10 0.14 0.17 0.19 0.19 0.21 0.23 0.24 0.27 0.26 0.27 0.33 0.31 0.24 0.18 0.14 0.13 0.12 0.12 0.12 0.10 0.08 0.08 0.10 0.11 0.12 0.10 0.07
0.00 0.00 0.00 0.00 0.01 0.01 0.01 0.01 0.00 0.01 0.05 0.09 0.13 0.17 0.18 0.23 0.23 0.21 0.22 0.20 0.18 0.19 0.16 0.12 0.10 0.09 0.08 0.09 0.08 0.06 0.06 0.06 0.05 0.04 0.03 0.03 0.02 0.02
0.00 0.00 0.00 0.00 0.00 0.00 0.00 0.01 0.02 0.02 0.02 0.02 0.04 0.14 0.13 0.13 0.12 0.10 0.08 0.06 0.03 0.03 0.02 0.02 0.01 0.01 0.02 0.02 0.01 0.01 0.00 0.00 0.00 0.00 0.00 0.00 0.00 0.00
0.00 0.00 0.00 0.01 0.02 0.01 0.00 0.02 0.05 0.08 0.07 0.04 0.04 0.05 0.03 0.03 0.03 0.03 0.03 0.02 0.00 0.00 0.00 0.00 0.00 0.00 0.00 0.00 0.00 0.00 0.00 0.00 0.00 0.00 0.00 0.00 0.00 0.00
0.00 0.00 0.00 0.00 0.01 0.02 0.04 0.07 0.04 0.02 0.01 0.01 0.02 0.02 0.02 0.01 0.01 0.01 0.00 0.00 0.00 0.00 0.00 0.00 0.00 0.00 0.00 0.00 0.00 0.00 0.00 0.00 0.00 0.00 0.00 0.00 0.00 0.00
0.00 0.00 0.00 0.00 0.00 0.00 0.01 0.02 0.01 0.01 0.01 0.01 0.00 0.00 0.00 0.00 0.00 0.00 0.00 0.00 0.00 0.00 0.00 0.00 0.00 0.00 0.00 0.00 0.00 0.00 0.00 0.00 0.00 0.00 0.00 0.00 0.00 0.01
0.00 0.00 0.00 0.00 0.00 0.00 0.00 0.00 0.00 0.00 0.00 0.00 0.00 0.00 0.00 0.00 0.00 0.00 0.00 0.00 0.00 0.00 0.00 0.00 0.00 0.00 0.00 0.00 0.00 0.00 0.00 0.00 0.00 0.00 0.00 0.00 0.00 0.01
0.00 0.00 0.00 0.00 0.00 0.00 0.00 0.00 0.00 0.00 0.00 0.00 0.00 0.00 0.00 0.00 0.00 0.00 0.00 0.00 0.00 0.00 0.00 0.00 0.00 0.00 0.00 0.00 0.00 0.00 0.00 0.00 0.00 0.00 0.00 0.00 0.00 0.00
0.00 0.00 0.00 0.00 0.00 0.00 0.00 0.00 0.00 0.00 0.00 0.00 0.00 0.00 0.00 0.00 0.00 0.00 0.00 0.00 0.00 0.00 0.00 0.00 0.00 0.00 0.00 0.00 0.00 0.00 0.00 0.00 0.00 0.00 0.00 0.00 0.00 0.00
0.00 0.00 0.00 0.00 0.00 0.00 0.00 0.00 0.00 0.00 0.00 0.00 0.00 0.00 0.00 0.00 0.00 0.00 0.00 0.00 0.00 0.00 0.00 0.00 0.00 0.00 0.00 0.00 0.00 0.00 0.00 0.00 0.00 0.00 0.00 0.00 0.00 0.00
0.00 0.00 0.00 0.00 0.00 0.00 0.00 0.00 0.00 0.00 0.00 0.00 0.00 0.00 0.00 0.00 0.00 0.00 0.00 0.00 0.00 0.00 0.00 0.00 0.01 0.00 0.01 0.01 0.00 0.00 0.00 0.00 0.00 0.00 0.00 0.00 0.00 0.00
0.00 0.00 0.00 0.00 0.00 0.00 0.00 0.00 0.00 0.00 0.00 0.00 0.00 0.00 0.00 0.00 0.00 0.00 0.00 0.00 0.00 0.00 0.00 0.00 0.00 0.01 0.03 0.03 0.01 0.00 0.00 0.00 0.00 0.00 0.00 0.00 0.00 0.00
0.00 0.00 0.00 0.00 0.00 0.00 0.00 0.00 0.00 0.00 0.00 0.00 0.00 0.00 0.00 0.00 0.00 0.00 0.00 0.00 0.00 0.00 0.00 0.00 0.00 0.01 0.03 0.02 0.03 0.01 0.00 0.00 0.00 0.00 0.00 0.00 0.00 0.00
0.00 0.00 0.00 0.00 0.00 0.00 0.00 0.00 0.00 0.00 0.00 0.00 0.00 0.00 0.00 0.00 0.00 0.00 0.00 0.00 0.01 0.00 0.00 0.00 0.00 0.00 0.00 0.00 0.02 0.00 0.00 0.00 0.00 0.00 0.00 0.00 0.00 0.00
0.00 0.00 0.00 0.00 0.00 0.00 0.00 0.00 0.00 0.00 0.00 0.00 0.00 0.00 0.00 0.00 0.00 0.00 0.00 0.01 0.01 0.00 0.00 0.00 0.00 0.00 0.00 0.00 0.00 0.00 0.00 0.00 0.00 0.00 0.00 0.01 0.00 0.00
0.00 0.00 0.00 0.00 0.00 0.00 0.00 0.00 0.00 0.00 0.00 0.00 0.00 0.00 0.00 0.00 0.00 0.00 0.00 0.00 0.00 0.00 0.00 0.00 0.00 0.02 0.05 0.01 0.00 0.00 0.00 0.00 0.00 0.00 0.00 0.00 0.00 0.00
0.00 0.00 0.00 0.00 0.00 0.00 0.00 0.00 0.00 0.00 0.00 0.00 0.00 0.00 0.00 0.00 0.00 0.00 0.00 0.00 0.00 0.00 0.00 0.00 0.00 0.02 0.06 0.02 0.03 0.00 0.00 0.00 0.00 0.00 0.00 0.00 0.00 0.00
0.00 0.00 0.00 0.00 0.00 0.00 0.00 0.00 0.00 0.00 0.00 0.00 0.00 0.00 0.00 0.00 0.00 0.00 0.00 0.00 0.00 0.01 0.01 0.00 0.00 0.01 0.08 0.17 0.14 0.01 0.00 0.00 0.00 0.00 0.00 0.02 0.02 0.01
0.00 0.00 0.00 0.00 0.00 0.00 0.00 0.00 0.00 0.00 0.00 0.00 0.00 0.00 0.00 0.00 0.00 0.00 0.00 0.01 0.01 0.01 0.01 0.00 0.00 0.00 0.03 0.09 0.04 0.00 0.00 0.00 0.00 0.00 0.00 0.01 0.02 0.03
0.00 0.00 0.00 0.00 0.00 0.00 0.00 0.00 0.00 0.00 0.00 0.00 0.00 0.00 0.00 0.01 0.01 0.02 0.02 0.03 0.03 0.03 0.01 0.02 0.00 0.01 0.03 0.03 0.04 0.02 0.00 0.00 0.00 0.00 0.00 0.00 0.00 0.00

GFSNE_prec_precacc24_072.txt.gz
Total_Precipitation_Accumulation
0.02 0.02 0.03 0.03 0.04 0.04 0.06 0.08 0.11 0.09 0.05 0.02 0.00 0.01 0.02 0.05 0.08 0.09 0.09 0.14 0.20 0.27 0.35 0.45 0.50 0.50 0.47 0.48 0.53 0.51 0.44 0.39 0.31 0.28 0.32 0.37 0.39 0.47
0.01 0.01 0.02 0.03 0.03 0.04 0.05 0.06 0.08 0.11 0.10 0.02 0.02 0.01 0.01 0.01 0.03 0.04 0.06 0.12 0.18 0.28 0.36 0.43 0.44 0.41 0.42 0.42 0.46 0.44 0.39 0.36 0.32 0.28 0.27 0.29 0.29 0.27
0.00 0.00 0.00 0.00 0.00 0.01 0.01 0.01 0.01 0.01 0.03 0.03 0.02 0.02 0.03 0.03 0.06 0.05 0.08 0.12 0.20 0.35 0.38 0.41 0.38 0.32 0.30 0.28 0.26 0.24 0.22 0.20 0.23 0.24 0.25 0.24 0.24 0.23
0.00 0.00 0.00 0.00 0.00 0.00 0.00 0.00 0.01 0.01 0.01 0.01 0.01 0.03 0.08 0.13 0.16 0.16 0.15 0.16 0.18 0.26 0.26 0.22 0.17 0.13 0.13 0.12 0.12 0.12 0.10 0.09 0.09 0.10 0.11 0.12 0.10 0.07
0.00 0.00 0.00 0.00 0.00 0.00 0.00 0.00 0.00 0.00 0.00 0.00 0.02 0.02 0.03 0.06 0.07 0.11 0.15 0.16 0.16 0.18 0.14 0.11 0.10 0.09 0.08 0.09 0.08 0.07 0.06 0.06 0.05 0.04 0.03 0.02 0.02 0.01
0.00 0.00 0.00 0.00 0.00 0.00 0.00 0.00 0.00 0.00 0.00 0.00 0.00 0.02 0.04 0.05 0.07 0.06 0.06 0.04 0.03 0.03 0.02 0.02 0.01 0.01 0.02 0.02 0.01 0.01 0.00 0.00 0.00 0.00 0.00 0.00 0.00 0.00
0.00 0.00 0.00 0.00 0.01 0.01 0.00 0.00 0.00 0.00 0.00 0.02 0.01 0.03 0.02 0.01 0.01 0.01 0.02 0.01 0.00 0.00 0.00 0.00 0.00 0.00 0.00 0.00 0.00 0.00 0.00 0.00 0.00 0.00 0.00 0.00 0.00 0.00
0.00 0.00 0.00 0.00 0.01 0.01 0.02 0.01 0.01 0.00 0.00 0.00 0.00 0.00 0.00 0.00 0.00 0.00 0.00 0.00 0.00 0.00 0.00 0.00 0.00 0.00 0.00 0.00 0.00 0.00 0.00 0.00 0.00 0.00 0.00 0.00 0.00 0.00
0.00 0.00 0.00 0.00 0.00 0.00 0.00 0.00 0.00 0.00 0.00 0.00 0.00 0.00 0.00 0.00 0.00 0.00 0.00 0.00 0.00 0.00 0.00 0.00 0.00 0.00 0.00 0.00 0.00 0.00 0.00 0.00 0.00 0.00 0.00 0.00 0.00 0.00
0.00 0.00 0.00 0.00 0.00 0.00 0.00 0.00 0.00 0.00 0.00 0.00 0.00 0.00 0.00 0.00 0.00 0.00 0.00 0.00 0.00 0.00 0.00 0.00 0.00 0.00 0.00 0.00 0.00 0.00 0.00 0.00 0.00 0.00 0.00 0.00 0.00 0.01
0.00 0.00 0.00 0.00 0.00 0.00 0.00 0.00 0.00 0.00 0.00 0.00 0.00 0.00 0.00 0.00 0.00 0.00 0.00 0.00 0.00 0.00 0.00 0.00 0.00 0.00 0.00 0.00 0.00 0.00 0.00 0.00 0.00 0.00 0.00 0.00 0.00 0.00
0.00 0.00 0.00 0.00 0.00 0.00 0.00 0.00 0.00 0.00 0.00 0.00 0.00 0.00 0.00 0.00 0.00 0.00 0.00 0.00 0.00 0.00 0.00 0.00 0.00 0.00 0.00 0.00 0.00 0.00 0.00 0.00 0.00 0.00 0.00 0.00 0.00 0.00
0.00 0.00 0.00 0.00 0.00 0.00 0.00 0.00 0.00 0.00 0.00 0.00 0.00 0.00 0.00 0.00 0.00 0.00 0.00 0.00 0.00 0.00 0.00 0.00 0.00 0.00 0.00 0.00 0.00 0.00 0.00 0.00 0.00 0.00 0.00 0.00 0.00 0.00
0.00 0.00 0.00 0.00 0.00 0.00 0.00 0.00 0.00 0.00 0.00 0.00 0.00 0.00 0.00 0.00 0.00 0.00 0.00 0.00 0.00 0.00 0.00 0.00 0.00 0.00 0.01 0.01 0.00 0.00 0.00 0.00 0.00 0.00 0.00 0.00 0.00 0.00
0.00 0.00 0.00 0.00 0.00 0.00 0.00 0.00 0.00 0.00 0.00 0.00 0.00 0.00 0.00 0.00 0.00 0.00 0.00 0.00 0.00 0.00 0.00 0.00 0.00 0.00 0.02 0.02 0.01 0.00 0.00 0.00 0.00 0.00 0.00 0.00 0.00 0.00
0.00 0.00 0.00 0.00 0.00 0.00 0.00 0.00 0.00 0.00 0.00 0.00 0.00 0.00 0.00 0.00 0.00 0.00 0.00 0.00 0.00 0.00 0.00 0.00 0.00 0.00 0.02 0.02 0.02 0.01 0.00 0.00 0.00 0.00 0.00 0.00 0.00 0.00
0.00 0.00 0.00 0.00 0.00 0.00 0.00 0.00 0.00 0.00 0.00 0.00 0.00 0.00 0.00 0.00 0.00 0.00 0.00 0.00 0.01 0.00 0.00 0.00 0.00 0.00 0.00 0.00 0.01 0.00 0.00 0.00 0.00 0.00 0.00 0.00 0.00 0.00
0.00 0.00 0.00 0.00 0.00 0.00 0.00 0.00 0.00 0.00 0.00 0.00 0.00 0.00 0.00 0.00 0.00 0.00 0.00 0.00 0.01 0.00 0.00 0.00 0.00 0.00 0.00 0.00 0.00 0.00 0.00 0.00 0.00 0.00 0.00 0.01 0.00 0.00
0.00 0.00 0.00 0.00 0.00 0.00 0.00 0.00 0.00 0.00 0.00 0.00 0.00 0.00 0.00 0.00 0.00 0.00 0.00 0.00 0.00 0.00 0.00 0.00 0.00 0.01 0.04 0.01 0.00 0.00 0.00 0.00 0.00 0.00 0.00 0.00 0.00 0.00
0.00 0.00 0.00 0.00 0.00 0.00 0.00 0.00 0.00 0.00 0.00 0.00 0.00 0.00 0.00 0.00 0.00 0.00 0.00 0.00 0.00 0.00 0.00 0.00 0.00 0.02 0.05 0.01 0.02 0.00 0.00 0.00 0.00 0.00 0.00 0.00 0.00 0.00
0.00 0.00 0.00 0.00 0.00 0.00 0.00 0.00 0.00 0.00 0.00 0.00 0.00 0.00 0.00 0.00 0.00 0.00 0.00 0.00 0.00 0.00 0.01 0.00 0.00 0.00 0.07 0.16 0.12 0.01 0.00 0.00 0.00 0.00 0.00 0.03 0.02 0.01
0.00 0.00 0.00 0.00 0.00 0.00 0.00 0.00 0.00 0.00 0.00 0.00 0.00 0.00 0.00 0.00 0.00 0.00 0.00 0.01 0.01 0.01 0.01 0.00 0.00 0.00 0.03 0.09 0.04 0.00 0.00 0.00 0.00 0.00 0.00 0.01 0.02 0.03
0.00 0.00 0.00 0.00 0.00 0.00 0.00 0.00 0.00 0.00 0.00 0.00 0.00 0.00 0.00 0.01 0.02 0.03 0.04 0.04 0.03 0.03 0.01 0.02 0.00 0.01 0.02 0.03 0.03 0.02 0.00 0.00 0.00 0.00 0.00 0.00 0.00 0.00

GFSNE_prec_precacc24_075.txt.gz
Total_Precipitation_Accumulation
0.02 0.02 0.03 0.03 0.03 0.03 0.04 0.06 0.09 0.07 0.04 0.02 0.01 0.00 0.00 0.00 0.02 0.01 0.01 0.06 0.13 0.18 0.21 0.29 0.35 0.36 0.36 0.38 0.42 0.41 0.34 0.31 0.25 0.24 0.31 0.40 0.49 0.62
0.01 0.01 0.02 0.02 0.02 0.03 0.04 0.05 0.07 0.09 0.08 0.02 0.02 0.02 0.01 0.01 0.03 0.01 0.00 0.04 0.11 0.20 0.27 0.32 0.34 0.31 0.32 0.33 0.36 0.34 0.30 0.29 0.29 0.27 0.26 0.31 0.34 0.31
0.00 0.00 0.00 0.00 0.00 0.00 0.01 0.01 0.01 0.02 0.03 0.02 0.02 0.02 0.02 0.02 0.01 0.01 0.01 0.03 0.12 0.23 0.25 0.27 0.26 0.22 0.21 0.21 0.21 0.21 0.20 0.20 0.23 0.25 0.26 0.26 0.27 0.25
0.00 0.00 0.00 0.00 0.00 0.00 0.00 0.00 0.00 0.00 0.01 0.02 0.02 0.01 0.00 0.00 0.00 0.01 0.04 0.06 0.07 0.11 0.13 0.12 0.10 0.10 0.11 0.11 0.12 0.12 0.10 0.09 0.09 0.10 0.11 0.12 0.10 0.07
0.00 0.00 0.00 0.00 0.00 0.00 0.00 0.00 0.00 0.00 0.00 0.00 0.00 0.00 0.00 0.00 0.00 0.01 0.01 0.03 0.05 0.08 0.07 0.07 0.07 0.07 0.07 0.09 0.08 0.07 0.06 0.06 0.05 0.04 0.03 0.02 0.02 0.01
0.00 0.00 0.00 0.00 0.00 0.00 0.00 0.00 0.00 0.00 0.00 0.00 0.00 0.00 0.00 0.00 0.00 0.00 0.00 0.00 0.01 0.01 0.01 0.01 0.01 0.01 0.01 0.02 0.01 0.01 0.00 0.00 0.00 0.00 0.00 0.00 0.00 0.00
0.00 0.00 0.00 0.00 0.01 0.01 0.00 0.00 0.00 0.00 0.00 0.00 0.00 0.00 0.00 0.00 0.00 0.00 0.00 0.00 0.00 0.00 0.00 0.00 0.00 0.00 0.00 0.00 0.00 0.00 0.00 0.00 0.00 0.00 0.00 0.00 0.00 0.00
0.00 0.00 0.00 0.01 0.01 0.01 0.01 0.01 0.00 0.00 0.00 0.00 0.00 0.00 0.00 0.00 0.00 0.00 0.00 0.00 0.00 0.00 0.00 0.00 0.00 0.00 0.00 0.00 0.00 0.00 0.00 0.00 0.00 0.00 0.00 0.00 0.00 0.00
0.00 0.00 0.00 0.00 0.00 0.00 0.00 0.00 0.00 0.00 0.00 0.00 0.00 0.00 0.00 0.00 0.00 0.00 0.00 0.00 0.00 0.00 0.00 0.00 0.00 0.00 0.00 0.00 0.00 0.00 0.00 0.00 0.00 0.00 0.00 0.00 0.00 0.00
0.00 0.00 0.00 0.00 0.00 0.00 0.00 0.00 0.00 0.00 0.00 0.00 0.00 0.00 0.00 0.00 0.00 0.00 0.00 0.00 0.00 0.00 0.00 0.00 0.00 0.00 0.00 0.00 0.00 0.00 0.00 0.00 0.00 0.00 0.00 0.00 0.00 0.01
0.00 0.00 0.00 0.00 0.00 0.00 0.00 0.00 0.00 0.00 0.00 0.00 0.00 0.00 0.00 0.00 0.00 0.00 0.00 0.00 0.00 0.00 0.00 0.00 0.00 0.00 0.00 0.00 0.00 0.00 0.00 0.00 0.00 0.00 0.00 0.00 0.00 0.00
0.00 0.00 0.00 0.00 0.00 0.00 0.00 0.00 0.00 0.00 0.00 0.00 0.00 0.00 0.00 0.00 0.00 0.00 0.00 0.00 0.00 0.00 0.00 0.00 0.00 0.00 0.00 0.00 0.00 0.00 0.00 0.00 0.00 0.00 0.00 0.00 0.00 0.00
0.00 0.00 0.00 0.00 0.00 0.00 0.00 0.00 0.00 0.00 0.00 0.00 0.00 0.00 0.00 0.00 0.00 0.00 0.00 0.00 0.00 0.00 0.00 0.00 0.00 0.00 0.00 0.00 0.00 0.00 0.00 0.00 0.00 0.00 0.00 0.00 0.00 0.00
0.00 0.00 0.00 0.00 0.00 0.00 0.00 0.00 0.00 0.00 0.00 0.00 0.00 0.00 0.00 0.00 0.00 0.00 0.00 0.00 0.00 0.00 0.00 0.00 0.00 0.00 0.00 0.01 0.00 0.00 0.00 0.00 0.00 0.00 0.00 0.00 0.00 0.00
0.00 0.00 0.00 0.00 0.00 0.00 0.00 0.00 0.00 0.00 0.00 0.00 0.00 0.00 0.00 0.00 0.00 0.00 0.00 0.00 0.00 0.00 0.00 0.00 0.00 0.00 0.01 0.01 0.01 0.00 0.00 0.00 0.00 0.00 0.00 0.00 0.00 0.00
0.00 0.00 0.00 0.00 0.00 0.00 0.00 0.00 0.00 0.00 0.00 0.00 0.00 0.00 0.00 0.00 0.00 0.00 0.00 0.00 0.00 0.00 0.00 0.00 0.00 0.00 0.01 0.01 0.01 0.01 0.00 0.00 0.00 0.00 0.00 0.00 0.00 0.00
0.00 0.00 0.00 0.00 0.00 0.00 0.00 0.00 0.00 0.00 0.00 0.00 0.00 0.00 0.00 0.00 0.00 0.00 0.00 0.00 0.00 0.00 0.00 0.00 0.00 0.00 0.00 0.00 0.01 0.00 0.00 0.00 0.00 0.00 0.00 0.00 0.00 0.00
0.00 0.00 0.00 0.00 0.00 0.00 0.00 0.00 0.00 0.00 0.00 0.00 0.00 0.00 0.00 0.00 0.00 0.00 0.00 0.00 0.01 0.00 0.00 0.00 0.00 0.00 0.00 0.00 0.00 0.00 0.00 0.00 0.00 0.00 0.00 0.01 0.00 0.00
0.00 0.00 0.00 0.00 0.00 0.00 0.00 0.00 0.00 0.00 0.00 0.00 0.00 0.00 0.00 0.00 0.00 0.00 0.00 0.00 0.00 0.00 0.00 0.00 0.00 0.01 0.02 0.01 0.00 0.00 0.00 0.00 0.00 0.00 0.00 0.00 0.00 0.00
0.00 0.00 0.00 0.00 0.00 0.00 0.00 0.00 0.00 0.00 0.00 0.00 0.00 0.00 0.00 0.00 0.00 0.00 0.00 0.00 0.00 0.00 0.00 0.00 0.00 0.01 0.03 0.01 0.02 0.00 0.00 0.00 0.00 0.00 0.00 0.00 0.00 0.00
0.00 0.00 0.00 0.00 0.00 0.00 0.00 0.00 0.00 0.00 0.00 0.00 0.00 0.00 0.00 0.00 0.00 0.00 0.00 0.00 0.00 0.00 0.00 0.00 0.00 0.00 0.07 0.15 0.11 0.01 0.00 0.00 0.00 0.00 0.00 0.03 0.02 0.00
0.00 0.00 0.00 0.00 0.00 0.00 0.00 0.00 0.00 0.00 0.00 0.00 0.00 0.00 0.00 0.00 0.00 0.00 0.00 0.01 0.01 0.01 0.01 0.00 0.01 0.01 0.04 0.09 0.03 0.00 0.00 0.00 0.00 0.00 0.00 0.01 0.02 0.02
0.00 0.00 0.00 0.00 0.00 0.00 0.00 0.00 0.00 0.00 0.00 0.00 0.00 0.00 0.00 0.01 0.02 0.03 0.04 0.04 0.03 0.04 0.03 0.03 0.03 0.03 0.03 0.04 0.03 0.02 0.00 0.00 0.00 0.00 0.00 0.00 0.00 0.00

GFSNE_prec_precacc24_078.txt.gz
Total_Precipitation_Accumulation
0.02 0.02 0.03 0.03 0.03 0.03 0.04 0.06 0.08 0.06 0.04 0.02 0.01 0.00 0.00 0.01 0.03 0.01 0.00 0.02 0.01 0.01 0.02 0.06 0.13 0.24 0.30 0.35 0.39 0.37 0.31 0.27 0.21 0.19 0.25 0.34 0.47 0.68
0.00 0.00 0.01 0.02 0.02 0.03 0.03 0.04 0.06 0.09 0.08 0.02 0.02 0.02 0.01 0.01 0.04 0.01 0.01 0.02 0.02 0.03 0.04 0.09 0.15 0.16 0.23 0.26 0.30 0.28 0.25 0.23 0.23 0.20 0.19 0.22 0.28 0.34
0.00 0.00 0.00 0.00 0.00 0.00 0.00 0.00 0.01 0.01 0.03 0.03 0.03 0.03 0.02 0.02 0.02 0.01 0.01 0.00 0.01 0.03 0.09 0.15 0.15 0.13 0.13 0.12 0.13 0.12 0.13 0.14 0.20 0.24 0.25 0.26 0.26 0.27
0.00 0.00 0.00 0.00 0.00 0.00 0.00 0.00 0.00 0.00 0.02 0.03 0.03 0.03 0.01 0.01 0.01 0.01 0.00 0.00 0.00 0.01 0.03 0.05 0.04 0.03 0.05 0.05 0.05 0.05 0.06 0.07 0.08 0.10 0.11 0.13 0.12 0.10
0.00 0.00 0.00 0.00 0.00 0.00 0.00 0.00 0.00 0.00 0.00 0.00 0.00 0.00 0.01 0.01 0.00 0.00 0.00 0.00 0.00 0.00 0.00 0.00 0.00 0.01 0.02 0.03 0.04 0.04 0.04 0.05 0.04 0.04 0.03 0.03 0.02 0.02
0.00 0.00 0.00 0.00 0.00 0.00 0.00 0.00 0.00 0.00 0.00 0.01 0.01 0.01 0.00 0.00 0.00 0.00 0.00 0.00 0.00 0.00 0.00 0.00 0.00 0.00 0.00 0.01 0.01 0.00 0.00 0.00 0.00 0.00 0.00 0.00 0.00 0.00
0.00 0.00 0.00 0.00 0.01 0.01 0.00 0.00 0.00 0.00 0.00 0.01 0.01 0.00 0.00 0.00 0.00 0.00 0.00 0.00 0.00 0.00 0.00 0.00 0.00 0.00 0.00 0.00 0.00 0.00 0.00 0.00 0.00 0.00 0.00 0.00 0.00 0.00
0.00 0.00 0.00 0.01 0.01 0.01 0.01 0.00 0.00 0.00 0.00 0.00 0.00 0.00 0.00 0.00 0.00 0.00 0.00 0.00 0.00 0.00 0.00 0.00 0.00 0.00 0.00 0.00 0.00 0.00 0.00 0.00 0.00 0.00 0.00 0.00 0.00 0.00
0.00 0.00 0.00 0.00 0.01 0.00 0.00 0.00 0.00 0.00 0.00 0.00 0.00 0.00 0.00 0.00 0.00 0.00 0.00 0.00 0.00 0.00 0.00 0.00 0.00 0.00 0.00 0.00 0.00 0.00 0.00 0.00 0.00 0.00 0.00 0.00 0.00 0.00
0.01 0.01 0.00 0.00 0.00 0.00 0.00 0.00 0.00 0.00 0.00 0.00 0.00 0.00 0.00 0.00 0.00 0.00 0.00 0.00 0.00 0.00 0.00 0.00 0.00 0.00 0.00 0.00 0.00 0.00 0.00 0.00 0.00 0.00 0.00 0.00 0.00 0.00
0.00 0.00 0.00 0.00 0.00 0.00 0.00 0.00 0.00 0.00 0.00 0.00 0.00 0.00 0.00 0.00 0.00 0.00 0.00 0.00 0.00 0.00 0.00 0.00 0.00 0.00 0.00 0.00 0.00 0.00 0.00 0.00 0.00 0.00 0.00 0.00 0.00 0.00
0.00 0.00 0.01 0.00 0.00 0.00 0.00 0.00 0.00 0.00 0.00 0.00 0.00 0.00 0.00 0.00 0.00 0.00 0.00 0.00 0.00 0.00 0.00 0.00 0.00 0.00 0.00 0.00 0.00 0.00 0.00 0.00 0.00 0.00 0.00 0.00 0.00 0.00
0.00 0.00 0.00 0.00 0.00 0.00 0.00 0.00 0.00 0.00 0.00 0.00 0.00 0.00 0.00 0.00 0.00 0.00 0.00 0.00 0.00 0.00 0.00 0.00 0.00 0.00 0.00 0.00 0.00 0.00 0.00 0.00 0.00 0.00 0.00 0.00 0.00 0.00
0.00 0.00 0.00 0.00 0.00 0.00 0.00 0.00 0.00 0.00 0.00 0.00 0.00 0.00 0.00 0.00 0.00 0.00 0.00 0.00 0.00 0.00 0.00 0.00 0.00 0.00 0.00 0.00 0.00 0.00 0.00 0.00 0.00 0.00 0.00 0.00 0.00 0.00
0.00 0.00 0.00 0.00 0.00 0.00 0.00 0.00 0.00 0.00 0.00 0.00 0.00 0.00 0.00 0.00 0.00 0.00 0.00 0.00 0.00 0.00 0.00 0.00 0.00 0.00 0.00 0.01 0.00 0.00 0.00 0.00 0.00 0.00 0.00 0.00 0.00 0.00
0.00 0.00 0.00 0.00 0.00 0.00 0.00 0.00 0.00 0.00 0.00 0.00 0.00 0.00 0.00 0.00 0.00 0.00 0.00 0.00 0.00 0.00 0.00 0.00 0.00 0.00 0.00 0.00 0.00 0.00 0.00 0.00 0.00 0.00 0.00 0.00 0.00 0.00
0.00 0.00 0.00 0.00 0.00 0.00 0.00 0.00 0.00 0.00 0.00 0.00 0.00 0.00 0.00 0.00 0.00 0.00 0.00 0.00 0.00 0.00 0.00 0.00 0.00 0.00 0.00 0.00 0.01 0.00 0.00 0.00 0.00 0.00 0.00 0.00 0.00 0.00
0.00 0.00 0.00 0.00 0.00 0.00 0.00 0.00 0.00 0.00 0.00 0.00 0.00 0.00 0.00 0.00 0.00 0.00 0.00 0.00 0.00 0.00 0.00 0.00 0.00 0.00 0.00 0.00 0.00 0.00 0.00 0.00 0.00 0.00 0.00 0.01 0.00 0.00
0.00 0.00 0.00 0.00 0.00 0.00 0.00 0.00 0.00 0.00 0.00 0.00 0.00 0.00 0.00 0.00 0.00 0.00 0.00 0.00 0.00 0.00 0.00 0.00 0.00 0.00 0.01 0.01 0.00 0.00 0.00 0.00 0.00 0.00 0.00 0.00 0.00 0.00
0.00 0.00 0.00 0.00 0.00 0.00 0.00 0.00 0.00 0.00 0.00 0.00 0.00 0.00 0.00 0.00 0.00 0.00 0.00 0.00 0.00 0.00 0.00 0.00 0.00 0.00 0.02 0.01 0.01 0.00 0.00 0.00 0.00 0.00 0.00 0.00 0.00 0.00
0.00 0.00 0.00 0.00 0.00 0.00 0.00 0.00 0.00 0.00 0.00 0.00 0.00 0.00 0.00 0.00 0.00 0.00 0.00 0.00 0.00 0.00 0.00 0.00 0.00 0.01 0.06 0.12 0.09 0.01 0.00 0.00 0.00 0.00 0.00 0.03 0.02 0.00
0.01 0.00 0.00 0.00 0.00 0.00 0.00 0.00 0.00 0.00 0.00 0.00 0.00 0.00 0.00 0.00 0.00 0.00 0.00 0.01 0.01 0.01 0.01 0.00 0.02 0.04 0.05 0.08 0.03 0.00 0.00 0.01 0.00 0.00 0.00 0.01 0.02 0.02
0.00 0.00 0.00 0.00 0.00 0.00 0.00 0.00 0.00 0.00 0.00 0.00 0.00 0.00 0.00 0.01 0.02 0.03 0.03 0.03 0.03 0.04 0.03 0.04 0.03 0.05 0.04 0.04 0.03 0.02 0.01 0.01 0.00 0.00 0.00 0.00 0.00 0.00

GFSNE_prec_precacc24_081.txt.gz
Total_Precipitation_Accumulation
0.01 0.02 0.02 0.02 0.03 0.03 0.04 0.06 0.08 0.06 0.04 0.02 0.01 0.00 0.00 0.01 0.03 0.01 0.00 0.03 0.02 0.02 0.01 0.02 0.01 0.02 0.10 0.18 0.22 0.22 0.20 0.20 0.17 0.17 0.21 0.28 0.43 0.69
0.00 0.00 0.01 0.02 0.02 0.02 0.03 0.04 0.06 0.08 0.08 0.02 0.02 0.02 0.01 0.01 0.04 0.01 0.01 0.03 0.02 0.03 0.03 0.03 0.04 0.08 0.07 0.09 0.15 0.15 0.15 0.17 0.19 0.17 0.15 0.17 0.24 0.33
0.00 0.00 0.00 0.00 0.00 0.00 0.00 0.00 0.01 0.01 0.04 0.03 0.03 0.03 0.03 0.02 0.02 0.02 0.02 0.01 0.02 0.03 0.03 0.04 0.06 0.07 0.09 0.08 0.07 0.06 0.06 0.07 0.10 0.13 0.14 0.19 0.21 0.24
0.00 0.00 0.00 0.00 0.00 0.00 0.00 0.00 0.00 0.00 0.02 0.03 0.03 0.03 0.02 0.01 0.01 0.01 0.01 0.00 0.00 0.01 0.01 0.01 0.02 0.02 0.03 0.02 0.02 0.02 0.01 0.01 0.01 0.02 0.04 0.06 0.09 0.09
0.00 0.00 0.00 0.00 0.00 0.00 0.00 0.00 0.00 0.00 0.00 0.00 0.00 0.00 0.01 0.01 0.01 0.00 0.00 0.00 0.00 0.00 0.00 0.00 0.00 0.00 0.00 0.00 0.00 0.01 0.00 0.01 0.01 0.01 0.01 0.02 0.01 0.02
0.00 0.00 0.00 0.00 0.00 0.00 0.00 0.00 0.00 0.00 0.00 0.01 0.01 0.01 0.00 0.00 0.00 0.00 0.00 0.00 0.00 0.00 0.00 0.00 0.00 0.00 0.00 0.00 0.00 0.00 0.00 0.00 0.00 0.00 0.00 0.00 0.00 0.00
0.00 0.00 0.00 0.00 0.00 0.01 0.00 0.00 0.00 0.00 0.01 0.01 0.01 0.01 0.00 0.00 0.00 0.00 0.00 0.00 0.00 0.00 0.00 0.00 0.00 0.00 0.00 0.00 0.00 0.00 0.00 0.00 0.00 0.00 0.00 0.00 0.00 0.00
0.00 0.00 0.00 0.01 0.01 0.01 0.01 0.00 0.00 0.00 0.00 0.00 0.01 0.00 0.00 0.00 0.00 0.00 0.00 0.00 0.00 0.00 0.00 0.00 0.00 0.00 0.00 0.00 0.00 0.00 0.00 0.00 0.00 0.00 0.00 0.00 0.00 0.00
0.00 0.00 0.00 0.00 0.01 0.00 0.00 0.00 0.00 0.00 0.00 0.00 0.00 0.00 0.00 0.00 0.00 0.00 0.00 0.00 0.00 0.00 0.00 0.00 0.00 0.00 0.00 0.00 0.00 0.00 0.00 0.00 0.00 0.00 0.00 0.00 0.00 0.00
0.01 0.01 0.00 0.00 0.00 0.00 0.00 0.00 0.00 0.00 0.00 0.00 0.00 0.00 0.00 0.00 0.00 0.00 0.00 0.00 0.00 0.00 0.00 0.00 0.00 0.00 0.00 0.00 0.00 0.00 0.00 0.00 0.00 0.00 0.00 0.00 0.00 0.00
0.00 0.00 0.00 0.00 0.01 0.00 0.00 0.00 0.00 0.00 0.00 0.00 0.00 0.00 0.00 0.00 0.00 0.00 0.00 0.00 0.00 0.00 0.00 0.00 0.00 0.00 0.00 0.00 0.00 0.00 0.00 0.00 0.00 0.00 0.00 0.00 0.00 0.00
0.00 0.00 0.01 0.00 0.00 0.00 0.00 0.00 0.00 0.00 0.00 0.00 0.00 0.00 0.00 0.00 0.00 0.00 0.00 0.00 0.00 0.00 0.00 0.00 0.00 0.00 0.00 0.00 0.00 0.00 0.00 0.00 0.00 0.00 0.00 0.00 0.00 0.00
0.00 0.00 0.00 0.00 0.00 0.00 0.00 0.00 0.00 0.00 0.00 0.00 0.00 0.00 0.00 0.00 0.00 0.00 0.00 0.00 0.00 0.00 0.00 0.00 0.00 0.00 0.00 0.00 0.00 0.00 0.00 0.00 0.00 0.00 0.00 0.00 0.00 0.00
0.00 0.00 0.00 0.00 0.00 0.00 0.00 0.00 0.00 0.00 0.00 0.00 0.00 0.00 0.00 0.00 0.00 0.00 0.00 0.00 0.00 0.00 0.00 0.00 0.00 0.00 0.00 0.00 0.00 0.00 0.00 0.00 0.00 0.00 0.00 0.00 0.00 0.00
0.00 0.00 0.00 0.00 0.00 0.00 0.00 0.00 0.00 0.00 0.00 0.00 0.00 0.00 0.00 0.00 0.00 0.00 0.00 0.00 0.00 0.00 0.00 0.00 0.00 0.00 0.00 0.00 0.00 0.00 0.00 0.00 0.00 0.00 0.00 0.00 0.00 0.00
0.00 0.00 0.00 0.00 0.00 0.00 0.00 0.00 0.00 0.00 0.00 0.00 0.00 0.00 0.00 0.00 0.00 0.00 0.00 0.00 0.00 0.00 0.00 0.00 0.00 0.00 0.00 0.00 0.00 0.00 0.00 0.00 0.00 0.00 0.00 0.00 0.00 0.00
0.00 0.00 0.00 0.00 0.00 0.00 0.00 0.00 0.00 0.00 0.00 0.00 0.00 0.00 0.00 0.00 0.00 0.00 0.00 0.00 0.00 0.00 0.00 0.00 0.00 0.00 0.00 0.00 0.01 0.00 0.00 0.00 0.00 0.00 0.00 0.00 0.00 0.00
0.00 0.00 0.00 0.00 0.00 0.00 0.00 0.00 0.00 0.00 0.00 0.00 0.00 0.00 0.00 0.00 0.00 0.00 0.00 0.00 0.00 0.00 0.00 0.00 0.00 0.00 0.00 0.00 0.00 0.00 0.00 0.00 0.00 0.00 0.00 0.01 0.00 0.00
0.00 0.00 0.00 0.00 0.00 0.00 0.00 0.00 0.00 0.00 0.00 0.00 0.00 0.00 0.00 0.00 0.00 0.00 0.00 0.00 0.00 0.00 0.00 0.00 0.00 0.00 0.01 0.01 0.00 0.00 0.00 0.00 0.00 0.00 0.00 0.00 0.00 0.00
0.00 0.01 0.01 0.00 0.00 0.00 0.00 0.00 0.00 0.00 0.00 0.00 0.00 0.00 0.00 0.00 0.00 0.00 0.00 0.00 0.00 0.00 0.00 0.00 0.00 0.00 0.01 0.00 0.01 0.00 0.00 0.00 0.00 0.00 0.00 0.00 0.00 0.00
0.00 0.01 0.02 0.00 0.00 0.00 0.00 0.00 0.00 0.00 0.00 0.00 0.00 0.00 0.00 0.00 0.00 0.00 0.00 0.00 0.00 0.00 0.00 0.00 0.00 0.01 0.05 0.10 0.08 0.01 0.00 0.00 0.00 0.00 0.00 0.03 0.01 0.00
0.03 0.02 0.03 0.00 0.00 0.00 0.00 0.00 0.00 0.00 0.00 0.00 0.00 0.00 0.00 0.00 0.00 0.00 0.00 0.01 0.01 0.01 0.01 0.00 0.02 0.04 0.05 0.07 0.03 0.00 0.00 0.01 0.00 0.00 0.00 0.02 0.02 0.02
0.02 0.03 0.03 0.01 0.00 0.00 0.00 0.00 0.00 0.00 0.00 0.00 0.00 0.00 0.00 0.01 0.01 0.02 0.03 0.02 0.02 0.03 0.03 0.04 0.04 0.06 0.04 0.05 0.03 0.02 0.01 0.01 0.00 0.00 0.00 0.00 0.00 0.00

GFSNE_prec_precacc24_084.txt.gz
Total_Precipitation_Accumulation
0.00 0.00 0.01 0.01 0.02 0.03 0.04 0.06 0.08 0.06 0.04 0.02 0.01 0.00 0.00 0.01 0.04 0.01 0.00 0.05 0.03 0.02 0.02 0.02 0.01 0.02 0.08 0.10 0.11 0.15 0.09 0.08 0.08 0.11 0.16 0.24 0.38 0.63
0.00 0.00 0.01 0.01 0.02 0.02 0.03 0.04 0.06 0.08 0.08 0.02 0.02 0.02 0.01 0.01 0.04 0.01 0.01 0.04 0.02 0.03 0.03 0.02 0.02 0.05 0.06 0.06 0.07 0.06 0.06 0.07 0.12 0.13 0.12 0.15 0.19 0.27
0.00 0.00 0.00 0.00 0.00 0.00 0.00 0.00 0.01 0.02 0.04 0.03 0.03 0.03 0.03 0.02 0.02 0.02 0.02 0.01 0.03 0.05 0.02 0.02 0.01 0.03 0.05 0.05 0.05 0.04 0.04 0.04 0.07 0.11 0.12 0.16 0.16 0.18
0.00 0.00 0.00 0.00 0.00 0.00 0.00 0.00 0.00 0.00 0.02 0.03 0.03 0.03 0.02 0.01 0.01 0.01 0.01 0.00 0.00 0.03 0.01 0.00 0.00 0.01 0.02 0.02 0.02 0.02 0.01 0.01 0.00 0.01 0.03 0.04 0.07 0.08
0.00 0.00 0.00 0.00 0.00 0.00 0.00 0.00 0.00 0.00 0.00 0.00 0.00 0.00 0.01 0.01 0.01 0.00 0.00 0.00 0.00 0.02 0.00 0.00 0.00 0.00 0.00 0.00 0.00 0.00 0.00 0.00 0.00 0.00 0.00 0.01 0.02 0.03
0.00 0.00 0.00 0.00 0.00 0.00 0.00 0.00 0.00 0.00 0.00 0.01 0.01 0.01 0.00 0.00 0.00 0.00 0.00 0.00 0.00 0.00 0.00 0.00 0.00 0.00 0.00 0.00 0.00 0.00 0.00 0.00 0.00 0.00 0.00 0.00 0.00 0.01
0.00 0.00 0.00 0.00 0.00 0.00 0.00 0.00 0.00 0.00 0.01 0.01 0.01 0.01 0.00 0.00 0.00 0.00 0.00 0.00 0.00 0.00 0.00 0.00 0.00 0.00 0.00 0.00 0.00 0.00 0.00 0.00 0.00 0.00 0.00 0.00 0.00 0.00
0.00 0.00 0.00 0.01 0.01 0.01 0.01 0.00 0.00 0.00 0.00 0.00 0.01 0.00 0.00 0.00 0.00 0.00 0.00 0.00 0.00 0.00 0.00 0.00 0.00 0.00 0.00 0.00 0.00 0.00 0.00 0.00 0.00 0.00 0.00 0.00 0.00 0.00
0.00 0.00 0.00 0.00 0.01 0.00 0.01 0.00 0.00 0.00 0.00 0.00 0.00 0.00 0.00 0.00 0.00 0.00 0.00 0.00 0.00 0.00 0.00 0.00 0.00 0.00 0.00 0.00 0.00 0.00 0.00 0.00 0.00 0.00 0.00 0.00 0.00 0.00
0.01 0.01 0.00 0.00 0.00 0.00 0.00 0.00 0.00 0.00 0.00 0.00 0.00 0.00 0.00 0.00 0.00 0.00 0.00 0.00 0.00 0.00 0.00 0.00 0.00 0.00 0.00 0.00 0.00 0.00 0.00 0.00 0.00 0.00 0.00 0.00 0.00 0.00
0.00 0.00 0.00 0.00 0.01 0.00 0.00 0.00 0.00 0.00 0.00 0.00 0.00 0.00 0.00 0.00 0.00 0.00 0.00 0.00 0.01 0.00 0.00 0.00 0.00 0.00 0.00 0.00 0.00 0.00 0.00 0.00 0.00 0.00 0.00 0.00 0.00 0.00
0.00 0.00 0.01 0.00 0.00 0.00 0.00 0.00 0.00 0.00 0.00 0.00 0.00 0.00 0.00 0.00 0.00 0.00 0.00 0.00 0.00 0.00 0.00 0.00 0.00 0.00 0.00 0.00 0.00 0.00 0.00 0.00 0.00 0.00 0.00 0.00 0.00 0.00
0.00 0.00 0.00 0.00 0.00 0.00 0.00 0.00 0.00 0.00 0.00 0.00 0.00 0.00 0.00 0.00 0.00 0.00 0.00 0.00 0.00 0.00 0.00 0.00 0.00 0.00 0.00 0.00 0.00 0.00 0.00 0.00 0.00 0.00 0.00 0.00 0.00 0.00
0.00 0.00 0.00 0.00 0.00 0.00 0.00 0.00 0.00 0.00 0.00 0.00 0.00 0.00 0.00 0.00 0.00 0.00 0.00 0.00 0.00 0.00 0.00 0.00 0.00 0.00 0.00 0.00 0.00 0.00 0.00 0.00 0.00 0.00 0.00 0.00 0.00 0.00
0.00 0.00 0.00 0.00 0.00 0.00 0.00 0.00 0.00 0.00 0.00 0.00 0.00 0.00 0.00 0.00 0.00 0.00 0.00 0.00 0.00 0.00 0.00 0.00 0.00 0.00 0.00 0.00 0.00 0.00 0.00 0.00 0.00 0.00 0.00 0.00 0.00 0.00
0.00 0.00 0.00 0.00 0.00 0.00 0.00 0.00 0.00 0.00 0.00 0.00 0.00 0.00 0.00 0.00 0.00 0.00 0.00 0.00 0.00 0.00 0.00 0.00 0.00 0.00 0.00 0.00 0.00 0.00 0.00 0.00 0.00 0.00 0.00 0.00 0.00 0.00
0.00 0.00 0.00 0.00 0.00 0.00 0.00 0.00 0.00 0.00 0.00 0.00 0.00 0.00 0.00 0.00 0.00 0.00 0.00 0.00 0.00 0.00 0.00 0.00 0.00 0.00 0.00 0.00 0.01 0.00 0.00 0.00 0.00 0.00 0.00 0.00 0.00 0.00
0.00 0.00 0.00 0.00 0.00 0.00 0.00 0.00 0.00 0.00 0.00 0.00 0.00 0.00 0.00 0.00 0.00 0.00 0.00 0.00 0.00 0.00 0.00 0.00 0.00 0.00 0.00 0.00 0.00 0.00 0.00 0.00 0.00 0.00 0.00 0.00 0.00 0.00
0.01 0.00 0.00 0.00 0.00 0.00 0.00 0.00 0.00 0.00 0.00 0.00 0.00 0.00 0.00 0.00 0.00 0.00 0.00 0.00 0.00 0.00 0.00 0.00 0.00 0.00 0.01 0.00 0.00 0.00 0.00 0.00 0.00 0.00 0.00 0.00 0.00 0.00
0.01 0.01 0.01 0.00 0.00 0.00 0.00 0.00 0.00 0.00 0.00 0.00 0.00 0.00 0.00 0.00 0.00 0.00 0.00 0.00 0.00 0.00 0.00 0.00 0.00 0.00 0.00 0.00 0.00 0.00 0.00 0.00 0.00 0.00 0.00 0.00 0.00 0.00
0.00 0.02 0.03 0.02 0.00 0.00 0.00 0.00 0.00 0.00 0.00 0.00 0.00 0.00 0.00 0.00 0.00 0.00 0.00 0.00 0.00 0.00 0.00 0.00 0.00 0.01 0.04 0.08 0.06 0.00 0.00 0.00 0.00 0.00 0.00 0.02 0.01 0.00
0.03 0.03 0.04 0.02 0.00 0.00 0.00 0.00 0.00 0.00 0.00 0.00 0.00 0.00 0.00 0.00 0.00 0.00 0.00 0.01 0.01 0.01 0.01 0.00 0.02 0.04 0.04 0.06 0.02 0.00 0.00 0.01 0.00 0.00 0.00 0.02 0.02 0.02
0.02 0.04 0.04 0.02 0.00 0.00 0.00 0.00 0.00 0.00 0.00 0.00 0.00 0.00 0.00 0.00 0.01 0.02 0.02 0.02 0.02 0.03 0.03 0.04 0.04 0.06 0.04 0.04 0.03 0.01 0.00 0.01 0.00 0.00 0.00 0.00 0.00 0.00

GFSNE_prec_precacc24_087.txt.gz
Total_Precipitation_Accumulation
0.00 0.00 0.00 0.00 0.01 0.01 0.02 0.05 0.08 0.06 0.03 0.02 0.01 0.00 0.00 0.01 0.04 0.01 0.00 0.05 0.04 0.03 0.03 0.02 0.01 0.02 0.08 0.10 0.08 0.06 0.05 0.04 0.03 0.07 0.12 0.22 0.36 0.62
0.00 0.00 0.00 0.01 0.00 0.00 0.01 0.03 0.06 0.08 0.08 0.02 0.02 0.02 0.01 0.01 0.04 0.01 0.01 0.03 0.02 0.03 0.03 0.02 0.01 0.03 0.05 0.06 0.07 0.05 0.05 0.04 0.05 0.06 0.09 0.14 0.18 0.27
0.00 0.00 0.00 0.00 0.00 0.00 0.00 0.00 0.01 0.02 0.04 0.03 0.03 0.03 0.03 0.02 0.02 0.02 0.02 0.01 0.03 0.05 0.02 0.02 0.01 0.02 0.03 0.04 0.04 0.03 0.03 0.02 0.05 0.09 0.09 0.14 0.16 0.19
0.00 0.00 0.00 0.00 0.00 0.00 0.00 0.00 0.00 0.00 0.02 0.03 0.03 0.03 0.02 0.01 0.01 0.01 0.01 0.00 0.00 0.05 0.01 0.01 0.00 0.01 0.02 0.01 0.02 0.02 0.01 0.01 0.00 0.01 0.03 0.05 0.08 0.10
0.00 0.00 0.00 0.00 0.00 0.00 0.00 0.00 0.00 0.00 0.00 0.00 0.00 0.00 0.01 0.01 0.01 0.00 0.00 0.00 0.00 0.03 0.00 0.00 0.00 0.00 0.00 0.00 0.00 0.00 0.00 0.00 0.00 0.00 0.00 0.01 0.06 0.08
0.00 0.00 0.00 0.00 0.00 0.00 0.00 0.00 0.00 0.00 0.01 0.01 0.01 0.01 0.00 0.00 0.00 0.00 0.00 0.00 0.00 0.00 0.00 0.00 0.00 0.00 0.00 0.00 0.00 0.00 0.00 0.00 0.00 0.00 0.00 0.00 0.01 0.05
0.00 0.00 0.00 0.00 0.00 0.00 0.00 0.00 0.00 0.00 0.01 0.01 0.01 0.01 0.00 0.00 0.00 0.00 0.00 0.00 0.00 0.00 0.00 0.00 0.00 0.00 0.00 0.00 0.00 0.00 0.00 0.00 0.00 0.00 0.00 0.00 0.00 0.00
0.00 0.00 0.00 0.01 0.01 0.01 0.01 0.00 0.00 0.00 0.00 0.00 0.01 0.00 0.00 0.00 0.00 0.00 0.00 0.00 0.00 0.00 0.00 0.00 0.00 0.00 0.00 0.00 0.00 0.00 0.00 0.00 0.00 0.00 0.00 0.00 0.00 0.00
0.00 0.00 0.00 0.00 0.01 0.00 0.01 0.00 0.00 0.00 0.00 0.00 0.00 0.00 0.00 0.00 0.00 0.00 0.00 0.00 0.00 0.00 0.00 0.00 0.00 0.00 0.00 0.00 0.00 0.00 0.00 0.00 0.00 0.00 0.00 0.00 0.00 0.00
0.01 0.01 0.00 0.00 0.00 0.00 0.00 0.00 0.00 0.00 0.00 0.00 0.00 0.00 0.00 0.00 0.00 0.00 0.00 0.00 0.00 0.00 0.00 0.00 0.00 0.00 0.00 0.00 0.00 0.00 0.00 0.00 0.00 0.00 0.00 0.00 0.00 0.00
0.00 0.00 0.00 0.00 0.01 0.00 0.00 0.00 0.00 0.00 0.00 0.00 0.00 0.00 0.00 0.00 0.00 0.00 0.00 0.00 0.01 0.00 0.00 0.00 0.00 0.00 0.00 0.00 0.00 0.00 0.00 0.00 0.00 0.00 0.00 0.00 0.00 0.00
0.00 0.00 0.01 0.00 0.00 0.00 0.00 0.00 0.00 0.00 0.00 0.00 0.00 0.00 0.00 0.00 0.00 0.00 0.00 0.00 0.00 0.00 0.00 0.00 0.00 0.00 0.00 0.00 0.00 0.00 0.00 0.00 0.00 0.00 0.00 0.00 0.00 0.00
0.00 0.00 0.00 0.00 0.00 0.00 0.00 0.00 0.00 0.00 0.00 0.00 0.00 0.00 0.00 0.00 0.00 0.00 0.00 0.00 0.00 0.00 0.00 0.00 0.00 0.00 0.00 0.00 0.00 0.00 0.00 0.00 0.00 0.00 0.00 0.00 0.00 0.00
0.00 0.00 0.00 0.00 0.00 0.00 0.00 0.00 0.00 0.00 0.00 0.00 0.00 0.00 0.00 0.00 0.00 0.00 0.00 0.00 0.00 0.00 0.00 0.00 0.00 0.00 0.00 0.00 0.00 0.00 0.00 0.00 0.00 0.00 0.00 0.00 0.00 0.00
0.00 0.00 0.00 0.00 0.00 0.00 0.00 0.00 0.00 0.00 0.00 0.00 0.00 0.00 0.00 0.00 0.00 0.00 0.00 0.00 0.00 0.00 0.00 0.00 0.00 0.00 0.00 0.00 0.00 0.00 0.00 0.00 0.00 0.00 0.00 0.00 0.00 0.00
0.00 0.00 0.00 0.00 0.00 0.00 0.00 0.00 0.00 0.00 0.00 0.00 0.00 0.00 0.00 0.00 0.00 0.00 0.00 0.00 0.00 0.00 0.00 0.00 0.00 0.00 0.00 0.00 0.00 0.00 0.00 0.00 0.00 0.00 0.00 0.00 0.00 0.00
0.00 0.00 0.00 0.00 0.00 0.00 0.00 0.00 0.00 0.00 0.00 0.00 0.00 0.00 0.00 0.00 0.00 0.00 0.00 0.00 0.00 0.00 0.00 0.00 0.00 0.00 0.00 0.00 0.01 0.00 0.00 0.00 0.00 0.00 0.00 0.00 0.00 0.00
0.01 0.00 0.00 0.00 0.00 0.00 0.00 0.00 0.00 0.00 0.00 0.00 0.00 0.00 0.00 0.00 0.00 0.00 0.00 0.00 0.00 0.00 0.00 0.00 0.00 0.00 0.00 0.00 0.00 0.00 0.00 0.00 0.00 0.00 0.00 0.00 0.00 0.00
0.03 0.00 0.00 0.00 0.00 0.00 0.00 0.00 0.00 0.00 0.00 0.00 0.00 0.00 0.00 0.00 0.00 0.00 0.00 0.00 0.00 0.00 0.00 0.00 0.00 0.00 0.00 0.00 0.00 0.00 0.00 0.00 0.00 0.00 0.00 0.00 0.00 0.00
0.02 0.01 0.01 0.00 0.00 0.00 0.00 0.00 0.00 0.00 0.00 0.00 0.00 0.00 0.00 0.00 0.00 0.00 0.00 0.00 0.00 0.00 0.00 0.00 0.00 0.00 0.00 0.00 0.00 0.00 0.00 0.00 0.00 0.00 0.00 0.00 0.00 0.00
0.00 0.02 0.03 0.02 0.01 0.00 0.00 0.00 0.00 0.00 0.00 0.00 0.00 0.00 0.00 0.00 0.00 0.00 0.00 0.00 0.00 0.00 0.00 0.00 0.00 0.01 0.03 0.06 0.05 0.00 0.00 0.00 0.00 0.00 0.00 0.02 0.01 0.00
0.03 0.03 0.04 0.02 0.01 0.01 0.00 0.00 0.00 0.00 0.00 0.00 0.00 0.00 0.00 0.00 0.00 0.00 0.00 0.01 0.00 0.00 0.00 0.00 0.02 0.04 0.04 0.05 0.01 0.00 0.00 0.01 0.00 0.00 0.00 0.01 0.02 0.02
0.06 0.06 0.05 0.03 0.01 0.00 0.01 0.00 0.00 0.00 0.00 0.00 0.00 0.00 0.00 0.00 0.01 0.02 0.02 0.02 0.02 0.03 0.03 0.03 0.03 0.06 0.03 0.04 0.02 0.01 0.00 0.01 0.00 0.00 0.00 0.00 0.00 0.00

GFSNE_prec_precacc24_090.txt.gz
Total_Precipitation_Accumulation
0.00 0.00 0.00 0.00 0.00 0.00 0.01 0.03 0.05 0.04 0.03 0.02 0.01 0.00 0.00 0.01 0.04 0.01 0.00 0.05 0.03 0.03 0.03 0.02 0.01 0.02 0.08 0.10 0.07 0.06 0.05 0.05 0.04 0.06 0.11 0.20 0.33 0.60
0.00 0.00 0.00 0.00 0.00 0.00 0.00 0.00 0.02 0.06 0.07 0.02 0.02 0.02 0.01 0.01 0.04 0.01 0.01 0.03 0.02 0.02 0.02 0.02 0.01 0.02 0.03 0.04 0.05 0.03 0.04 0.04 0.05 0.05 0.07 0.11 0.15 0.23
0.00 0.00 0.00 0.00 0.00 0.00 0.00 0.00 0.01 0.02 0.04 0.03 0.03 0.03 0.03 0.02 0.02 0.02 0.02 0.01 0.03 0.05 0.02 0.02 0.01 0.02 0.02 0.02 0.02 0.03 0.02 0.01 0.03 0.06 0.07 0.11 0.12 0.16
0.01 0.00 0.00 0.00 0.00 0.00 0.00 0.00 0.00 0.00 0.02 0.03 0.03 0.03 0.02 0.01 0.01 0.01 0.01 0.00 0.00 0.05 0.01 0.01 0.00 0.01 0.01 0.01 0.01 0.02 0.01 0.01 0.00 0.01 0.02 0.05 0.09 0.12
0.00 0.00 0.00 0.00 0.00 0.00 0.00 0.00 0.00 0.00 0.00 0.00 0.00 0.00 0.01 0.01 0.01 0.00 0.00 0.00 0.00 0.03 0.00 0.00 0.00 0.00 0.00 0.00 0.00 0.00 0.00 0.00 0.00 0.00 0.00 0.01 0.08 0.13
0.01 0.00 0.00 0.00 0.00 0.00 0.00 0.00 0.00 0.00 0.01 0.01 0.01 0.01 0.00 0.00 0.00 0.00 0.00 0.00 0.00 0.00 0.00 0.00 0.00 0.00 0.00 0.00 0.00 0.00 0.00 0.00 0.00 0.00 0.00 0.00 0.01 0.07
0.02 0.01 0.01 0.01 0.01 0.00 0.00 0.00 0.00 0.00 0.01 0.01 0.01 0.01 0.00 0.00 0.00 0.00 0.00 0.00 0.00 0.00 0.00 0.00 0.00 0.00 0.00 0.00 0.00 0.00 0.00 0.00 0.00 0.00 0.00 0.00 0.00 0.00
0.01 0.00 0.00 0.01 0.01 0.01 0.01 0.00 0.00 0.00 0.00 0.00 0.01 0.00 0.00 0.00 0.00 0.00 0.00 0.00 0.00 0.00 0.00 0.00 0.00 0.00 0.00 0.00 0.00 0.00 0.00 0.00 0.00 0.00 0.00 0.00 0.00 0.00
0.00 0.00 0.00 0.00 0.01 0.00 0.01 0.00 0.00 0.00 0.00 0.00 0.00 0.00 0.00 0.00 0.00 0.00 0.00 0.00 0.00 0.00 0.00 0.00 0.00 0.00 0.00 0.00 0.00 0.00 0.00 0.00 0.00 0.00 0.00 0.00 0.00 0.00
0.01 0.01 0.00 0.00 0.00 0.00 0.00 0.00 0.00 0.00 0.00 0.00 0.00 0.00 0.00 0.00 0.00 0.00 0.00 0.00 0.00 0.00 0.00 0.00 0.00 0.00 0.00 0.00 0.00 0.00 0.00 0.00 0.00 0.00 0.00 0.00 0.00 0.00
0.00 0.00 0.00 0.00 0.01 0.00 0.00 0.00 0.00 0.00 0.00 0.00 0.00 0.00 0.00 0.00 0.00 0.00 0.00 0.00 0.01 0.00 0.00 0.00 0.00 0.00 0.00 0.00 0.00 0.00 0.00 0.00 0.00 0.00 0.00 0.00 0.00 0.00
0.00 0.00 0.01 0.00 0.00 0.00 0.00 0.00 0.00 0.00 0.00 0.00 0.00 0.00 0.00 0.00 0.00 0.00 0.00 0.00 0.00 0.00 0.00 0.00 0.00 0.00 0.00 0.00 0.00 0.00 0.00 0.00 0.00 0.00 0.00 0.00 0.00 0.00
0.00 0.00 0.00 0.00 0.00 0.00 0.00 0.00 0.00 0.00 0.00 0.00 0.00 0.00 0.00 0.00 0.00 0.00 0.00 0.00 0.00 0.00 0.00 0.00 0.00 0.00 0.00 0.00 0.00 0.00 0.00 0.00 0.00 0.00 0.00 0.00 0.00 0.00
0.00 0.00 0.00 0.00 0.00 0.00 0.00 0.00 0.00 0.00 0.00 0.00 0.00 0.00 0.00 0.00 0.00 0.00 0.00 0.00 0.00 0.00 0.00 0.00 0.00 0.00 0.00 0.00 0.00 0.00 0.00 0.00 0.00 0.00 0.00 0.00 0.00 0.00
0.00 0.00 0.00 0.00 0.00 0.00 0.00 0.00 0.00 0.00 0.00 0.00 0.00 0.00 0.00 0.00 0.00 0.00 0.00 0.00 0.00 0.00 0.00 0.00 0.00 0.00 0.00 0.00 0.00 0.00 0.00 0.00 0.00 0.00 0.00 0.00 0.00 0.00
0.01 0.01 0.00 0.00 0.00 0.00 0.00 0.00 0.00 0.00 0.00 0.00 0.00 0.00 0.00 0.00 0.00 0.00 0.00 0.00 0.00 0.00 0.00 0.00 0.00 0.00 0.00 0.00 0.00 0.00 0.00 0.00 0.00 0.00 0.00 0.00 0.00 0.00
0.07 0.03 0.01 0.00 0.00 0.00 0.00 0.00 0.00 0.00 0.00 0.00 0.00 0.00 0.00 0.00 0.00 0.00 0.00 0.00 0.00 0.00 0.00 0.00 0.00 0.00 0.00 0.00 0.00 0.00 0.00 0.00 0.00 0.00 0.00 0.00 0.00 0.00
0.11 0.04 0.01 0.00 0.00 0.00 0.00 0.00 0.00 0.00 0.00 0.00 0.00 0.00 0.00 0.00 0.00 0.00 0.00 0.00 0.00 0.00 0.00 0.00 0.00 0.00 0.00 0.00 0.00 0.00 0.00 0.00 0.00 0.00 0.00 0.00 0.00 0.00
0.14 0.01 0.00 0.00 0.00 0.00 0.00 0.00 0.00 0.00 0.00 0.00 0.00 0.00 0.00 0.00 0.00 0.00 0.00 0.00 0.00 0.00 0.00 0.00 0.00 0.00 0.00 0.00 0.00 0.00 0.00 0.00 0.00 0.00 0.00 0.00 0.00 0.00
0.14 0.03 0.02 0.01 0.00 0.00 0.00 0.00 0.00 0.00 0.00 0.00 0.00 0.00 0.00 0.00 0.00 0.00 0.00 0.00 0.00 0.00 0.00 0.00 0.00 0.00 0.00 0.00 0.00 0.00 0.00 0.00 0.00 0.00 0.00 0.00 0.00 0.00
0.05 0.03 0.03 0.03 0.01 0.01 0.00 0.00 0.00 0.00 0.00 0.00 0.00 0.00 0.00 0.00 0.00 0.00 0.00 0.00 0.00 0.00 0.00 0.00 0.00 0.01 0.01 0.03 0.02 0.00 0.00 0.00 0.00 0.00 0.00 0.01 0.01 0.00
0.07 0.06 0.04 0.03 0.02 0.02 0.03 0.01 0.00 0.00 0.00 0.00 0.00 0.00 0.00 0.00 0.00 0.00 0.00 0.01 0.00 0.00 0.00 0.00 0.02 0.04 0.03 0.03 0.01 0.00 0.00 0.01 0.00 0.00 0.00 0.01 0.01 0.01
0.12 0.14 0.10 0.09 0.07 0.04 0.03 0.02 0.01 0.00 0.00 0.00 0.00 0.00 0.00 0.00 0.01 0.02 0.02 0.02 0.02 0.03 0.03 0.03 0.03 0.05 0.03 0.03 0.02 0.01 0.00 0.01 0.00 0.00 0.00 0.00 0.00 0.00

GFSNE_prec_precacc24_093.txt.gz
Total_Precipitation_Accumulation
0.06 0.03 0.05 0.06 0.06 0.03 0.02 0.03 0.04 0.03 0.02 0.00 0.00 0.00 0.00 0.01 0.04 0.01 0.00 0.05 0.03 0.02 0.02 0.02 0.01 0.01 0.07 0.09 0.06 0.05 0.05 0.04 0.03 0.04 0.08 0.14 0.26 0.44
0.13 0.06 0.04 0.04 0.01 0.00 0.00 0.00 0.01 0.03 0.04 0.01 0.02 0.01 0.01 0.01 0.04 0.01 0.01 0.03 0.01 0.02 0.02 0.01 0.00 0.01 0.02 0.03 0.03 0.02 0.02 0.02 0.03 0.05 0.07 0.10 0.13 0.21
0.09 0.07 0.07 0.03 0.01 0.01 0.01 0.01 0.01 0.02 0.04 0.03 0.03 0.03 0.03 0.02 0.02 0.02 0.02 0.01 0.03 0.05 0.01 0.01 0.00 0.01 0.02 0.02 0.01 0.02 0.02 0.01 0.02 0.05 0.05 0.09 0.10 0.13
0.07 0.05 0.05 0.03 0.01 0.01 0.00 0.00 0.00 0.00 0.02 0.03 0.03 0.03 0.02 0.01 0.01 0.01 0.01 0.00 0.00 0.05 0.02 0.00 0.00 0.01 0.01 0.00 0.01 0.01 0.00 0.00 0.00 0.01 0.02 0.04 0.09 0.14
0.03 0.03 0.02 0.02 0.01 0.00 0.00 0.00 0.00 0.00 0.00 0.00 0.00 0.00 0.01 0.01 0.01 0.00 0.00 0.00 0.00 0.03 0.00 0.00 0.00 0.00 0.00 0.00 0.00 0.00 0.00 0.00 0.00 0.00 0.00 0.01 0.08 0.16
0.05 0.06 0.04 0.02 0.01 0.00 0.00 0.00 0.00 0.00 0.01 0.01 0.01 0.01 0.00 0.00 0.00 0.00 0.00 0.00 0.00 0.00 0.00 0.00 0.00 0.00 0.00 0.00 0.00 0.00 0.00 0.00 0.00 0.00 0.00 0.00 0.01 0.07
0.05 0.04 0.03 0.03 0.02 0.01 0.00 0.00 0.00 0.00 0.01 0.01 0.01 0.01 0.00 0.00 0.00 0.00 0.00 0.00 0.00 0.00 0.00 0.00 0.00 0.00 0.00 0.00 0.00 0.00 0.00 0.00 0.00 0.00 0.00 0.00 0.00 0.00
0.02 0.02 0.02 0.03 0.02 0.02 0.02 0.01 0.01 0.00 0.00 0.00 0.01 0.00 0.00 0.00 0.00 0.00 0.00 0.00 0.00 0.00 0.00 0.00 0.00 0.00 0.00 0.00 0.00 0.00 0.00 0.00 0.00 0.00 0.00 0.00 0.00 0.00
0.00 0.01 0.01 0.01 0.02 0.00 0.01 0.00 0.00 0.00 0.00 0.00 0.00 0.00 0.00 0.00 0.00 0.00 0.00 0.00 0.00 0.00 0.00 0.00 0.00 0.00 0.00 0.00 0.00 0.00 0.00 0.00 0.00 0.00 0.00 0.00 0.00 0.00
0.01 0.01 0.00 0.00 0.00 0.00 0.00 0.00 0.00 0.00 0.00 0.00 0.00 0.00 0.00 0.00 0.00 0.00 0.00 0.00 0.00 0.00 0.00 0.00 0.00 0.00 0.00 0.00 0.00 0.00 0.00 0.00 0.00 0.00 0.00 0.00 0.00 0.00
0.00 0.00 0.00 0.00 0.01 0.00 0.00 0.00 0.00 0.00 0.00 0.00 0.00 0.00 0.00 0.00 0.00 0.00 0.00 0.00 0.01 0.00 0.00 0.00 0.00 0.00 0.00 0.00 0.00 0.00 0.00 0.00 0.00 0.00 0.00 0.00 0.00 0.00
0.00 0.00 0.01 0.00 0.00 0.00 0.00 0.00 0.00 0.00 0.00 0.00 0.00 0.00 0.00 0.00 0.00 0.00 0.00 0.00 0.00 0.00 0.00 0.00 0.00 0.00 0.00 0.00 0.00 0.00 0.00 0.00 0.00 0.00 0.00 0.00 0.00 0.00
0.00 0.00 0.00 0.00 0.00 0.00 0.00 0.00 0.00 0.00 0.00 0.00 0.00 0.00 0.00 0.00 0.00 0.00 0.00 0.00 0.00 0.00 0.00 0.00 0.00 0.00 0.00 0.00 0.00 0.00 0.00 0.00 0.00 0.00 0.00 0.00 0.00 0.00
0.00 0.00 0.00 0.00 0.00 0.00 0.00 0.00 0.00 0.00 0.00 0.00 0.00 0.00 0.00 0.00 0.00 0.00 0.00 0.00 0.00 0.00 0.00 0.00 0.00 0.00 0.00 0.00 0.00 0.00 0.00 0.00 0.00 0.00 0.00 0.00 0.00 0.00
0.01 0.01 0.01 0.01 0.00 0.00 0.01 0.00 0.00 0.00 0.00 0.00 0.00 0.00 0.00 0.00 0.00 0.00 0.00 0.00 0.00 0.00 0.00 0.00 0.00 0.00 0.00 0.00 0.00 0.00 0.00 0.00 0.00 0.00 0.00 0.00 0.00 0.00
0.03 0.08 0.10 0.06 0.03 0.01 0.00 0.00 0.00 0.00 0.00 0.00 0.00 0.00 0.00 0.00 0.00 0.00 0.00 0.00 0.00 0.00 0.00 0.00 0.00 0.00 0.00 0.00 0.00 0.00 0.00 0.00 0.00 0.00 0.00 0.00 0.00 0.00
0.16 0.11 0.11 0.09 0.06 0.03 0.01 0.00 0.00 0.00 0.00 0.00 0.00 0.00 0.00 0.00 0.00 0.00 0.00 0.00 0.00 0.00 0.00 0.00 0.00 0.00 0.00 0.00 0.00 0.00 0.00 0.00 0.00 0.00 0.00 0.00 0.00 0.00
0.24 0.15 0.18 0.09 0.04 0.03 0.02 0.02 0.01 0.01 0.00 0.00 0.00 0.00 0.00 0.00 0.00 0.00 0.00 0.00 0.00 0.00 0.00 0.00 0.00 0.00 0.00 0.00 0.00 0.00 0.00 0.00 0.00 0.00 0.00 0.00 0.00 0.00
0.32 0.06 0.05 0.08 0.10 0.07 0.04 0.02 0.01 0.01 0.01 0.01 0.00 0.00 0.00 0.00 0.00 0.00 0.00 0.00 0.00 0.00 0.00 0.00 0.00 0.00 0.00 0.00 0.00 0.00 0.00 0.00 0.00 0.00 0.00 0.00 0.00 0.00
0.24 0.09 0.06 0.05 0.05 0.10 0.10 0.05 0.02 0.03 0.05 0.03 0.00 0.00 0.00 0.00 0.00 0.00 0.00 0.00 0.00 0.00 0.00 0.00 0.00 0.00 0.00 0.00 0.00 0.00 0.00 0.00 0.00 0.00 0.00 0.00 0.00 0.00
0.09 0.08 0.06 0.10 0.13 0.12 0.11 0.10 0.07 0.03 0.03 0.02 0.01 0.00 0.00 0.00 0.00 0.00 0.00 0.00 0.00 0.00 0.00 0.00 0.00 0.01 0.01 0.01 0.01 0.00 0.00 0.00 0.00 0.00 0.00 0.01 0.00 0.00
0.10 0.11 0.06 0.05 0.09 0.15 0.17 0.16 0.11 0.07 0.04 0.02 0.00 0.00 0.00 0.00 0.00 0.00 0.00 0.01 0.00 0.00 0.00 0.00 0.02 0.04 0.03 0.02 0.00 0.00 0.00 0.01 0.00 0.00 0.00 0.01 0.01 0.01
0.15 0.21 0.16 0.12 0.11 0.14 0.16 0.13 0.08 0.05 0.03 0.02 0.02 0.00 0.00 0.00 0.01 0.02 0.02 0.01 0.02 0.02 0.02 0.03 0.03 0.05 0.03 0.03 0.01 0.00 0.00 0.01 0.00 0.00 0.00 0.00 0.00 0.00

GFSNE_prec_precacc24_096.txt.gz
Total_Precipitation_Accumulation
0.10 0.07 0.08 0.08 0.06 0.04 0.03 0.08 0.11 0.09 0.04 0.01 0.00 0.00 0.00 0.01 0.03 0.01 0.00 0.05 0.03 0.02 0.02 0.02 0.01 0.01 0.04 0.07 0.05 0.04 0.04 0.04 0.03 0.04 0.03 0.06 0.15 0.31
0.18 0.21 0.26 0.28 0.21 0.09 0.03 0.03 0.02 0.04 0.06 0.02 0.01 0.00 0.00 0.01 0.03 0.01 0.01 0.03 0.01 0.01 0.01 0.01 0.00 0.01 0.02 0.02 0.02 0.01 0.01 0.02 0.03 0.04 0.06 0.08 0.12 0.21
0.17 0.09 0.12 0.21 0.23 0.10 0.05 0.02 0.02 0.02 0.03 0.01 0.01 0.01 0.02 0.02 0.02 0.02 0.02 0.01 0.03 0.04 0.01 0.01 0.00 0.01 0.02 0.01 0.01 0.01 0.02 0.01 0.02 0.05 0.05 0.08 0.10 0.13
0.17 0.14 0.08 0.07 0.06 0.05 0.05 0.07 0.04 0.02 0.03 0.03 0.03 0.03 0.02 0.01 0.01 0.01 0.01 0.00 0.00 0.05 0.01 0.00 0.00 0.01 0.01 0.00 0.01 0.01 0.00 0.00 0.00 0.01 0.01 0.03 0.09 0.15
0.06 0.06 0.07 0.07 0.03 0.03 0.04 0.06 0.07 0.02 0.00 0.00 0.00 0.00 0.01 0.01 0.01 0.00 0.00 0.00 0.00 0.03 0.00 0.00 0.00 0.00 0.00 0.00 0.00 0.00 0.00 0.00 0.00 0.00 0.00 0.01 0.08 0.16
0.07 0.08 0.08 0.09 0.15 0.18 0.12 0.04 0.04 0.01 0.01 0.01 0.01 0.01 0.00 0.00 0.00 0.00 0.00 0.00 0.00 0.00 0.00 0.00 0.00 0.00 0.00 0.00 0.00 0.00 0.00 0.00 0.00 0.00 0.00 0.00 0.01 0.07
0.06 0.06 0.05 0.06 0.08 0.11 0.17 0.06 0.01 0.00 0.01 0.01 0.01 0.01 0.00 0.00 0.00 0.00 0.00 0.00 0.00 0.00 0.00 0.00 0.00 0.00 0.00 0.00 0.00 0.00 0.00 0.00 0.00 0.00 0.00 0.00 0.00 0.00
0.03 0.03 0.03 0.06 0.04 0.04 0.04 0.03 0.02 0.01 0.00 0.00 0.01 0.00 0.00 0.00 0.00 0.00 0.00 0.00 0.00 0.00 0.00 0.00 0.00 0.00 0.00 0.00 0.00 0.00 0.00 0.00 0.00 0.00 0.00 0.00 0.00 0.00
0.01 0.01 0.01 0.02 0.04 0.02 0.04 0.04 0.03 0.04 0.05 0.02 0.03 0.02 0.00 0.00 0.00 0.00 0.00 0.00 0.00 0.00 0.00 0.00 0.00 0.00 0.00 0.00 0.00 0.00 0.00 0.00 0.00 0.00 0.00 0.00 0.00 0.00
0.01 0.01 0.01 0.00 0.01 0.00 0.00 0.01 0.00 0.00 0.01 0.00 0.00 0.00 0.00 0.00 0.00 0.00 0.00 0.00 0.00 0.00 0.00 0.00 0.00 0.00 0.00 0.00 0.00 0.00 0.00 0.00 0.00 0.00 0.00 0.00 0.00 0.00
0.00 0.00 0.00 0.00 0.02 0.01 0.00 0.00 0.00 0.00 0.00 0.00 0.00 0.00 0.00 0.00 0.00 0.00 0.00 0.00 0.01 0.00 0.00 0.00 0.00 0.00 0.00 0.00 0.00 0.00 0.00 0.00 0.00 0.00 0.00 0.00 0.00 0.00
0.00 0.00 0.01 0.00 0.00 0.00 0.00 0.00 0.00 0.00 0.00 0.00 0.00 0.00 0.00 0.00 0.00 0.00 0.00 0.00 0.00 0.00 0.00 0.00 0.00 0.00 0.00 0.00 0.00 0.00 0.00 0.00 0.00 0.00 0.00 0.00 0.00 0.00
0.00 0.00 0.00 0.00 0.00 0.00 0.00 0.00 0.00 0.00 0.00 0.00 0.00 0.00 0.00 0.00 0.00 0.00 0.00 0.00 0.00 0.00 0.00 0.00 0.00 0.00 0.00 0.00 0.00 0.00 0.00 0.00 0.00 0.00 0.00 0.00 0.00 0.00
0.01 0.01 0.00 0.02 0.02 0.01 0.01 0.00 0.00 0.00 0.00 0.00 0.00 0.00 0.00 0.00 0.00 0.00 0.00 0.00 0.00 0.00 0.00 0.00 0.00 0.00 0.00 0.00 0.00 0.00 0.00 0.00 0.00 0.00 0.00 0.00 0.00 0.00
0.02 0.03 0.05 0.08 0.05 0.02 0.01 0.00 0.00 0.00 0.00 0.00 0.00 0.00 0.00 0.00 0.00 0.00 0.00 0.00 0.00 0.00 0.00 0.00 0.00 0.00 0.00 0.00 0.00 0.00 0.00 0.00 0.00 0.00 0.00 0.00 0.00 0.00
0.06 0.11 0.17 0.15 0.11 0.07 0.03 0.01 0.00 0.00 0.00 0.00 0.00 0.00 0.00 0.00 0.00 0.00 0.00 0.00 0.00 0.00 0.00 0.00 0.00 0.00 0.00 0.00 0.00 0.00 0.00 0.00 0.00 0.00 0.00 0.00 0.00 0.00
0.22 0.14 0.19 0.22 0.18 0.10 0.04 0.02 0.00 0.00 0.00 0.00 0.00 0.00 0.00 0.00 0.00 0.00 0.00 0.00 0.00 0.00 0.00 0.00 0.00 0.00 0.00 0.00 0.00 0.00 0.00 0.00 0.00 0.00 0.00 0.00 0.00 0.00
0.32 0.19 0.21 0.14 0.10 0.14 0.12 0.12 0.06 0.03 0.01 0.01 0.01 0.00 0.00 0.00 0.00 0.00 0.00 0.00 0.00 0.00 0.00 0.00 0.00 0.00 0.00 0.00 0.00 0.00 0.00 0.00 0.00 0.00 0.00 0.00 0.00 0.00
0.36 0.09 0.06 0.11 0.17 0.15 0.12 0.14 0.14 0.11 0.11 0.10 0.10 0.07 0.02 0.00 0.00 0.00 0.00 0.00 0.00 0.00 0.00 0.00 0.00 0.00 0.00 0.00 0.00 0.00 0.00 0.00 0.00 0.00 0.00 0.00 0.00 0.00
0.24 0.11 0.08 0.07 0.08 0.20 0.27 0.19 0.15 0.18 0.21 0.21 0.17 0.09 0.04 0.01 0.00 0.00 0.00 0.00 0.00 0.00 0.00 0.00 0.00 0.00 0.00 0.00 0.00 0.00 0.00 0.00 0.00 0.00 0.00 0.00 0.00 0.00
0.10 0.10 0.09 0.12 0.15 0.17 0.23 0.31 0.31 0.25 0.19 0.17 0.12 0.08 0.05 0.02 0.01 0.00 0.00 0.00 0.00 0.00 0.00 0.00 0.00 0.01 0.00 0.00 0.00 0.00 0.00 0.00 0.00 0.00 0.00 0.01 0.00 0.00
0.11 0.11 0.08 0.07 0.12 0.20 0.27 0.30 0.31 0.29 0.27 0.19 0.10 0.04 0.02 0.01 0.00 0.00 0.00 0.00 0.00 0.00 0.00 0.00 0.02 0.04 0.03 0.02 0.00 0.00 0.00 0.01 0.00 0.00 0.00 0.01 0.01 0.00
0.15 0.21 0.17 0.14 0.13 0.17 0.23 0.24 0.21 0.17 0.12 0.10 0.09 0.04 0.01 0.00 0.00 0.00 0.00 0.00 0.01 0.02 0.02 0.03 0.03 0.05 0.03 0.03 0.01 0.00 0.00 0.01 0.00 0.00 0.00 0.00 0.00 0.00

GFSNE_prec_precacc24_099.txt.gz
Total_Precipitation_Accumulation
0.18 0.14 0.15 0.13 0.11 0.08 0.06 0.10 0.11 0.08 0.04 0.02 0.02 0.03 0.03 0.03 0.02 0.00 0.00 0.05 0.03 0.02 0.02 0.01 0.01 0.01 0.02 0.04 0.03 0.03 0.03 0.03 0.03 0.04 0.03 0.02 0.06 0.17
0.28 0.30 0.33 0.35 0.30 0.19 0.16 0.15 0.16 0.15 0.14 0.07 0.04 0.04 0.04 0.01 0.01 0.00 0.01 0.03 0.01 0.01 0.01 0.00 0.00 0.01 0.01 0.01 0.01 0.01 0.01 0.01 0.02 0.03 0.06 0.06 0.07 0.17
0.31 0.18 0.16 0.25 0.41 0.37 0.27 0.18 0.16 0.17 0.16 0.14 0.10 0.06 0.03 0.01 0.01 0.01 0.02 0.01 0.03 0.04 0.01 0.01 0.00 0.01 0.01 0.01 0.01 0.01 0.01 0.01 0.02 0.04 0.04 0.06 0.07 0.11
0.28 0.31 0.23 0.16 0.10 0.10 0.11 0.11 0.06 0.05 0.06 0.04 0.05 0.06 0.04 0.03 0.01 0.01 0.01 0.00 0.00 0.05 0.01 0.00 0.00 0.01 0.01 0.00 0.00 0.00 0.00 0.00 0.00 0.01 0.01 0.03 0.08 0.14
0.10 0.10 0.12 0.15 0.11 0.08 0.06 0.08 0.08 0.09 0.08 0.04 0.01 0.00 0.01 0.01 0.01 0.00 0.00 0.00 0.00 0.03 0.00 0.00 0.00 0.00 0.00 0.00 0.00 0.00 0.00 0.00 0.00 0.00 0.00 0.01 0.08 0.16
0.11 0.11 0.11 0.13 0.20 0.23 0.19 0.13 0.13 0.18 0.21 0.18 0.09 0.02 0.00 0.00 0.00 0.00 0.00 0.00 0.00 0.00 0.00 0.00 0.00 0.00 0.00 0.00 0.00 0.00 0.00 0.00 0.00 0.00 0.00 0.00 0.01 0.07
0.06 0.07 0.07 0.11 0.12 0.15 0.28 0.33 0.31 0.29 0.28 0.24 0.11 0.05 0.01 0.00 0.00 0.00 0.00 0.00 0.00 0.00 0.00 0.00 0.00 0.00 0.00 0.00 0.00 0.00 0.00 0.00 0.00 0.00 0.00 0.00 0.00 0.00
0.03 0.03 0.04 0.09 0.07 0.07 0.07 0.09 0.14 0.19 0.19 0.14 0.09 0.01 0.00 0.00 0.00 0.00 0.00 0.00 0.00 0.00 0.00 0.00 0.00 0.00 0.00 0.00 0.00 0.00 0.00 0.00 0.00 0.00 0.00 0.00 0.00 0.00
0.01 0.01 0.01 0.02 0.04 0.03 0.06 0.06 0.06 0.09 0.13 0.16 0.13 0.04 0.04 0.01 0.00 0.00 0.00 0.00 0.00 0.00 0.00 0.00 0.00 0.00 0.00 0.00 0.00 0.00 0.00 0.00 0.00 0.00 0.00 0.00 0.00 0.00
0.00 0.01 0.01 0.00 0.01 0.01 0.01 0.02 0.03 0.05 0.09 0.13 0.14 0.13 0.14 0.13 0.09 0.04 0.01 0.00 0.00 0.00 0.00 0.00 0.00 0.00 0.00 0.00 0.00 0.00 0.00 0.00 0.00 0.00 0.00 0.00 0.00 0.00
0.00 0.00 0.00 0.00 0.02 0.02 0.01 0.00 0.01 0.02 0.06 0.08 0.12 0.08 0.05 0.03 0.02 0.00 0.00 0.00 0.01 0.00 0.00 0.00 0.00 0.00 0.00 0.00 0.00 0.00 0.00 0.00 0.00 0.00 0.00 0.00 0.00 0.00
0.00 0.00 0.01 0.00 0.01 0.01 0.01 0.00 0.00 0.00 0.00 0.00 0.01 0.01 0.01 0.00 0.00 0.00 0.00 0.00 0.00 0.00 0.00 0.00 0.00 0.00 0.00 0.00 0.00 0.00 0.00 0.00 0.00 0.00 0.00 0.00 0.00 0.00
0.00 0.00 0.00 0.02 0.02 0.02 0.01 0.00 0.00 0.01 0.01 0.00 0.00 0.00 0.00 0.00 0.00 0.00 0.00 0.00 0.00 0.00 0.00 0.00 0.00 0.00 0.00 0.00 0.00 0.00 0.00 0.00 0.00 0.00 0.00 0.00 0.00 0.00
0.01 0.01 0.01 0.05 0.05 0.04 0.04 0.01 0.02 0.01 0.01 0.00 0.00 0.00 0.00 0.00 0.00 0.00 0.00 0.00 0.00 0.00 0.00 0.00 0.00 0.00 0.00 0.00 0.00 0.00 0.00 0.00 0.00 0.00 0.00 0.00 0.00 0.00
0.02 0.05 0.06 0.10 0.09 0.06 0.05 0.03 0.03 0.01 0.00 0.00 0.00 0.00 0.00 0.00 0.00 0.00 0.00 0.00 0.00 0.00 0.00 0.00 0.00 0.00 0.00 0.00 0.00 0.00 0.00 0.00 0.00 0.00 0.00 0.00 0.00 0.00
0.07 0.13 0.19 0.16 0.15 0.14 0.12 0.08 0.04 0.02 0.01 0.00 0.00 0.00 0.00 0.00 0.00 0.00 0.00 0.00 0.00 0.00 0.00 0.00 0.00 0.00 0.00 0.00 0.00 0.00 0.00 0.00 0.00 0.00 0.00 0.00 0.00 0.00
0.23 0.14 0.19 0.23 0.19 0.14 0.10 0.12 0.13 0.07 0.03 0.00 0.00 0.00 0.00 0.00 0.00 0.00 0.00 0.00 0.00 0.00 0.00 0.00 0.00 0.00 0.00 0.00 0.00 0.00 0.00 0.00 0.00 0.00 0.00 0.00 0.00 0.00
0.32 0.19 0.21 0.15 0.12 0.17 0.20 0.19 0.14 0.15 0.13 0.06 0.04 0.02 0.00 0.00 0.00 0.00 0.00 0.00 0.00 0.00 0.00 0.00 0.00 0.00 0.00 0.00 0.00 0.00 0.00 0.00 0.00 0.00 0.00 0.00 0.00 0.00
0.37 0.10 0.07 0.13 0.20 0.19 0.16 0.25 0.27 0.18 0.24 0.27 0.26 0.22 0.12 0.04 0.01 0.00 0.00 0.00 0.00 0.00 0.00 0.00 0.00 0.00 0.00 0.00 0.00 0.00 0.00 0.00 0.00 0.00 0.00 0.00 0.00 0.00
0.25 0.12 0.09 0.08 0.11 0.27 0.37 0.29 0.27 0.38 0.42 0.42 0.42 0.37 0.28 0.22 0.15 0.05 0.00 0.00 0.00 0.00 0.00 0.00 0.00 0.00 0.00 0.00 0.00 0.00 0.00 0.00 0.00 0.00 0.00 0.00 0.00 0.00
0.10 0.10 0.09 0.14 0.16 0.20 0.30 0.42 0.41 0.33 0.31 0.35 0.35 0.31 0.25 0.19 0.15 0.12 0.05 0.01 0.00 0.00 0.00 0.00 0.00 0.01 0.00 0.00 0.00 0.00 0.00 0.00 0.00 0.00 0.00 0.00 0.00 0.00
0.11 0.12 0.08 0.08 0.13 0.22 0.30 0.36 0.40 0.37 0.33 0.28 0.22 0.20 0.18 0.15 0.08 0.07 0.07 0.04 0.02 0.00 0.00 0.00 0.01 0.03 0.02 0.01 0.00 0.00 0.00 0.01 0.00 0.00 0.00 0.01 0.00 0.00
0.16 0.22 0.18 0.15 0.14 0.18 0.26 0.28 0.27 0.24 0.20 0.17 0.17 0.13 0.12 0.11 0.06 0.03 0.02 0.01 0.01 0.02 0.01 0.01 0.01 0.03 0.01 0.02 0.01 0.00 0.00 0.01 0.00 0.00 0.00 0.00 0.00 0.00

GFSNE_prec_precacc24_102.txt.gz
Total_Precipitation_Accumulation
0.24 0.23 0.24 0.19 0.16 0.13 0.12 0.15 0.18 0.15 0.07 0.03 0.03 0.03 0.03 0.03 0.04 0.03 0.01 0.04 0.03 0.02 0.02 0.01 0.01 0.01 0.01 0.01 0.01 0.01 0.01 0.02 0.01 0.03 0.03 0.02 0.02 0.06
0.39 0.40 0.45 0.46 0.39 0.28 0.25 0.24 0.24 0.22 0.19 0.10 0.05 0.06 0.09 0.12 0.15 0.10 0.03 0.02 0.01 0.01 0.01 0.00 0.00 0.00 0.00 0.01 0.01 0.00 0.00 0.01 0.02 0.02 0.04 0.06 0.04 0.07
0.53 0.40 0.34 0.38 0.55 0.48 0.35 0.27 0.29 0.36 0.38 0.32 0.18 0.16 0.16 0.15 0.13 0.08 0.04 0.02 0.03 0.04 0.01 0.01 0.00 0.01 0.01 0.01 0.00 0.01 0.01 0.01 0.01 0.02 0.03 0.04 0.05 0.06
0.46 0.48 0.43 0.38 0.32 0.25 0.21 0.19 0.15 0.17 0.24 0.20 0.18 0.19 0.19 0.20 0.20 0.13 0.08 0.04 0.01 0.05 0.01 0.00 0.00 0.01 0.00 0.00 0.00 0.00 0.00 0.00 0.00 0.00 0.01 0.02 0.07 0.12
0.37 0.31 0.23 0.28 0.27 0.28 0.23 0.19 0.15 0.15 0.14 0.10 0.08 0.06 0.05 0.08 0.09 0.08 0.05 0.03 0.02 0.03 0.00 0.00 0.00 0.00 0.00 0.00 0.00 0.00 0.00 0.00 0.00 0.00 0.00 0.01 0.08 0.16
0.18 0.27 0.32 0.37 0.37 0.35 0.31 0.25 0.25 0.30 0.27 0.22 0.14 0.08 0.04 0.03 0.02 0.03 0.02 0.01 0.00 0.00 0.00 0.00 0.00 0.00 0.00 0.00 0.00 0.00 0.00 0.00 0.00 0.00 0.00 0.00 0.01 0.07
0.06 0.07 0.08 0.13 0.17 0.21 0.34 0.38 0.44 0.52 0.50 0.44 0.38 0.31 0.23 0.15 0.09 0.03 0.04 0.03 0.01 0.00 0.00 0.00 0.00 0.00 0.00 0.00 0.00 0.00 0.00 0.00 0.00 0.00 0.00 0.00 0.00 0.00
0.03 0.03 0.04 0.09 0.07 0.09 0.12 0.15 0.19 0.27 0.40 0.43 0.41 0.36 0.29 0.24 0.21 0.14 0.09 0.05 0.00 0.00 0.00 0.00 0.00 0.00 0.00 0.00 0.00 0.00 0.00 0.00 0.00 0.00 0.00 0.00 0.00 0.00
0.00 0.00 0.01 0.01 0.04 0.03 0.06 0.08 0.10 0.13 0.19 0.19 0.18 0.13 0.13 0.11 0.12 0.12 0.06 0.01 0.00 0.00 0.00 0.00 0.00 0.00 0.00 0.00 0.00 0.00 0.00 0.00 0.00 0.00 0.00 0.00 0.00 0.00
0.00 0.00 0.00 0.00 0.00 0.01 0.01 0.02 0.03 0.06 0.12 0.16 0.17 0.22 0.29 0.31 0.30 0.25 0.18 0.09 0.02 0.00 0.00 0.00 0.00 0.00 0.00 0.00 0.00 0.00 0.00 0.00 0.00 0.00 0.00 0.00 0.00 0.00
0.00 0.00 0.00 0.00 0.02 0.02 0.01 0.00 0.01 0.02 0.09 0.14 0.18 0.20 0.20 0.23 0.22 0.18 0.17 0.13 0.09 0.04 0.01 0.00 0.00 0.00 0.00 0.00 0.00 0.00 0.00 0.00 0.00 0.00 0.00 0.00 0.00 0.00
0.00 0.00 0.01 0.00 0.01 0.01 0.01 0.00 0.01 0.01 0.01 0.02 0.03 0.04 0.08 0.11 0.15 0.13 0.12 0.11 0.06 0.01 0.00 0.00 0.00 0.00 0.00 0.00 0.00 0.00 0.00 0.00 0.00 0.00 0.00 0.00 0.00 0.00
0.01 0.00 0.00 0.03 0.02 0.03 0.02 0.00 0.01 0.03 0.03 0.03 0.03 0.03 0.02 0.02 0.05 0.03 0.04 0.03 0.01 0.00 0.00 0.00 0.00 0.00 0.00 0.00 0.00 0.00 0.00 0.00 0.00 0.00 0.00 0.00 0.00 0.00
0.02 0.01 0.01 0.06 0.06 0.05 0.05 0.02 0.04 0.04 0.03 0.03 0.03 0.03 0.02 0.01 0.01 0.00 0.00 0.00 0.00 0.00 0.00 0.00 0.00 0.00 0.00 0.00 0.00 0.00 0.00 0.00 0.00 0.00 0.00 0.00 0.00 0.00
0.03 0.05 0.07 0.10 0.09 0.06 0.06 0.06 0.08 0.04 0.03 0.03 0.05 0.05 0.02 0.01 0.01 0.00 0.00 0.00 0.00 0.00 0.00 0.00 0.00 0.00 0.00 0.00 0.00 0.00 0.00 0.00 0.00 0.00 0.00 0.00 0.00 0.00
0.07 0.13 0.19 0.16 0.15 0.15 0.14 0.11 0.08 0.05 0.06 0.06 0.06 0.03 0.07 0.12 0.07 0.01 0.00 0.00 0.00 0.00 0.00 0.00 0.00 0.00 0.00 0.00 0.00 0.00 0.00 0.00 0.00 0.00 0.00 0.00 0.00 0.00
0.23 0.15 0.19 0.23 0.19 0.14 0.12 0.16 0.17 0.12 0.07 0.08 0.09 0.06 0.03 0.03 0.04 0.03 0.02 0.00 0.00 0.00 0.00 0.00 0.00 0.00 0.00 0.00 0.00 0.00 0.00 0.00 0.00 0.00 0.00 0.00 0.00 0.00
0.33 0.20 0.22 0.15 0.13 0.18 0.23 0.24 0.21 0.21 0.19 0.14 0.09 0.10 0.10 0.04 0.01 0.01 0.01 0.00 0.00 0.00 0.00 0.00 0.00 0.00 0.00 0.00 0.00 0.00 0.00 0.00 0.00 0.00 0.00 0.00 0.00 0.00
0.37 0.10 0.08 0.13 0.20 0.20 0.20 0.31 0.34 0.25 0.31 0.36 0.42 0.38 0.25 0.18 0.09 0.03 0.03 0.02 0.00 0.00 0.00 0.00 0.00 0.00 0.00 0.00 0.00 0.00 0.00 0.00 0.00 0.00 0.00 0.00 0.00 0.00
0.25 0.12 0.09 0.09 0.11 0.28 0.39 0.34 0.37 0.50 0.54 0.52 0.55 0.54 0.50 0.43 0.32 0.19 0.08 0.04 0.01 0.00 0.00 0.00 0.00 0.00 0.00 0.00 0.00 0.00 0.00 0.00 0.00 0.00 0.00 0.00 0.00 0.00
0.10 0.11 0.10 0.14 0.17 0.21 0.31 0.47 0.53 0.47 0.42 0.44 0.45 0.43 0.39 0.36 0.30 0.25 0.19 0.12 0.05 0.01 0.00 0.00 0.00 0.00 0.00 0.00 0.00 0.00 0.00 0.00 0.00 0.00 0.00 0.00 0.00 0.00
0.10 0.12 0.09 0.08 0.14 0.23 0.31 0.38 0.46 0.50 0.47 0.37 0.30 0.29 0.28 0.26 0.18 0.16 0.18 0.16 0.10 0.03 0.01 0.01 0.01 0.00 0.01 0.00 0.00 0.00 0.00 0.00 0.00 0.00 0.00 0.01 0.00 0.00
0.15 0.22 0.18 0.15 0.15 0.19 0.27 0.30 0.31 0.30 0.29 0.28 0.28 0.22 0.20 0.22 0.16 0.14 0.13 0.11 0.10 0.13 0.07 0.04 0.01 0.01 0.01 0.01 0.00 0.00 0.00 0.00 0.00 0.00 0.00 0.00 0.00 0.00

GFSNE_prec_precacc24_105.txt.gz
Total_Precipitation_Accumulation
0.39 0.34 0.31 0.24 0.21 0.22 0.21 0.26 0.30 0.25 0.12 0.03 0.03 0.04 0.03 0.04 0.04 0.04 0.02 0.05 0.04 0.02 0.03 0.02 0.01 0.01 0.00 0.00 0.00 0.01 0.01 0.01 0.01 0.01 0.03 0.02 0.02 0.02
0.54 0.49 0.51 0.51 0.44 0.33 0.31 0.32 0.36 0.37 0.31 0.11 0.05 0.06 0.09 0.13 0.16 0.13 0.09 0.12 0.06 0.04 0.03 0.00 0.00 0.00 0.00 0.01 0.01 0.00 0.00 0.01 0.01 0.01 0.03 0.05 0.04 0.03
0.98 0.81 0.55 0.46 0.60 0.54 0.42 0.35 0.38 0.46 0.50 0.36 0.20 0.18 0.17 0.17 0.17 0.17 0.13 0.09 0.08 0.07 0.02 0.01 0.00 0.00 0.00 0.00 0.00 0.00 0.01 0.01 0.01 0.01 0.02 0.03 0.04 0.05
0.67 0.75 0.69 0.61 0.51 0.40 0.35 0.33 0.30 0.31 0.38 0.31 0.22 0.22 0.23 0.24 0.27 0.27 0.24 0.16 0.09 0.09 0.04 0.01 0.00 0.00 0.00 0.00 0.00 0.00 0.00 0.00 0.00 0.00 0.00 0.02 0.06 0.10
0.51 0.50 0.44 0.51 0.47 0.45 0.47 0.47 0.41 0.43 0.45 0.36 0.20 0.11 0.11 0.15 0.19 0.22 0.21 0.18 0.11 0.10 0.04 0.01 0.00 0.00 0.00 0.00 0.00 0.00 0.00 0.00 0.00 0.00 0.00 0.01 0.07 0.16
0.18 0.29 0.38 0.51 0.60 0.67 0.64 0.54 0.52 0.58 0.54 0.46 0.27 0.15 0.10 0.09 0.10 0.09 0.09 0.06 0.05 0.04 0.02 0.00 0.00 0.00 0.00 0.00 0.00 0.00 0.00 0.00 0.00 0.00 0.00 0.00 0.01 0.07
0.06 0.07 0.08 0.13 0.18 0.24 0.45 0.55 0.66 0.75 0.79 0.74 0.60 0.45 0.31 0.21 0.14 0.08 0.08 0.08 0.08 0.03 0.01 0.00 0.00 0.00 0.00 0.00 0.00 0.00 0.00 0.00 0.00 0.00 0.00 0.00 0.00 0.00
0.03 0.03 0.04 0.08 0.07 0.09 0.12 0.16 0.21 0.31 0.45 0.54 0.60 0.59 0.50 0.43 0.46 0.43 0.39 0.35 0.24 0.07 0.02 0.00 0.00 0.00 0.00 0.00 0.00 0.00 0.00 0.00 0.00 0.00 0.00 0.00 0.00 0.00
0.00 0.00 0.01 0.01 0.04 0.03 0.06 0.08 0.10 0.16 0.23 0.23 0.21 0.16 0.17 0.19 0.23 0.29 0.28 0.24 0.19 0.13 0.14 0.08 0.01 0.00 0.00 0.00 0.00 0.00 0.00 0.00 0.00 0.00 0.00 0.00 0.00 0.00
0.00 0.00 0.00 0.00 0.00 0.01 0.01 0.02 0.03 0.06 0.13 0.19 0.19 0.23 0.31 0.35 0.40 0.40 0.34 0.25 0.16 0.12 0.12 0.06 0.01 0.00 0.00 0.00 0.00 0.00 0.00 0.00 0.00 0.00 0.00 0.00 0.00 0.00
0.00 0.00 0.00 0.00 0.01 0.02 0.01 0.00 0.01 0.02 0.09 0.15 0.21 0.27 0.28 0.27 0.26 0.27 0.34 0.33 0.32 0.22 0.15 0.10 0.05 0.01 0.00 0.00 0.00 0.00 0.00 0.00 0.00 0.00 0.00 0.00 0.00 0.00
0.00 0.00 0.00 0.00 0.01 0.02 0.01 0.00 0.01 0.01 0.01 0.02 0.04 0.07 0.10 0.14 0.18 0.17 0.17 0.22 0.21 0.20 0.17 0.15 0.10 0.05 0.00 0.00 0.00 0.00 0.00 0.00 0.00 0.00 0.00 0.00 0.00 0.00
0.01 0.00 0.00 0.03 0.03 0.03 0.03 0.01 0.02 0.03 0.03 0.04 0.05 0.07 0.07 0.08 0.09 0.08 0.07 0.09 0.08 0.09 0.12 0.14 0.09 0.04 0.00 0.00 0.00 0.00 0.00 0.00 0.00 0.00 0.00 0.00 0.00 0.00
0.02 0.01 0.01 0.06 0.06 0.05 0.05 0.03 0.06 0.07 0.04 0.03 0.04 0.06 0.09 0.08 0.09 0.07 0.05 0.06 0.05 0.03 0.03 0.03 0.01 0.00 0.00 0.00 0.00 0.00 0.00 0.00 0.00 0.00 0.00 0.00 0.00 0.00
0.03 0.05 0.07 0.11 0.09 0.06 0.06 0.06 0.09 0.06 0.04 0.06 0.07 0.08 0.07 0.07 0.08 0.11 0.12 0.06 0.02 0.04 0.03 0.01 0.00 0.00 0.00 0.00 0.00 0.00 0.00 0.00 0.00 0.00 0.00 0.00 0.00 0.00
0.07 0.13 0.19 0.16 0.15 0.15 0.15 0.11 0.09 0.08 0.10 0.10 0.12 0.12 0.18 0.27 0.27 0.20 0.11 0.11 0.09 0.04 0.01 0.00 0.00 0.00 0.00 0.00 0.00 0.00 0.00 0.00 0.00 0.00 0.00 0.00 0.00 0.00
0.24 0.15 0.20 0.23 0.19 0.15 0.12 0.16 0.19 0.16 0.13 0.12 0.13 0.15 0.15 0.20 0.27 0.30 0.24 0.10 0.07 0.06 0.04 0.00 0.00 0.00 0.00 0.00 0.00 0.00 0.00 0.00 0.00 0.00 0.00 0.00 0.00 0.00
0.34 0.20 0.22 0.15 0.13 0.19 0.23 0.25 0.22 0.24 0.23 0.19 0.15 0.18 0.21 0.19 0.16 0.18 0.19 0.22 0.16 0.05 0.00 0.00 0.00 0.00 0.00 0.00 0.00 0.00 0.00 0.00 0.00 0.00 0.00 0.00 0.00 0.00
0.38 0.10 0.08 0.13 0.21 0.21 0.21 0.32 0.35 0.27 0.35 0.42 0.51 0.47 0.37 0.35 0.31 0.22 0.18 0.18 0.15 0.20 0.16 0.04 0.00 0.00 0.00 0.00 0.00 0.00 0.00 0.00 0.00 0.00 0.00 0.00 0.00 0.00
0.25 0.11 0.08 0.09 0.12 0.28 0.39 0.35 0.39 0.53 0.58 0.59 0.65 0.65 0.62 0.56 0.45 0.32 0.23 0.17 0.13 0.09 0.10 0.11 0.03 0.00 0.00 0.00 0.00 0.00 0.00 0.00 0.00 0.00 0.00 0.00 0.00 0.00
0.10 0.09 0.08 0.14 0.17 0.21 0.31 0.48 0.55 0.50 0.48 0.50 0.52 0.51 0.48 0.47 0.39 0.34 0.29 0.22 0.14 0.10 0.06 0.03 0.01 0.00 0.00 0.00 0.00 0.00 0.00 0.00 0.00 0.00 0.00 0.00 0.00 0.00
0.08 0.10 0.05 0.08 0.14 0.24 0.31 0.39 0.47 0.51 0.51 0.43 0.36 0.35 0.36 0.35 0.27 0.26 0.29 0.27 0.20 0.10 0.05 0.07 0.04 0.01 0.00 0.00 0.00 0.00 0.00 0.00 0.00 0.00 0.00 0.00 0.00 0.00
0.13 0.18 0.15 0.14 0.15 0.19 0.27 0.31 0.32 0.31 0.31 0.32 0.35 0.32 0.31 0.32 0.24 0.22 0.23 0.25 0.22 0.25 0.18 0.14 0.08 0.01 0.00 0.01 0.01 0.00 0.00 0.00 0.00 0.00 0.00 0.00 0.00 0.00

GFSNE_prec_precacc24_108.txt.gz
Total_Precipitation_Accumulation
0.43 0.42 0.46 0.38 0.32 0.32 0.34 0.38 0.41 0.34 0.14 0.03 0.03 0.04 0.05 0.06 0.08 0.09 0.05 0.06 0.05 0.02 0.02 0.02 0.01 0.01 0.00 0.01 0.00 0.00 0.00 0.01 0.00 0.00 0.01 0.02 0.02 0.02
0.76 0.69 0.66 0.60 0.55 0.47 0.47 0.49 0.52 0.50 0.37 0.12 0.05 0.07 0.14 0.20 0.22 0.19 0.12 0.14 0.07 0.04 0.03 0.01 0.01 0.01 0.00 0.01 0.00 0.00 0.00 0.00 0.01 0.01 0.02 0.03 0.03 0.03
1.02 0.96 0.81 0.81 0.98 0.80 0.61 0.52 0.55 0.59 0.60 0.39 0.21 0.18 0.18 0.18 0.20 0.22 0.20 0.14 0.10 0.10 0.05 0.03 0.02 0.01 0.01 0.00 0.00 0.00 0.01 0.01 0.00 0.00 0.01 0.01 0.02 0.03
0.70 0.81 0.79 0.78 0.75 0.65 0.60 0.54 0.46 0.42 0.49 0.39 0.24 0.22 0.23 0.24 0.27 0.28 0.29 0.24 0.17 0.20 0.12 0.06 0.04 0.02 0.01 0.00 0.00 0.00 0.00 0.00 0.00 0.00 0.00 0.01 0.03 0.08
0.52 0.52 0.47 0.58 0.59 0.63 0.70 0.74 0.66 0.61 0.63 0.55 0.33 0.18 0.14 0.17 0.23 0.28 0.29 0.30 0.26 0.29 0.17 0.09 0.05 0.02 0.01 0.01 0.00 0.00 0.00 0.00 0.00 0.00 0.00 0.00 0.06 0.13
0.18 0.29 0.38 0.52 0.62 0.71 0.72 0.63 0.65 0.76 0.73 0.67 0.46 0.27 0.18 0.16 0.16 0.15 0.17 0.17 0.19 0.21 0.17 0.10 0.07 0.04 0.02 0.01 0.00 0.00 0.00 0.00 0.00 0.00 0.00 0.00 0.00 0.06
0.06 0.07 0.08 0.13 0.18 0.24 0.45 0.56 0.69 0.84 0.93 0.91 0.75 0.55 0.38 0.26 0.17 0.10 0.12 0.15 0.20 0.16 0.11 0.07 0.04 0.02 0.00 0.01 0.00 0.00 0.00 0.00 0.00 0.00 0.00 0.00 0.00 0.00
0.03 0.03 0.04 0.08 0.07 0.09 0.12 0.16 0.21 0.31 0.48 0.59 0.64 0.62 0.53 0.48 0.54 0.55 0.51 0.47 0.37 0.14 0.09 0.06 0.02 0.00 0.00 0.00 0.00 0.00 0.00 0.00 0.00 0.00 0.00 0.00 0.00 0.00
0.00 0.00 0.01 0.01 0.04 0.03 0.06 0.08 0.10 0.16 0.24 0.25 0.25 0.19 0.19 0.22 0.30 0.40 0.43 0.37 0.32 0.21 0.27 0.24 0.13 0.05 0.01 0.00 0.00 0.00 0.00 0.00 0.00 0.00 0.00 0.00 0.00 0.00
0.00 0.00 0.00 0.00 0.00 0.01 0.01 0.02 0.03 0.06 0.13 0.19 0.20 0.26 0.33 0.37 0.45 0.48 0.46 0.39 0.34 0.27 0.24 0.19 0.10 0.08 0.04 0.01 0.01 0.00 0.00 0.00 0.00 0.00 0.00 0.00 0.00 0.00
0.00 0.00 0.00 0.00 0.01 0.02 0.01 0.00 0.01 0.02 0.09 0.15 0.21 0.28 0.31 0.32 0.31 0.32 0.48 0.55 0.51 0.35 0.26 0.18 0.12 0.11 0.08 0.04 0.01 0.00 0.00 0.00 0.00 0.00 0.00 0.00 0.00 0.00
0.00 0.00 0.00 0.00 0.01 0.02 0.02 0.00 0.01 0.01 0.01 0.03 0.04 0.07 0.10 0.16 0.22 0.21 0.21 0.26 0.25 0.25 0.23 0.23 0.20 0.20 0.18 0.08 0.02 0.01 0.00 0.00 0.00 0.00 0.00 0.00 0.00 0.00
0.01 0.00 0.00 0.03 0.03 0.03 0.03 0.01 0.02 0.04 0.04 0.04 0.05 0.07 0.07 0.09 0.11 0.11 0.10 0.13 0.16 0.14 0.14 0.20 0.18 0.18 0.13 0.06 0.04 0.02 0.00 0.00 0.00 0.00 0.00 0.00 0.00 0.00
0.02 0.01 0.01 0.06 0.06 0.05 0.05 0.03 0.06 0.07 0.04 0.04 0.04 0.07 0.10 0.10 0.10 0.10 0.12 0.10 0.07 0.05 0.05 0.07 0.06 0.09 0.08 0.05 0.05 0.04 0.00 0.00 0.00 0.00 0.00 0.00 0.00 0.00
0.03 0.05 0.07 0.11 0.09 0.06 0.07 0.06 0.09 0.07 0.05 0.07 0.09 0.08 0.07 0.08 0.14 0.21 0.22 0.19 0.18 0.12 0.09 0.05 0.03 0.03 0.04 0.03 0.01 0.01 0.00 0.00 0.00 0.00 0.00 0.00 0.00 0.00
0.07 0.13 0.20 0.16 0.16 0.15 0.15 0.11 0.10 0.09 0.12 0.12 0.13 0.14 0.20 0.30 0.32 0.28 0.30 0.30 0.29 0.29 0.16 0.11 0.09 0.04 0.02 0.02 0.00 0.00 0.00 0.00 0.00 0.00 0.00 0.00 0.00 0.00
0.26 0.16 0.21 0.24 0.20 0.15 0.12 0.17 0.19 0.17 0.15 0.14 0.16 0.17 0.20 0.27 0.33 0.39 0.38 0.34 0.32 0.29 0.26 0.16 0.07 0.09 0.06 0.02 0.00 0.00 0.00 0.00 0.00 0.00 0.00 0.00 0.00 0.00
0.36 0.23 0.23 0.16 0.13 0.19 0.24 0.26 0.22 0.25 0.24 0.21 0.17 0.20 0.26 0.27 0.28 0.29 0.32 0.37 0.41 0.34 0.27 0.26 0.16 0.05 0.07 0.07 0.02 0.00 0.00 0.00 0.00 0.00 0.00 0.00 0.00 0.00
0.39 0.11 0.08 0.13 0.21 0.21 0.21 0.33 0.36 0.27 0.37 0.45 0.54 0.51 0.43 0.45 0.45 0.37 0.35 0.37 0.33 0.42 0.47 0.31 0.28 0.21 0.09 0.04 0.01 0.00 0.00 0.00 0.00 0.00 0.00 0.00 0.00 0.00
0.25 0.12 0.09 0.09 0.12 0.29 0.40 0.35 0.40 0.53 0.59 0.62 0.69 0.69 0.68 0.62 0.54 0.42 0.35 0.30 0.29 0.28 0.31 0.41 0.34 0.23 0.20 0.12 0.01 0.00 0.00 0.00 0.00 0.00 0.00 0.00 0.00 0.00
0.11 0.10 0.08 0.12 0.17 0.22 0.32 0.49 0.56 0.51 0.49 0.53 0.55 0.57 0.55 0.56 0.46 0.41 0.38 0.33 0.23 0.26 0.27 0.20 0.19 0.23 0.17 0.10 0.06 0.02 0.00 0.00 0.00 0.00 0.00 0.00 0.00 0.00
0.09 0.10 0.05 0.07 0.14 0.25 0.32 0.40 0.48 0.52 0.51 0.45 0.39 0.40 0.42 0.44 0.34 0.32 0.36 0.36 0.27 0.18 0.17 0.23 0.24 0.20 0.19 0.10 0.02 0.01 0.00 0.00 0.00 0.00 0.00 0.00 0.00 0.00
0.14 0.19 0.16 0.13 0.15 0.20 0.28 0.31 0.33 0.31 0.32 0.33 0.37 0.35 0.35 0.36 0.28 0.29 0.33 0.34 0.29 0.31 0.26 0.27 0.22 0.12 0.07 0.10 0.05 0.03 0.02 0.01 0.00 0.00 0.00 0.00 0.00 0.00

GFSNE_prec_precacc24_111.txt.gz
Total_Precipitation_Accumulation
0.48 0.50 0.56 0.48 0.41 0.39 0.40 0.45 0.51 0.45 0.21 0.05 0.05 0.05 0.05 0.06 0.09 0.10 0.06 0.07 0.06 0.03 0.02 0.02 0.02 0.01 0.01 0.03 0.06 0.07 0.05 0.03 0.00 0.00 0.01 0.01 0.01 0.02
0.78 0.75 0.75 0.76 0.71 0.60 0.56 0.60 0.67 0.68 0.54 0.16 0.07 0.10 0.15 0.22 0.23 0.19 0.13 0.15 0.08 0.06 0.03 0.02 0.02 0.01 0.01 0.02 0.03 0.02 0.01 0.01 0.01 0.01 0.02 0.02 0.02 0.03
1.03 0.97 0.82 0.83 1.04 0.99 0.89 0.82 0.81 0.81 0.82 0.45 0.22 0.20 0.21 0.21 0.21 0.23 0.21 0.15 0.10 0.10 0.04 0.03 0.02 0.02 0.02 0.02 0.03 0.03 0.02 0.02 0.01 0.00 0.01 0.01 0.01 0.02
0.70 0.82 0.80 0.81 0.79 0.72 0.76 0.79 0.77 0.72 0.78 0.57 0.32 0.30 0.30 0.29 0.31 0.33 0.31 0.25 0.18 0.19 0.12 0.07 0.06 0.05 0.06 0.07 0.06 0.04 0.02 0.02 0.00 0.00 0.00 0.00 0.02 0.05
0.52 0.52 0.47 0.58 0.60 0.66 0.77 0.85 0.83 0.87 0.93 0.82 0.50 0.32 0.22 0.20 0.27 0.33 0.31 0.31 0.26 0.30 0.21 0.14 0.12 0.11 0.10 0.10 0.08 0.05 0.03 0.01 0.00 0.00 0.00 0.00 0.01 0.08
0.18 0.29 0.38 0.52 0.62 0.71 0.73 0.66 0.69 0.82 0.83 0.82 0.60 0.37 0.23 0.19 0.22 0.21 0.20 0.18 0.21 0.25 0.25 0.19 0.19 0.18 0.16 0.12 0.09 0.07 0.03 0.01 0.00 0.00 0.00 0.00 0.00 0.02
0.06 0.07 0.08 0.13 0.18 0.24 0.45 0.56 0.69 0.84 0.93 0.91 0.76 0.57 0.40 0.28 0.20 0.14 0.18 0.18 0.22 0.19 0.15 0.14 0.12 0.10 0.08 0.07 0.05 0.04 0.02 0.00 0.00 0.00 0.00 0.00 0.00 0.00
0.03 0.03 0.04 0.08 0.07 0.09 0.12 0.16 0.21 0.31 0.48 0.59 0.64 0.63 0.54 0.49 0.55 0.57 0.53 0.49 0.39 0.16 0.10 0.07 0.04 0.02 0.01 0.01 0.02 0.01 0.01 0.00 0.00 0.00 0.00 0.00 0.00 0.00
0.00 0.00 0.01 0.01 0.04 0.03 0.06 0.08 0.10 0.16 0.24 0.25 0.26 0.19 0.20 0.23 0.31 0.43 0.47 0.39 0.33 0.22 0.29 0.26 0.15 0.06 0.01 0.01 0.01 0.01 0.00 0.00 0.00 0.00 0.00 0.00 0.00 0.00
0.00 0.00 0.00 0.00 0.00 0.01 0.01 0.02 0.03 0.06 0.13 0.19 0.20 0.26 0.34 0.38 0.47 0.51 0.48 0.44 0.43 0.35 0.31 0.25 0.11 0.10 0.06 0.03 0.04 0.01 0.01 0.00 0.00 0.00 0.00 0.00 0.00 0.00
0.00 0.00 0.00 0.00 0.01 0.02 0.01 0.00 0.01 0.02 0.09 0.15 0.21 0.28 0.31 0.32 0.31 0.34 0.50 0.59 0.58 0.40 0.31 0.28 0.16 0.13 0.11 0.09 0.07 0.06 0.02 0.01 0.00 0.00 0.00 0.00 0.00 0.00
0.00 0.00 0.00 0.00 0.01 0.02 0.02 0.00 0.01 0.01 0.01 0.03 0.04 0.07 0.10 0.16 0.23 0.22 0.22 0.29 0.28 0.30 0.29 0.32 0.28 0.27 0.30 0.19 0.11 0.10 0.06 0.03 0.01 0.00 0.00 0.00 0.00 0.00
0.01 0.00 0.00 0.03 0.03 0.03 0.03 0.01 0.02 0.04 0.04 0.04 0.05 0.07 0.07 0.09 0.11 0.12 0.11 0.16 0.21 0.17 0.17 0.26 0.29 0.31 0.31 0.18 0.10 0.11 0.07 0.03 0.02 0.00 0.00 0.00 0.00 0.00
0.02 0.01 0.01 0.06 0.06 0.05 0.05 0.03 0.06 0.07 0.04 0.04 0.04 0.07 0.10 0.10 0.10 0.10 0.12 0.11 0.11 0.09 0.08 0.15 0.14 0.15 0.16 0.14 0.10 0.08 0.09 0.05 0.04 0.01 0.00 0.00 0.00 0.00
0.03 0.06 0.08 0.11 0.09 0.06 0.07 0.06 0.09 0.07 0.05 0.07 0.10 0.09 0.08 0.08 0.14 0.21 0.23 0.21 0.21 0.18 0.16 0.10 0.08 0.09 0.10 0.13 0.08 0.04 0.07 0.08 0.06 0.03 0.00 0.00 0.00 0.00
0.08 0.14 0.20 0.17 0.16 0.15 0.15 0.11 0.10 0.10 0.12 0.13 0.14 0.14 0.20 0.31 0.33 0.28 0.31 0.33 0.34 0.34 0.23 0.22 0.17 0.09 0.09 0.10 0.07 0.09 0.10 0.07 0.06 0.07 0.02 0.00 0.00 0.00
0.28 0.17 0.21 0.24 0.20 0.15 0.12 0.17 0.19 0.17 0.15 0.14 0.16 0.17 0.20 0.28 0.33 0.39 0.39 0.36 0.37 0.35 0.31 0.25 0.20 0.26 0.18 0.09 0.07 0.07 0.08 0.07 0.06 0.05 0.02 0.00 0.00 0.00
0.36 0.24 0.24 0.17 0.14 0.19 0.24 0.26 0.22 0.25 0.24 0.22 0.18 0.21 0.28 0.29 0.30 0.31 0.36 0.44 0.47 0.39 0.38 0.38 0.30 0.25 0.31 0.29 0.17 0.08 0.06 0.05 0.04 0.02 0.00 0.00 0.00 0.00
0.39 0.12 0.10 0.14 0.21 0.22 0.22 0.33 0.36 0.27 0.37 0.46 0.55 0.52 0.45 0.47 0.49 0.41 0.41 0.44 0.43 0.50 0.54 0.49 0.52 0.46 0.37 0.29 0.27 0.16 0.08 0.03 0.02 0.02 0.00 0.00 0.00 0.00
0.25 0.13 0.10 0.10 0.12 0.29 0.41 0.36 0.40 0.54 0.60 0.62 0.70 0.70 0.70 0.68 0.60 0.48 0.41 0.42 0.42 0.38 0.40 0.54 0.61 0.53 0.46 0.37 0.27 0.22 0.16 0.09 0.02 0.01 0.00 0.00 0.00 0.00
0.12 0.10 0.08 0.13 0.17 0.22 0.33 0.49 0.57 0.52 0.50 0.54 0.56 0.57 0.57 0.61 0.52 0.47 0.43 0.40 0.36 0.40 0.39 0.31 0.33 0.46 0.42 0.32 0.42 0.43 0.29 0.20 0.09 0.01 0.00 0.00 0.00 0.00
0.09 0.10 0.06 0.07 0.14 0.24 0.32 0.41 0.49 0.53 0.52 0.45 0.39 0.40 0.44 0.48 0.42 0.39 0.42 0.42 0.33 0.26 0.31 0.39 0.42 0.39 0.40 0.31 0.22 0.21 0.21 0.18 0.10 0.03 0.00 0.00 0.00 0.00
0.10 0.17 0.15 0.13 0.15 0.20 0.28 0.32 0.34 0.32 0.32 0.34 0.38 0.36 0.36 0.39 0.31 0.34 0.38 0.39 0.34 0.39 0.36 0.41 0.40 0.31 0.23 0.22 0.16 0.13 0.14 0.10 0.05 0.01 0.00 0.00 0.00 0.00

GFSNE_prec_precacc24_114.txt.gz
Total_Precipitation_Accumulation
0.50 0.51 0.58 0.52 0.51 0.55 0.61 0.74 0.77 0.59 0.26 0.06 0.05 0.06 0.06 0.07 0.10 0.12 0.08 0.08 0.06 0.03 0.02 0.02 0.05 0.02 0.01 0.04 0.09 0.13 0.17 0.28 0.39 0.19 0.01 0.01 0.01 0.01
0.79 0.76 0.77 0.77 0.72 0.63 0.64 0.70 0.80 0.82 0.63 0.19 0.08 0.12 0.18 0.25 0.26 0.23 0.15 0.17 0.10 0.06 0.04 0.02 0.03 0.02 0.01 0.02 0.03 0.05 0.05 0.04 0.05 0.05 0.02 0.02 0.02 0.01
1.03 0.97 0.82 0.84 1.04 1.00 0.91 0.85 0.87 0.96 1.03 0.57 0.34 0.33 0.33 0.30 0.30 0.32 0.27 0.19 0.13 0.12 0.06 0.05 0.04 0.02 0.02 0.02 0.03 0.05 0.05 0.06 0.05 0.04 0.02 0.01 0.01 0.02
0.69 0.82 0.80 0.81 0.79 0.73 0.76 0.80 0.80 0.80 0.93 0.69 0.38 0.38 0.40 0.37 0.40 0.45 0.45 0.38 0.25 0.22 0.14 0.08 0.06 0.05 0.06 0.07 0.07 0.06 0.06 0.05 0.06 0.05 0.03 0.01 0.01 0.03
0.52 0.52 0.47 0.59 0.60 0.67 0.78 0.86 0.86 0.92 1.02 0.97 0.64 0.52 0.48 0.48 0.54 0.54 0.47 0.45 0.36 0.36 0.27 0.17 0.15 0.13 0.10 0.11 0.12 0.10 0.08 0.06 0.04 0.03 0.02 0.00 0.00 0.03
0.17 0.28 0.38 0.52 0.62 0.71 0.73 0.66 0.70 0.83 0.85 0.87 0.66 0.45 0.34 0.31 0.38 0.32 0.29 0.28 0.28 0.30 0.32 0.23 0.21 0.20 0.19 0.16 0.15 0.15 0.12 0.10 0.08 0.03 0.01 0.00 0.00 0.00
0.04 0.06 0.07 0.12 0.17 0.24 0.45 0.56 0.69 0.84 0.93 0.91 0.76 0.57 0.40 0.30 0.23 0.17 0.20 0.19 0.23 0.20 0.16 0.14 0.12 0.11 0.11 0.12 0.11 0.12 0.15 0.15 0.09 0.03 0.01 0.00 0.00 0.00
0.02 0.02 0.04 0.08 0.07 0.09 0.12 0.16 0.21 0.31 0.48 0.59 0.65 0.63 0.54 0.49 0.55 0.58 0.54 0.50 0.39 0.16 0.10 0.07 0.04 0.03 0.03 0.04 0.07 0.08 0.09 0.09 0.05 0.02 0.01 0.00 0.00 0.00
0.00 0.00 0.01 0.01 0.04 0.03 0.06 0.08 0.10 0.16 0.24 0.25 0.26 0.19 0.20 0.23 0.32 0.44 0.47 0.40 0.34 0.22 0.30 0.27 0.15 0.07 0.02 0.05 0.10 0.06 0.06 0.04 0.02 0.01 0.01 0.00 0.00 0.00
0.00 0.00 0.00 0.00 0.00 0.01 0.01 0.02 0.03 0.06 0.13 0.19 0.20 0.26 0.34 0.38 0.47 0.52 0.49 0.45 0.44 0.35 0.31 0.27 0.13 0.11 0.06 0.04 0.07 0.03 0.03 0.02 0.01 0.01 0.00 0.00 0.00 0.00
0.00 0.00 0.00 0.00 0.01 0.02 0.01 0.00 0.01 0.02 0.09 0.15 0.21 0.28 0.31 0.32 0.31 0.34 0.51 0.60 0.59 0.41 0.31 0.30 0.18 0.16 0.14 0.11 0.08 0.07 0.03 0.02 0.00 0.00 0.00 0.00 0.00 0.00
0.00 0.00 0.00 0.00 0.01 0.02 0.02 0.01 0.02 0.01 0.01 0.03 0.04 0.07 0.10 0.16 0.23 0.22 0.23 0.29 0.29 0.31 0.29 0.33 0.30 0.31 0.39 0.25 0.16 0.14 0.09 0.07 0.03 0.01 0.00 0.00 0.00 0.00
0.01 0.00 0.00 0.03 0.03 0.03 0.04 0.02 0.02 0.04 0.04 0.04 0.05 0.07 0.07 0.09 0.11 0.12 0.11 0.17 0.21 0.19 0.20 0.29 0.29 0.34 0.40 0.27 0.16 0.21 0.16 0.10 0.07 0.03 0.01 0.00 0.00 0.00
0.02 0.01 0.01 0.06 0.06 0.06 0.05 0.03 0.06 0.07 0.04 0.04 0.04 0.07 0.10 0.10 0.10 0.10 0.12 0.11 0.11 0.11 0.12 0.19 0.15 0.16 0.19 0.22 0.19 0.17 0.24 0.18 0.15 0.09 0.04 0.02 0.01 0.00
0.03 0.06 0.08 0.11 0.10 0.06 0.06 0.06 0.10 0.07 0.05 0.08 0.10 0.09 0.08 0.08 0.14 0.21 0.23 0.21 0.21 0.18 0.18 0.13 0.12 0.11 0.12 0.18 0.14 0.10 0.21 0.24 0.17 0.13 0.08 0.04 0.01 0.00
0.08 0.14 0.21 0.18 0.16 0.15 0.15 0.11 0.10 0.10 0.12 0.13 0.14 0.14 0.20 0.31 0.33 0.28 0.31 0.33 0.34 0.34 0.24 0.23 0.20 0.12 0.14 0.15 0.12 0.15 0.18 0.21 0.17 0.14 0.11 0.07 0.03 0.01
0.22 0.16 0.20 0.24 0.21 0.15 0.12 0.17 0.19 0.17 0.15 0.14 0.16 0.17 0.20 0.28 0.34 0.40 0.40 0.37 0.39 0.36 0.31 0.25 0.22 0.29 0.24 0.15 0.12 0.13 0.16 0.16 0.12 0.13 0.17 0.16 0.07 0.03
0.27 0.20 0.23 0.16 0.14 0.19 0.24 0.26 0.22 0.25 0.24 0.22 0.18 0.21 0.28 0.30 0.31 0.32 0.37 0.46 0.49 0.40 0.38 0.38 0.32 0.30 0.39 0.38 0.24 0.11 0.10 0.12 0.13 0.11 0.09 0.13 0.13 0.07
0.29 0.12 0.10 0.15 0.22 0.23 0.22 0.33 0.36 0.27 0.37 0.46 0.56 0.53 0.45 0.48 0.50 0.42 0.42 0.46 0.46 0.51 0.56 0.51 0.55 0.50 0.46 0.39 0.34 0.21 0.11 0.07 0.11 0.12 0.10 0.08 0.06 0.05
0.14 0.12 0.11 0.10 0.13 0.29 0.41 0.36 0.40 0.54 0.60 0.62 0.70 0.71 0.71 0.69 0.62 0.50 0.45 0.47 0.46 0.41 0.44 0.57 0.64 0.61 0.55 0.41 0.31 0.31 0.24 0.12 0.10 0.11 0.12 0.10 0.06 0.04
0.07 0.09 0.08 0.12 0.17 0.22 0.33 0.49 0.57 0.52 0.50 0.54 0.56 0.58 0.57 0.62 0.54 0.49 0.49 0.47 0.44 0.46 0.43 0.35 0.36 0.53 0.60 0.50 0.53 0.53 0.50 0.42 0.26 0.14 0.11 0.11 0.11 0.09
0.05 0.08 0.05 0.06 0.13 0.23 0.30 0.40 0.49 0.53 0.52 0.45 0.40 0.41 0.44 0.49 0.44 0.42 0.47 0.49 0.38 0.32 0.40 0.48 0.52 0.51 0.56 0.51 0.42 0.35 0.41 0.51 0.56 0.39 0.20 0.15 0.10 0.05
0.04 0.09 0.10 0.07 0.09 0.17 0.26 0.30 0.33 0.32 0.33 0.34 0.39 0.37 0.37 0.40 0.32 0.38 0.44 0.44 0.39 0.43 0.45 0.54 0.54 0.44 0.33 0.33 0.35 0.36 0.31 0.31 0.35 0.37 0.29 0.15 0.10 0.02

GFSNE_prec_precacc24_120.txt.gz
Total_Precipitation_Accumulation
0.41 0.45 0.52 0.45 0.46 0.53 0.63 0.74 0.85 0.70 0.31 0.08 0.06 0.06 0.06 0.07 0.10 0.13 0.09 0.10 0.08 0.05 0.05 0.08 0.14 0.14 0.16 0.22 0.26 0.31 0.42 0.52 0.62 0.64 0.50 0.36 0.27 0.20
0.61 0.55 0.51 0.49 0.51 0.56 0.63 0.69 0.81 0.85 0.64 0.19 0.09 0.12 0.18 0.25 0.26 0.24 0.15 0.19 0.14 0.12 0.09 0.06 0.06 0.10 0.12 0.13 0.17 0.19 0.21 0.20 0.19 0.19 0.20 0.19 0.16 0.12
0.86 0.88 0.70 0.63 0.81 0.91 0.86 0.85 0.90 1.01 1.09 0.59 0.35 0.35 0.37 0.33 0.33 0.37 0.31 0.23 0.16 0.16 0.10 0.09 0.10 0.12 0.16 0.18 0.18 0.20 0.19 0.17 0.15 0.13 0.12 0.10 0.08 0.10
0.53 0.68 0.72 0.74 0.74 0.68 0.72 0.75 0.77 0.80 0.94 0.70 0.38 0.38 0.42 0.43 0.47 0.53 0.54 0.52 0.46 0.52 0.46 0.33 0.23 0.16 0.15 0.14 0.13 0.14 0.14 0.14 0.13 0.13 0.12 0.11 0.08 0.06
0.47 0.46 0.41 0.52 0.57 0.65 0.76 0.81 0.80 0.92 1.04 0.98 0.64 0.52 0.51 0.53 0.65 0.73 0.69 0.69 0.65 0.76 0.68 0.57 0.56 0.49 0.36 0.29 0.24 0.18 0.13 0.11 0.08 0.07 0.07 0.07 0.05 0.04
0.11 0.21 0.30 0.43 0.47 0.53 0.62 0.63 0.66 0.84 0.88 0.90 0.67 0.45 0.36 0.36 0.50 0.50 0.47 0.45 0.46 0.53 0.59 0.51 0.52 0.49 0.46 0.40 0.36 0.28 0.22 0.20 0.16 0.12 0.10 0.09 0.07 0.05
0.00 0.01 0.03 0.07 0.10 0.14 0.28 0.50 0.69 0.84 0.93 0.91 0.76 0.57 0.40 0.30 0.25 0.23 0.29 0.28 0.32 0.32 0.31 0.32 0.31 0.25 0.22 0.23 0.20 0.23 0.26 0.29 0.30 0.29 0.23 0.16 0.13 0.11
0.00 0.00 0.01 0.04 0.04 0.06 0.08 0.13 0.19 0.31 0.48 0.59 0.65 0.63 0.54 0.49 0.55 0.58 0.55 0.51 0.40 0.19 0.15 0.11 0.12 0.10 0.12 0.14 0.19 0.19 0.17 0.18 0.20 0.23 0.28 0.27 0.24 0.20
0.00 0.00 0.00 0.00 0.01 0.01 0.03 0.04 0.07 0.12 0.19 0.23 0.22 0.17 0.20 0.23 0.32 0.44 0.47 0.40 0.34 0.22 0.30 0.27 0.16 0.07 0.03 0.08 0.15 0.10 0.11 0.12 0.13 0.16 0.25 0.28 0.32 0.33
0.00 0.00 0.00 0.00 0.00 0.00 0.00 0.02 0.03 0.05 0.12 0.19 0.20 0.26 0.34 0.38 0.47 0.52 0.49 0.45 0.44 0.35 0.32 0.28 0.13 0.12 0.06 0.05 0.11 0.07 0.09 0.10 0.11 0.12 0.14 0.18 0.27 0.31
0.00 0.00 0.00 0.00 0.00 0.01 0.01 0.00 0.01 0.02 0.09 0.15 0.21 0.28 0.31 0.32 0.31 0.34 0.51 0.60 0.59 0.41 0.31 0.30 0.18 0.16 0.15 0.11 0.10 0.11 0.06 0.07 0.08 0.09 0.11 0.13 0.15 0.18
0.00 0.00 0.00 0.00 0.01 0.02 0.02 0.01 0.02 0.01 0.01 0.03 0.04 0.07 0.10 0.16 0.23 0.22 0.23 0.30 0.30 0.31 0.29 0.33 0.30 0.31 0.40 0.26 0.16 0.16 0.13 0.14 0.12 0.10 0.08 0.08 0.10 0.07
0.01 0.00 0.00 0.02 0.03 0.04 0.05 0.04 0.05 0.06 0.05 0.04 0.05 0.07 0.07 0.09 0.11 0.12 0.11 0.17 0.21 0.20 0.21 0.30 0.30 0.35 0.42 0.28 0.17 0.23 0.21 0.19 0.19 0.17 0.13 0.12 0.10 0.04
0.01 0.01 0.01 0.04 0.05 0.07 0.07 0.05 0.08 0.09 0.05 0.04 0.04 0.07 0.10 0.10 0.10 0.10 0.12 0.11 0.11 0.11 0.12 0.20 0.16 0.16 0.20 0.23 0.19 0.18 0.28 0.25 0.25 0.23 0.18 0.19 0.11 0.08
0.02 0.03 0.03 0.04 0.06 0.06 0.06 0.06 0.10 0.07 0.05 0.08 0.10 0.09 0.08 0.08 0.14 0.21 0.23 0.21 0.21 0.18 0.18 0.13 0.12 0.11 0.13 0.20 0.16 0.11 0.23 0.28 0.24 0.23 0.22 0.19 0.13 0.07
0.03 0.04 0.06 0.04 0.05 0.08 0.11 0.11 0.10 0.10 0.13 0.13 0.15 0.14 0.20 0.31 0.33 0.28 0.31 0.33 0.34 0.34 0.24 0.23 0.20 0.13 0.14 0.16 0.14 0.17 0.19 0.22 0.19 0.19 0.22 0.27 0.21 0.11
0.07 0.05 0.03 0.02 0.03 0.05 0.08 0.15 0.19 0.17 0.15 0.15 0.17 0.17 0.20 0.28 0.34 0.40 0.40 0.38 0.41 0.36 0.32 0.25 0.22 0.30 0.25 0.16 0.15 0.15 0.18 0.17 0.13 0.16 0.25 0.35 0.30 0.15
0.06 0.06 0.03 0.03 0.04 0.07 0.13 0.15 0.16 0.22 0.23 0.21 0.17 0.21 0.28 0.30 0.31 0.32 0.37 0.47 0.50 0.41 0.39 0.39 0.32 0.31 0.42 0.40 0.28 0.14 0.12 0.15 0.15 0.15 0.16 0.29 0.30 0.20
0.06 0.04 0.05 0.05 0.06 0.09 0.11 0.20 0.23 0.17 0.26 0.36 0.46 0.46 0.44 0.49 0.51 0.42 0.42 0.47 0.46 0.52 0.57 0.51 0.58 0.56 0.55 0.43 0.35 0.23 0.12 0.09 0.13 0.18 0.17 0.17 0.15 0.12
0.04 0.04 0.04 0.04 0.05 0.09 0.13 0.17 0.26 0.35 0.38 0.41 0.54 0.62 0.67 0.68 0.62 0.50 0.45 0.48 0.48 0.43 0.45 0.57 0.66 0.64 0.63 0.45 0.33 0.32 0.25 0.14 0.11 0.14 0.19 0.22 0.20 0.21
0.02 0.03 0.02 0.03 0.04 0.05 0.10 0.19 0.26 0.27 0.31 0.38 0.45 0.50 0.53 0.59 0.54 0.49 0.49 0.48 0.46 0.50 0.47 0.36 0.36 0.55 0.70 0.64 0.73 0.61 0.51 0.45 0.30 0.17 0.15 0.22 0.31 0.35
0.01 0.02 0.02 0.03 0.04 0.05 0.06 0.12 0.19 0.25 0.25 0.26 0.30 0.37 0.42 0.49 0.45 0.43 0.47 0.50 0.40 0.35 0.44 0.50 0.54 0.58 0.68 0.64 0.49 0.38 0.43 0.55 0.64 0.54 0.33 0.25 0.28 0.26
0.01 0.02 0.02 0.02 0.03 0.04 0.07 0.10 0.14 0.15 0.21 0.24 0.30 0.33 0.37 0.41 0.33 0.39 0.45 0.47 0.42 0.48 0.48 0.60 0.62 0.54 0.44 0.41 0.42 0.43 0.40 0.40 0.47 0.56 0.54 0.40 0.26 0.14

GFSNE_prec_precacc24_123.txt.gz
Total_Precipitation_Accumulation
0.48 0.57 0.64 0.54 0.47 0.51 0.60 0.71 0.83 0.69 0.30 0.06 0.05 0.04 0.04 0.05 0.10 0.13 0.09 0.10 0.08 0.05 0.05 0.08 0.14 0.14 0.16 0.22 0.28 0.34 0.48 0.62 0.76 0.80 0.73 0.66 0.55 0.42
0.52 0.48 0.45 0.43 0.43 0.45 0.50 0.58 0.67 0.72 0.54 0.14 0.05 0.08 0.14 0.24 0.27 0.24 0.15 0.19 0.14 0.12 0.09 0.06 0.06 0.10 0.12 0.13 0.17 0.19 0.22 0.24 0.26 0.31 0.36 0.37 0.31 0.25
0.72 0.79 0.67 0.59 0.64 0.64 0.65 0.68 0.75 0.85 0.94 0.46 0.26 0.29 0.34 0.32 0.33 0.37 0.31 0.23 0.16 0.16 0.10 0.09 0.10 0.13 0.16 0.20 0.21 0.21 0.19 0.17 0.17 0.19 0.20 0.22 0.22 0.20
0.42 0.51 0.57 0.65 0.70 0.63 0.66 0.70 0.75 0.78 0.90 0.67 0.34 0.34 0.39 0.41 0.47 0.53 0.54 0.52 0.46 0.52 0.46 0.33 0.23 0.16 0.16 0.17 0.17 0.18 0.17 0.17 0.17 0.18 0.17 0.19 0.18 0.16
0.43 0.43 0.36 0.44 0.50 0.61 0.73 0.79 0.79 0.85 0.96 0.94 0.63 0.52 0.51 0.53 0.65 0.73 0.69 0.69 0.65 0.76 0.68 0.57 0.56 0.51 0.40 0.34 0.30 0.23 0.16 0.12 0.11 0.12 0.16 0.18 0.14 0.13
0.07 0.17 0.27 0.40 0.43 0.48 0.55 0.53 0.58 0.67 0.68 0.72 0.59 0.44 0.36 0.36 0.50 0.50 0.47 0.45 0.46 0.53 0.59 0.51 0.52 0.51 0.48 0.45 0.43 0.43 0.40 0.34 0.26 0.17 0.15 0.17 0.19 0.15
0.00 0.00 0.00 0.02 0.06 0.10 0.17 0.23 0.39 0.55 0.66 0.68 0.66 0.53 0.40 0.30 0.25 0.23 0.29 0.28 0.32 0.32 0.31 0.32 0.31 0.26 0.23 0.26 0.25 0.32 0.38 0.44 0.49 0.48 0.35 0.22 0.19 0.17
0.00 0.00 0.00 0.00 0.01 0.02 0.06 0.07 0.07 0.13 0.30 0.46 0.57 0.62 0.54 0.49 0.55 0.58 0.55 0.51 0.41 0.19 0.15 0.11 0.12 0.11 0.13 0.19 0.30 0.31 0.28 0.28 0.30 0.35 0.39 0.37 0.34 0.27
0.00 0.00 0.00 0.00 0.00 0.00 0.01 0.02 0.04 0.07 0.11 0.10 0.13 0.15 0.16 0.22 0.31 0.44 0.47 0.40 0.34 0.22 0.30 0.27 0.16 0.07 0.04 0.12 0.23 0.21 0.24 0.24 0.24 0.25 0.32 0.32 0.36 0.39
0.00 0.00 0.00 0.00 0.00 0.00 0.00 0.00 0.00 0.01 0.03 0.06 0.06 0.13 0.20 0.25 0.37 0.47 0.47 0.45 0.44 0.35 0.32 0.28 0.13 0.12 0.06 0.05 0.12 0.09 0.16 0.19 0.21 0.22 0.22 0.22 0.29 0.34
0.00 0.00 0.00 0.00 0.00 0.00 0.00 0.00 0.00 0.01 0.03 0.07 0.09 0.20 0.26 0.29 0.29 0.34 0.51 0.60 0.59 0.41 0.31 0.30 0.18 0.16 0.15 0.11 0.10 0.12 0.07 0.09 0.12 0.16 0.16 0.15 0.16 0.20
0.00 0.00 0.00 0.00 0.01 0.01 0.02 0.01 0.02 0.01 0.00 0.02 0.04 0.07 0.10 0.15 0.23 0.22 0.23 0.30 0.30 0.31 0.29 0.33 0.30 0.31 0.41 0.26 0.16 0.16 0.13 0.14 0.13 0.11 0.11 0.10 0.12 0.10
0.01 0.00 0.00 0.01 0.02 0.03 0.05 0.04 0.05 0.05 0.05 0.05 0.06 0.07 0.07 0.09 0.11 0.12 0.11 0.17 0.21 0.20 0.21 0.30 0.30 0.35 0.42 0.29 0.17 0.23 0.21 0.19 0.19 0.18 0.16 0.17 0.16 0.09
0.00 0.00 0.01 0.02 0.03 0.04 0.04 0.04 0.07 0.08 0.04 0.04 0.04 0.07 0.10 0.10 0.10 0.10 0.12 0.11 0.11 0.11 0.12 0.20 0.16 0.16 0.20 0.23 0.20 0.18 0.28 0.25 0.25 0.23 0.18 0.25 0.19 0.19
0.01 0.01 0.02 0.03 0.03 0.02 0.02 0.03 0.07 0.06 0.05 0.08 0.10 0.09 0.08 0.08 0.14 0.21 0.23 0.21 0.21 0.18 0.18 0.13 0.12 0.11 0.14 0.21 0.16 0.11 0.23 0.28 0.24 0.23 0.22 0.21 0.17 0.11
0.02 0.02 0.04 0.03 0.02 0.01 0.02 0.03 0.06 0.08 0.12 0.14 0.16 0.15 0.21 0.31 0.33 0.28 0.31 0.33 0.34 0.34 0.24 0.23 0.20 0.13 0.15 0.16 0.15 0.17 0.19 0.22 0.19 0.19 0.23 0.28 0.25 0.16
0.07 0.05 0.02 0.02 0.01 0.01 0.02 0.04 0.07 0.11 0.13 0.14 0.17 0.17 0.20 0.28 0.34 0.40 0.40 0.38 0.41 0.36 0.32 0.25 0.22 0.30 0.25 0.17 0.16 0.15 0.18 0.17 0.13 0.16 0.26 0.36 0.33 0.20
0.06 0.05 0.03 0.02 0.03 0.03 0.05 0.07 0.08 0.11 0.12 0.16 0.14 0.19 0.27 0.30 0.31 0.32 0.37 0.47 0.50 0.41 0.39 0.39 0.32 0.31 0.42 0.40 0.28 0.14 0.12 0.15 0.15 0.15 0.16 0.29 0.30 0.22
0.05 0.03 0.04 0.03 0.03 0.05 0.07 0.09 0.10 0.09 0.13 0.18 0.29 0.31 0.34 0.45 0.50 0.43 0.42 0.47 0.47 0.52 0.57 0.51 0.58 0.57 0.56 0.44 0.35 0.23 0.12 0.09 0.13 0.18 0.17 0.17 0.16 0.12
0.03 0.04 0.04 0.03 0.02 0.02 0.04 0.08 0.14 0.16 0.17 0.21 0.29 0.34 0.44 0.47 0.47 0.46 0.45 0.49 0.48 0.44 0.45 0.58 0.67 0.65 0.64 0.46 0.34 0.32 0.25 0.14 0.12 0.14 0.20 0.22 0.20 0.22
0.02 0.02 0.02 0.01 0.02 0.02 0.04 0.08 0.16 0.19 0.20 0.21 0.23 0.28 0.32 0.43 0.40 0.38 0.45 0.47 0.47 0.51 0.48 0.36 0.36 0.55 0.71 0.68 0.78 0.61 0.51 0.46 0.30 0.18 0.16 0.24 0.33 0.36
0.01 0.02 0.01 0.02 0.02 0.03 0.04 0.07 0.11 0.17 0.19 0.18 0.17 0.21 0.26 0.36 0.38 0.37 0.41 0.47 0.39 0.35 0.44 0.50 0.54 0.58 0.69 0.67 0.51 0.39 0.43 0.55 0.64 0.54 0.34 0.28 0.33 0.30
0.01 0.01 0.02 0.02 0.03 0.04 0.05 0.06 0.09 0.09 0.14 0.18 0.22 0.25 0.27 0.31 0.28 0.36 0.43 0.46 0.41 0.47 0.48 0.60 0.62 0.54 0.45 0.42 0.44 0.45 0.40 0.40 0.47 0.56 0.54 0.42 0.30 0.16

GFSNE_prec_precacc24_126.txt.gz
Total_Precipitation_Accumulation
0.42 0.47 0.56 0.56 0.56 0.60 0.72 0.86 0.94 0.77 0.36 0.12 0.09 0.04 0.04 0.04 0.07 0.10 0.08 0.09 0.08 0.05 0.06 0.09 0.14 0.14 0.16 0.22 0.28 0.34 0.49 0.63 0.80 0.87 0.82 0.76 0.66 0.56
0.41 0.38 0.37 0.37 0.38 0.41 0.46 0.54 0.67 0.73 0.52 0.12 0.05 0.06 0.09 0.13 0.13 0.15 0.12 0.19 0.14 0.12 0.09 0.06 0.06 0.10 0.12 0.13 0.17 0.19 0.22 0.24 0.26 0.32 0.38 0.42 0.40 0.36
0.50 0.57 0.49 0.46 0.49 0.53 0.57 0.61 0.62 0.66 0.72 0.28 0.16 0.18 0.21 0.18 0.21 0.30 0.29 0.22 0.15 0.16 0.10 0.09 0.10 0.13 0.16 0.20 0.21 0.21 0.20 0.18 0.17 0.19 0.21 0.24 0.27 0.31
0.24 0.33 0.37 0.43 0.47 0.48 0.56 0.62 0.66 0.65 0.72 0.51 0.20 0.19 0.23 0.23 0.27 0.40 0.47 0.48 0.46 0.52 0.46 0.33 0.23 0.17 0.16 0.17 0.17 0.18 0.18 0.19 0.19 0.18 0.18 0.19 0.19 0.19
0.15 0.22 0.25 0.31 0.34 0.40 0.57 0.68 0.72 0.79 0.90 0.89 0.56 0.47 0.46 0.45 0.56 0.65 0.64 0.66 0.64 0.76 0.68 0.57 0.56 0.51 0.40 0.34 0.30 0.23 0.16 0.13 0.13 0.16 0.20 0.20 0.15 0.14
0.00 0.02 0.06 0.15 0.26 0.37 0.43 0.41 0.46 0.56 0.61 0.67 0.54 0.37 0.32 0.33 0.48 0.47 0.45 0.45 0.46 0.53 0.59 0.51 0.52 0.51 0.48 0.45 0.44 0.43 0.40 0.36 0.28 0.19 0.17 0.19 0.21 0.18
0.00 0.00 0.00 0.00 0.00 0.03 0.12 0.18 0.25 0.33 0.43 0.48 0.39 0.26 0.18 0.15 0.16 0.20 0.26 0.25 0.31 0.32 0.31 0.32 0.31 0.26 0.23 0.26 0.25 0.32 0.39 0.46 0.52 0.53 0.45 0.32 0.25 0.21
0.00 0.00 0.00 0.00 0.00 0.00 0.00 0.01 0.02 0.05 0.09 0.16 0.24 0.27 0.25 0.26 0.35 0.44 0.46 0.46 0.40 0.19 0.15 0.11 0.12 0.11 0.13 0.19 0.30 0.33 0.30 0.31 0.34 0.40 0.49 0.48 0.46 0.42
0.00 0.00 0.00 0.00 0.00 0.00 0.00 0.00 0.00 0.02 0.05 0.06 0.07 0.06 0.08 0.12 0.19 0.32 0.41 0.39 0.34 0.22 0.30 0.28 0.16 0.07 0.04 0.12 0.23 0.22 0.28 0.30 0.32 0.34 0.44 0.49 0.55 0.57
0.00 0.00 0.00 0.00 0.00 0.00 0.00 0.00 0.00 0.00 0.01 0.03 0.03 0.04 0.05 0.07 0.17 0.27 0.31 0.36 0.42 0.35 0.32 0.28 0.13 0.12 0.06 0.05 0.12 0.10 0.17 0.22 0.27 0.31 0.33 0.36 0.43 0.48
0.00 0.00 0.00 0.00 0.00 0.00 0.00 0.00 0.00 0.00 0.00 0.01 0.03 0.08 0.11 0.10 0.10 0.16 0.33 0.48 0.50 0.37 0.31 0.30 0.18 0.16 0.15 0.11 0.10 0.12 0.07 0.09 0.13 0.19 0.26 0.29 0.31 0.35
0.00 0.00 0.00 0.00 0.00 0.01 0.02 0.01 0.01 0.00 0.00 0.01 0.02 0.03 0.02 0.04 0.08 0.09 0.11 0.19 0.24 0.31 0.29 0.33 0.30 0.31 0.41 0.26 0.16 0.16 0.13 0.14 0.13 0.12 0.13 0.18 0.29 0.25
0.00 0.00 0.00 0.00 0.01 0.02 0.04 0.04 0.05 0.04 0.03 0.03 0.03 0.04 0.05 0.07 0.06 0.08 0.07 0.14 0.20 0.20 0.21 0.30 0.30 0.35 0.42 0.29 0.17 0.23 0.21 0.19 0.19 0.18 0.16 0.18 0.23 0.22
0.00 0.00 0.00 0.00 0.02 0.04 0.04 0.03 0.05 0.06 0.02 0.01 0.01 0.04 0.08 0.08 0.09 0.10 0.12 0.11 0.11 0.11 0.12 0.20 0.16 0.16 0.20 0.24 0.20 0.18 0.28 0.25 0.25 0.23 0.18 0.26 0.21 0.25
0.01 0.01 0.02 0.02 0.03 0.02 0.01 0.01 0.03 0.03 0.02 0.04 0.05 0.04 0.05 0.07 0.13 0.21 0.23 0.21 0.21 0.18 0.18 0.13 0.12 0.11 0.14 0.22 0.17 0.11 0.23 0.28 0.24 0.23 0.22 0.21 0.17 0.13
0.02 0.03 0.04 0.03 0.02 0.00 0.00 0.00 0.02 0.04 0.07 0.08 0.10 0.13 0.14 0.19 0.26 0.27 0.31 0.33 0.34 0.34 0.24 0.23 0.20 0.13 0.15 0.16 0.16 0.18 0.19 0.22 0.19 0.19 0.23 0.28 0.25 0.17
0.07 0.05 0.02 0.01 0.01 0.00 0.00 0.01 0.02 0.05 0.08 0.06 0.09 0.11 0.18 0.25 0.30 0.36 0.37 0.37 0.41 0.37 0.32 0.25 0.22 0.30 0.25 0.17 0.17 0.16 0.18 0.17 0.13 0.16 0.26 0.36 0.33 0.20
0.06 0.05 0.03 0.02 0.02 0.02 0.02 0.02 0.02 0.04 0.06 0.08 0.09 0.11 0.17 0.25 0.30 0.31 0.37 0.47 0.51 0.41 0.39 0.39 0.33 0.32 0.42 0.40 0.28 0.14 0.12 0.15 0.15 0.15 0.16 0.29 0.30 0.23
0.05 0.03 0.03 0.03 0.03 0.03 0.03 0.02 0.02 0.02 0.06 0.10 0.13 0.15 0.20 0.30 0.42 0.39 0.40 0.46 0.47 0.52 0.57 0.52 0.58 0.57 0.58 0.44 0.35 0.23 0.12 0.09 0.13 0.18 0.17 0.17 0.16 0.12
0.03 0.04 0.03 0.02 0.02 0.02 0.02 0.02 0.03 0.04 0.06 0.10 0.16 0.18 0.21 0.27 0.31 0.32 0.37 0.46 0.48 0.44 0.45 0.58 0.67 0.65 0.65 0.46 0.34 0.32 0.25 0.14 0.12 0.14 0.20 0.23 0.20 0.22
0.02 0.02 0.01 0.01 0.01 0.01 0.02 0.03 0.04 0.06 0.09 0.13 0.13 0.16 0.18 0.27 0.26 0.25 0.31 0.37 0.42 0.51 0.49 0.36 0.37 0.56 0.72 0.71 0.81 0.61 0.51 0.46 0.30 0.18 0.16 0.25 0.34 0.36
0.01 0.01 0.01 0.01 0.02 0.02 0.03 0.04 0.05 0.04 0.05 0.08 0.10 0.13 0.16 0.25 0.28 0.29 0.31 0.36 0.31 0.32 0.44 0.49 0.53 0.58 0.69 0.69 0.52 0.39 0.43 0.55 0.64 0.54 0.34 0.29 0.34 0.33
0.01 0.01 0.02 0.02 0.02 0.03 0.05 0.06 0.05 0.04 0.04 0.08 0.13 0.16 0.18 0.21 0.18 0.27 0.33 0.37 0.33 0.37 0.42 0.56 0.61 0.54 0.45 0.43 0.46 0.46 0.40 0.40 0.47 0.56 0.54 0.42 0.30 0.17

GFSNE_prec_precacc24_132.txt.gz
Total_Precipitation_Accumulation
0.23 0.28 0.34 0.37 0.39 0.41 0.50 0.63 0.74 0.68 0.54 0.47 0.49 0.47 0.44 0.42 0.40 0.38 0.38 0.35 0.32 0.30 0.26 0.20 0.23 0.18 0.17 0.22 0.29 0.35 0.49 0.63 0.80 0.88 0.82 0.80 0.76 0.72
0.05 0.10 0.15 0.23 0.22 0.22 0.24 0.29 0.40 0.48 0.43 0.25 0.26 0.24 0.20 0.20 0.20 0.20 0.18 0.23 0.24 0.21 0.19 0.17 0.13 0.12 0.12 0.13 0.17 0.20 0.23 0.24 0.27 0.32 0.38 0.43 0.43 0.42
0.01 0.01 0.01 0.03 0.07 0.21 0.31 0.35 0.37 0.44 0.50 0.23 0.18 0.20 0.22 0.19 0.17 0.18 0.14 0.11 0.08 0.10 0.09 0.09 0.10 0.12 0.16 0.20 0.21 0.22 0.20 0.18 0.18 0.19 0.21 0.25 0.30 0.34
0.00 0.01 0.01 0.03 0.04 0.08 0.17 0.27 0.35 0.40 0.47 0.31 0.15 0.16 0.19 0.18 0.20 0.25 0.26 0.28 0.29 0.34 0.35 0.27 0.20 0.15 0.15 0.17 0.17 0.18 0.18 0.19 0.19 0.19 0.18 0.19 0.19 0.22
0.00 0.00 0.01 0.01 0.02 0.05 0.09 0.14 0.21 0.32 0.41 0.43 0.31 0.34 0.37 0.36 0.42 0.45 0.41 0.39 0.40 0.48 0.51 0.48 0.51 0.48 0.39 0.33 0.29 0.23 0.16 0.13 0.13 0.16 0.20 0.21 0.16 0.14
0.00 0.00 0.00 0.00 0.00 0.00 0.01 0.03 0.06 0.09 0.15 0.22 0.22 0.18 0.18 0.20 0.33 0.35 0.30 0.29 0.27 0.31 0.43 0.42 0.45 0.47 0.47 0.44 0.44 0.43 0.40 0.36 0.28 0.19 0.17 0.20 0.22 0.22
0.00 0.00 0.00 0.00 0.00 0.00 0.00 0.00 0.00 0.00 0.00 0.01 0.01 0.02 0.02 0.04 0.08 0.13 0.17 0.13 0.12 0.16 0.20 0.24 0.28 0.24 0.22 0.25 0.25 0.32 0.39 0.46 0.52 0.53 0.45 0.32 0.25 0.22
0.00 0.00 0.00 0.00 0.00 0.00 0.00 0.00 0.00 0.00 0.00 0.00 0.01 0.02 0.01 0.02 0.02 0.03 0.04 0.04 0.04 0.05 0.06 0.05 0.10 0.10 0.13 0.18 0.30 0.32 0.30 0.32 0.34 0.41 0.49 0.48 0.46 0.43
0.00 0.00 0.00 0.00 0.00 0.00 0.00 0.00 0.00 0.00 0.00 0.00 0.00 0.01 0.01 0.01 0.02 0.04 0.04 0.04 0.02 0.01 0.03 0.04 0.02 0.03 0.03 0.12 0.23 0.22 0.28 0.31 0.32 0.34 0.44 0.49 0.56 0.60
0.00 0.00 0.00 0.00 0.00 0.00 0.00 0.00 0.00 0.00 0.00 0.00 0.00 0.00 0.01 0.01 0.03 0.05 0.05 0.07 0.10 0.09 0.08 0.09 0.03 0.04 0.02 0.03 0.11 0.09 0.16 0.22 0.27 0.31 0.33 0.36 0.45 0.53
0.00 0.00 0.00 0.00 0.00 0.00 0.00 0.00 0.00 0.00 0.00 0.00 0.00 0.01 0.02 0.02 0.02 0.04 0.04 0.06 0.09 0.06 0.05 0.12 0.06 0.06 0.07 0.06 0.09 0.12 0.07 0.09 0.13 0.19 0.26 0.29 0.32 0.36
0.00 0.00 0.00 0.00 0.00 0.00 0.01 0.01 0.01 0.00 0.00 0.00 0.00 0.00 0.00 0.00 0.00 0.01 0.02 0.04 0.05 0.08 0.06 0.10 0.10 0.11 0.23 0.17 0.14 0.16 0.12 0.14 0.13 0.12 0.13 0.18 0.29 0.26
0.00 0.00 0.00 0.00 0.01 0.02 0.04 0.04 0.04 0.03 0.03 0.02 0.01 0.00 0.00 0.00 0.00 0.00 0.01 0.04 0.05 0.06 0.06 0.10 0.13 0.18 0.29 0.23 0.13 0.21 0.21 0.19 0.19 0.18 0.16 0.18 0.23 0.23
0.00 0.00 0.00 0.00 0.03 0.05 0.04 0.03 0.03 0.03 0.00 0.00 0.00 0.00 0.00 0.00 0.00 0.00 0.00 0.01 0.04 0.06 0.07 0.13 0.11 0.08 0.13 0.20 0.15 0.14 0.28 0.25 0.25 0.23 0.18 0.26 0.21 0.25
0.01 0.01 0.02 0.03 0.03 0.02 0.01 0.00 0.01 0.00 0.00 0.01 0.01 0.01 0.00 0.00 0.00 0.00 0.00 0.02 0.03 0.07 0.09 0.08 0.09 0.08 0.11 0.20 0.16 0.10 0.23 0.28 0.24 0.23 0.22 0.21 0.17 0.13
0.01 0.02 0.03 0.03 0.02 0.00 0.00 0.00 0.00 0.00 0.01 0.03 0.03 0.02 0.01 0.00 0.01 0.00 0.02 0.03 0.05 0.06 0.07 0.12 0.11 0.09 0.14 0.16 0.17 0.19 0.19 0.23 0.19 0.19 0.23 0.28 0.25 0.17
0.04 0.03 0.01 0.01 0.01 0.00 0.00 0.00 0.00 0.00 0.01 0.01 0.01 0.01 0.00 0.00 0.00 0.00 0.02 0.04 0.09 0.08 0.06 0.09 0.15 0.21 0.19 0.15 0.18 0.16 0.18 0.17 0.13 0.16 0.26 0.36 0.33 0.20
0.04 0.02 0.01 0.01 0.01 0.01 0.01 0.01 0.00 0.00 0.00 0.00 0.00 0.01 0.02 0.03 0.03 0.03 0.06 0.11 0.11 0.08 0.13 0.13 0.17 0.27 0.36 0.33 0.27 0.14 0.12 0.15 0.15 0.15 0.16 0.30 0.31 0.23
0.03 0.02 0.03 0.03 0.02 0.02 0.01 0.01 0.00 0.00 0.00 0.01 0.02 0.02 0.03 0.05 0.07 0.06 0.08 0.11 0.15 0.10 0.10 0.20 0.30 0.37 0.50 0.41 0.34 0.23 0.12 0.09 0.14 0.18 0.17 0.18 0.16 0.12
0.02 0.03 0.03 0.02 0.01 0.00 0.00 0.01 0.01 0.01 0.01 0.01 0.02 0.03 0.04 0.09 0.10 0.09 0.11 0.20 0.20 0.16 0.15 0.17 0.32 0.42 0.47 0.34 0.33 0.32 0.25 0.14 0.12 0.15 0.20 0.23 0.21 0.22
0.01 0.01 0.01 0.00 0.00 0.00 0.01 0.01 0.02 0.02 0.02 0.04 0.04 0.03 0.04 0.10 0.11 0.09 0.13 0.16 0.26 0.29 0.24 0.17 0.18 0.32 0.56 0.66 0.78 0.60 0.51 0.46 0.30 0.18 0.16 0.26 0.34 0.37
0.00 0.01 0.01 0.01 0.01 0.01 0.02 0.03 0.04 0.02 0.02 0.02 0.02 0.03 0.04 0.10 0.14 0.13 0.13 0.17 0.15 0.18 0.28 0.27 0.30 0.38 0.52 0.62 0.51 0.38 0.43 0.55 0.64 0.54 0.34 0.30 0.36 0.34
0.00 0.00 0.01 0.01 0.02 0.03 0.04 0.05 0.04 0.03 0.02 0.04 0.04 0.04 0.07 0.10 0.08 0.13 0.14 0.14 0.16 0.19 0.24 0.34 0.40 0.43 0.39 0.34 0.42 0.44 0.38 0.39 0.47 0.56 0.54 0.42 0.30 0.17

GFSNE_prec_precacc24_135.txt.gz
Total_Precipitation_Accumulation
0.18 0.21 0.24 0.27 0.30 0.34 0.44 0.56 0.64 0.58 0.47 0.46 0.48 0.46 0.44 0.42 0.39 0.38 0.38 0.35 0.32 0.33 0.34 0.38 0.50 0.46 0.40 0.36 0.39 0.43 0.51 0.64 0.81 0.89 0.84 0.84 0.83 0.82
0.02 0.04 0.06 0.07 0.07 0.09 0.15 0.18 0.24 0.30 0.26 0.21 0.25 0.22 0.18 0.18 0.20 0.20 0.18 0.23 0.25 0.23 0.25 0.26 0.23 0.26 0.29 0.31 0.29 0.26 0.28 0.29 0.29 0.33 0.39 0.44 0.44 0.44
0.00 0.00 0.01 0.01 0.01 0.02 0.03 0.06 0.10 0.21 0.28 0.16 0.17 0.18 0.19 0.17 0.15 0.16 0.13 0.11 0.08 0.10 0.11 0.11 0.14 0.17 0.22 0.25 0.23 0.23 0.21 0.18 0.18 0.20 0.21 0.25 0.30 0.35
0.00 0.00 0.00 0.00 0.01 0.01 0.01 0.02 0.04 0.10 0.18 0.13 0.06 0.09 0.13 0.14 0.16 0.20 0.23 0.27 0.29 0.33 0.34 0.26 0.18 0.12 0.10 0.10 0.13 0.15 0.16 0.17 0.19 0.19 0.18 0.19 0.19 0.22
0.00 0.00 0.01 0.01 0.01 0.02 0.02 0.03 0.04 0.06 0.11 0.16 0.14 0.20 0.29 0.32 0.37 0.40 0.38 0.37 0.39 0.46 0.48 0.44 0.45 0.40 0.30 0.24 0.21 0.18 0.13 0.12 0.13 0.16 0.20 0.21 0.16 0.14
0.00 0.00 0.00 0.00 0.00 0.00 0.00 0.01 0.01 0.03 0.05 0.07 0.08 0.08 0.13 0.17 0.28 0.29 0.27 0.27 0.25 0.28 0.34 0.32 0.33 0.33 0.33 0.33 0.35 0.36 0.37 0.35 0.28 0.20 0.17 0.20 0.22 0.22
0.00 0.00 0.00 0.00 0.00 0.00 0.00 0.00 0.00 0.00 0.00 0.00 0.00 0.00 0.00 0.02 0.05 0.09 0.12 0.10 0.10 0.13 0.16 0.18 0.20 0.16 0.14 0.18 0.20 0.29 0.37 0.45 0.52 0.53 0.45 0.32 0.25 0.22
0.00 0.00 0.00 0.00 0.00 0.00 0.00 0.00 0.00 0.00 0.00 0.00 0.00 0.00 0.00 0.01 0.00 0.01 0.01 0.01 0.02 0.03 0.04 0.04 0.08 0.08 0.12 0.17 0.28 0.31 0.29 0.31 0.34 0.41 0.49 0.48 0.46 0.43
0.00 0.00 0.00 0.00 0.00 0.00 0.00 0.00 0.00 0.00 0.00 0.00 0.00 0.00 0.00 0.00 0.01 0.01 0.01 0.02 0.02 0.00 0.01 0.01 0.01 0.01 0.02 0.11 0.22 0.21 0.28 0.31 0.32 0.34 0.44 0.49 0.56 0.60
0.00 0.00 0.00 0.00 0.00 0.00 0.00 0.00 0.00 0.00 0.00 0.00 0.00 0.00 0.00 0.00 0.01 0.02 0.03 0.02 0.01 0.00 0.01 0.03 0.02 0.01 0.01 0.01 0.08 0.09 0.16 0.22 0.27 0.31 0.33 0.36 0.45 0.53
0.00 0.00 0.00 0.00 0.00 0.00 0.00 0.00 0.00 0.00 0.00 0.00 0.00 0.01 0.02 0.03 0.02 0.03 0.02 0.02 0.02 0.00 0.00 0.02 0.02 0.03 0.03 0.02 0.03 0.06 0.05 0.09 0.13 0.19 0.26 0.29 0.32 0.36
0.00 0.00 0.00 0.00 0.00 0.00 0.01 0.01 0.01 0.00 0.00 0.00 0.00 0.00 0.00 0.00 0.00 0.00 0.01 0.02 0.02 0.03 0.00 0.01 0.02 0.05 0.11 0.07 0.05 0.07 0.07 0.11 0.12 0.12 0.13 0.18 0.29 0.26
0.00 0.00 0.00 0.00 0.01 0.02 0.04 0.04 0.04 0.03 0.03 0.02 0.01 0.00 0.00 0.00 0.00 0.00 0.00 0.01 0.01 0.03 0.04 0.04 0.02 0.04 0.11 0.11 0.07 0.12 0.14 0.16 0.17 0.17 0.16 0.18 0.23 0.23
0.00 0.00 0.00 0.00 0.03 0.05 0.04 0.03 0.03 0.03 0.00 0.00 0.00 0.00 0.00 0.00 0.00 0.00 0.00 0.00 0.01 0.02 0.04 0.06 0.04 0.02 0.05 0.11 0.11 0.10 0.19 0.20 0.21 0.22 0.18 0.26 0.21 0.25
0.01 0.01 0.02 0.02 0.03 0.02 0.01 0.00 0.01 0.00 0.00 0.00 0.00 0.00 0.00 0.00 0.00 0.00 0.00 0.00 0.00 0.00 0.01 0.03 0.04 0.03 0.06 0.12 0.10 0.07 0.16 0.19 0.17 0.20 0.22 0.21 0.17 0.13
0.00 0.01 0.03 0.03 0.01 0.00 0.00 0.00 0.00 0.00 0.01 0.02 0.02 0.01 0.00 0.00 0.00 0.00 0.01 0.00 0.01 0.00 0.00 0.01 0.03 0.05 0.07 0.08 0.11 0.10 0.09 0.16 0.13 0.12 0.20 0.28 0.25 0.17
0.03 0.02 0.00 0.00 0.00 0.00 0.00 0.00 0.00 0.00 0.00 0.00 0.01 0.00 0.00 0.00 0.00 0.00 0.01 0.02 0.05 0.02 0.01 0.00 0.02 0.04 0.08 0.09 0.12 0.09 0.10 0.11 0.07 0.11 0.24 0.36 0.33 0.20
0.03 0.01 0.00 0.00 0.01 0.01 0.01 0.01 0.00 0.00 0.00 0.00 0.00 0.00 0.00 0.01 0.01 0.01 0.02 0.04 0.06 0.03 0.02 0.01 0.03 0.08 0.12 0.12 0.13 0.07 0.06 0.09 0.11 0.13 0.16 0.30 0.31 0.23
0.01 0.01 0.02 0.02 0.02 0.02 0.01 0.00 0.00 0.00 0.00 0.00 0.01 0.01 0.01 0.02 0.03 0.03 0.02 0.04 0.05 0.03 0.03 0.03 0.07 0.14 0.25 0.17 0.08 0.07 0.04 0.06 0.11 0.16 0.17 0.18 0.16 0.12
0.01 0.02 0.01 0.01 0.01 0.00 0.00 0.00 0.01 0.00 0.00 0.01 0.01 0.02 0.02 0.03 0.04 0.04 0.06 0.09 0.09 0.06 0.05 0.04 0.07 0.13 0.22 0.10 0.08 0.10 0.09 0.05 0.10 0.14 0.20 0.23 0.21 0.22
0.00 0.00 0.00 0.00 0.00 0.00 0.00 0.01 0.01 0.01 0.02 0.04 0.03 0.03 0.03 0.07 0.06 0.04 0.08 0.09 0.14 0.16 0.13 0.05 0.03 0.10 0.32 0.47 0.45 0.19 0.22 0.26 0.21 0.17 0.16 0.26 0.35 0.37
0.00 0.00 0.00 0.00 0.00 0.01 0.02 0.03 0.03 0.02 0.01 0.01 0.01 0.03 0.03 0.07 0.09 0.08 0.09 0.12 0.09 0.10 0.15 0.12 0.12 0.19 0.31 0.42 0.32 0.17 0.22 0.37 0.53 0.51 0.34 0.30 0.36 0.34
0.00 0.00 0.00 0.00 0.01 0.02 0.03 0.05 0.04 0.02 0.02 0.03 0.04 0.04 0.06 0.09 0.05 0.10 0.11 0.11 0.12 0.13 0.15 0.21 0.22 0.26 0.24 0.23 0.31 0.33 0.26 0.30 0.41 0.55 0.54 0.42 0.30 0.17

GFSNE_prec_precacc24_138.txt.gz
Total_Precipitation_Accumulation
0.16 0.19 0.21 0.23 0.21 0.19 0.23 0.27 0.38 0.44 0.42 0.45 0.48 0.46 0.44 0.42 0.38 0.35 0.36 0.34 0.32 0.33 0.36 0.40 0.49 0.49 0.48 0.47 0.50 0.50 0.52 0.52 0.59 0.83 1.05 1.13 1.04 1.20
0.01 0.02 0.05 0.06 0.05 0.05 0.07 0.08 0.12 0.16 0.16 0.18 0.23 0.20 0.16 0.15 0.16 0.16 0.16 0.21 0.23 0.22 0.24 0.26 0.22 0.25 0.30 0.33 0.34 0.33 0.39 0.39 0.38 0.38 0.43 0.51 0.53 0.50
0.00 0.00 0.00 0.00 0.00 0.01 0.01 0.03 0.05 0.06 0.07 0.04 0.05 0.05 0.07 0.07 0.07 0.07 0.06 0.06 0.06 0.07 0.09 0.09 0.12 0.17 0.22 0.25 0.25 0.25 0.24 0.21 0.22 0.23 0.24 0.28 0.35 0.42
0.00 0.00 0.00 0.00 0.00 0.00 0.00 0.01 0.01 0.02 0.03 0.01 0.00 0.01 0.02 0.06 0.07 0.09 0.10 0.14 0.21 0.30 0.32 0.25 0.17 0.12 0.10 0.10 0.13 0.14 0.14 0.16 0.16 0.17 0.18 0.21 0.21 0.24
0.00 0.00 0.00 0.00 0.01 0.01 0.02 0.02 0.02 0.01 0.01 0.01 0.00 0.00 0.03 0.05 0.11 0.19 0.22 0.23 0.30 0.40 0.41 0.40 0.42 0.38 0.29 0.23 0.18 0.13 0.08 0.07 0.09 0.15 0.20 0.21 0.16 0.15
0.00 0.00 0.00 0.00 0.00 0.00 0.00 0.01 0.01 0.02 0.03 0.02 0.01 0.01 0.02 0.05 0.12 0.18 0.18 0.17 0.18 0.23 0.28 0.28 0.31 0.31 0.29 0.29 0.29 0.29 0.28 0.27 0.21 0.17 0.18 0.21 0.23 0.22
0.00 0.00 0.00 0.00 0.00 0.00 0.00 0.00 0.00 0.00 0.00 0.00 0.00 0.00 0.00 0.00 0.02 0.06 0.09 0.08 0.09 0.13 0.15 0.18 0.19 0.15 0.12 0.14 0.15 0.21 0.25 0.31 0.43 0.49 0.44 0.33 0.26 0.23
0.00 0.00 0.00 0.00 0.00 0.00 0.00 0.00 0.00 0.00 0.00 0.00 0.00 0.00 0.00 0.00 0.00 0.00 0.00 0.00 0.01 0.03 0.04 0.04 0.08 0.07 0.10 0.15 0.23 0.25 0.21 0.23 0.29 0.39 0.48 0.48 0.46 0.43
0.00 0.00 0.00 0.00 0.00 0.00 0.00 0.00 0.00 0.00 0.00 0.00 0.00 0.00 0.00 0.00 0.00 0.00 0.00 0.01 0.01 0.00 0.00 0.01 0.00 0.01 0.01 0.06 0.14 0.16 0.22 0.27 0.30 0.32 0.43 0.49 0.56 0.60
0.00 0.00 0.00 0.00 0.00 0.00 0.00 0.00 0.00 0.00 0.00 0.00 0.00 0.00 0.00 0.00 0.01 0.02 0.02 0.01 0.00 0.00 0.00 0.01 0.00 0.00 0.00 0.00 0.05 0.07 0.14 0.20 0.26 0.30 0.33 0.36 0.45 0.53
0.00 0.00 0.00 0.00 0.00 0.00 0.00 0.00 0.00 0.00 0.00 0.00 0.00 0.01 0.02 0.03 0.02 0.03 0.02 0.02 0.01 0.00 0.00 0.00 0.00 0.00 0.00 0.00 0.02 0.05 0.04 0.07 0.13 0.19 0.26 0.29 0.32 0.36
0.00 0.00 0.00 0.00 0.00 0.00 0.01 0.01 0.01 0.00 0.00 0.00 0.00 0.00 0.00 0.00 0.00 0.00 0.00 0.01 0.01 0.02 0.00 0.00 0.00 0.01 0.02 0.00 0.00 0.02 0.04 0.07 0.10 0.11 0.13 0.18 0.29 0.26
0.00 0.00 0.00 0.00 0.01 0.02 0.04 0.04 0.04 0.03 0.02 0.02 0.01 0.00 0.00 0.00 0.00 0.00 0.00 0.00 0.01 0.02 0.00 0.02 0.02 0.02 0.03 0.02 0.00 0.02 0.05 0.09 0.13 0.15 0.15 0.18 0.23 0.23
0.00 0.00 0.00 0.00 0.03 0.04 0.04 0.03 0.03 0.03 0.00 0.00 0.00 0.00 0.00 0.00 0.00 0.00 0.00 0.00 0.00 0.01 0.00 0.01 0.03 0.02 0.04 0.04 0.02 0.01 0.04 0.07 0.09 0.14 0.15 0.23 0.20 0.25
0.00 0.00 0.01 0.02 0.03 0.02 0.01 0.01 0.01 0.00 0.00 0.00 0.00 0.00 0.00 0.00 0.00 0.00 0.00 0.00 0.00 0.00 0.00 0.00 0.01 0.01 0.04 0.07 0.04 0.01 0.02 0.04 0.06 0.10 0.14 0.17 0.16 0.12
0.00 0.00 0.02 0.02 0.01 0.00 0.00 0.00 0.00 0.00 0.01 0.02 0.02 0.01 0.00 0.00 0.00 0.00 0.00 0.00 0.01 0.00 0.00 0.00 0.00 0.01 0.03 0.03 0.06 0.04 0.01 0.02 0.02 0.05 0.12 0.20 0.22 0.16
0.02 0.02 0.00 0.00 0.00 0.00 0.00 0.00 0.00 0.00 0.00 0.00 0.01 0.00 0.00 0.00 0.00 0.00 0.00 0.01 0.03 0.02 0.00 0.00 0.00 0.01 0.02 0.03 0.08 0.04 0.02 0.02 0.01 0.03 0.09 0.20 0.25 0.18
0.02 0.01 0.00 0.00 0.00 0.01 0.01 0.01 0.00 0.00 0.00 0.00 0.00 0.00 0.00 0.00 0.01 0.00 0.01 0.03 0.04 0.02 0.01 0.01 0.01 0.04 0.04 0.03 0.05 0.04 0.03 0.03 0.03 0.04 0.07 0.17 0.18 0.16
0.00 0.00 0.00 0.01 0.01 0.01 0.00 0.00 0.00 0.00 0.00 0.00 0.01 0.01 0.01 0.01 0.02 0.03 0.02 0.03 0.03 0.02 0.01 0.01 0.04 0.11 0.17 0.08 0.01 0.02 0.02 0.01 0.03 0.06 0.07 0.10 0.10 0.07
0.00 0.00 0.00 0.00 0.00 0.00 0.00 0.00 0.01 0.00 0.00 0.01 0.01 0.02 0.02 0.03 0.03 0.02 0.02 0.04 0.04 0.03 0.02 0.01 0.04 0.05 0.15 0.06 0.04 0.01 0.01 0.01 0.02 0.04 0.08 0.13 0.15 0.17
0.00 0.00 0.00 0.00 0.00 0.00 0.00 0.00 0.01 0.01 0.02 0.04 0.03 0.03 0.03 0.07 0.06 0.02 0.03 0.03 0.08 0.13 0.10 0.01 0.00 0.03 0.17 0.32 0.35 0.09 0.01 0.03 0.04 0.04 0.06 0.16 0.25 0.28
0.00 0.00 0.00 0.00 0.00 0.01 0.01 0.02 0.02 0.02 0.02 0.02 0.01 0.02 0.03 0.07 0.08 0.06 0.04 0.06 0.04 0.05 0.06 0.02 0.02 0.08 0.18 0.26 0.14 0.03 0.02 0.03 0.08 0.15 0.14 0.16 0.27 0.30
0.00 0.00 0.00 0.00 0.01 0.02 0.03 0.04 0.04 0.02 0.02 0.03 0.04 0.04 0.06 0.09 0.05 0.07 0.06 0.07 0.08 0.10 0.07 0.08 0.08 0.14 0.16 0.12 0.14 0.11 0.09 0.09 0.11 0.19 0.25 0.27 0.20 0.14

GFSNE_prec_precacc24_141.txt.gz
Total_Precipitation_Accumulation
0.16 0.19 0.21 0.23 0.20 0.16 0.18 0.21 0.24 0.28 0.35 0.43 0.47 0.46 0.44 0.42 0.38 0.35 0.34 0.32 0.29 0.32 0.33 0.36 0.43 0.43 0.43 0.42 0.47 0.51 0.54 0.60 0.71 0.83 1.00 1.19 1.35 1.83
0.01 0.02 0.04 0.06 0.05 0.04 0.05 0.06 0.10 0.14 0.14 0.17 0.22 0.20 0.16 0.15 0.16 0.15 0.15 0.18 0.19 0.18 0.21 0.24 0.21 0.19 0.22 0.26 0.28 0.29 0.35 0.40 0.48 0.60 0.61 0.62 0.73 0.78
0.00 0.00 0.00 0.00 0.00 0.00 0.01 0.01 0.01 0.01 0.02 0.03 0.04 0.04 0.04 0.04 0.03 0.02 0.02 0.03 0.03 0.05 0.07 0.07 0.09 0.11 0.13 0.15 0.16 0.20 0.21 0.19 0.24 0.31 0.39 0.46 0.47 0.55
0.00 0.00 0.00 0.00 0.00 0.00 0.00 0.00 0.01 0.00 0.01 0.00 0.00 0.00 0.00 0.01 0.00 0.00 0.00 0.01 0.06 0.22 0.24 0.19 0.13 0.07 0.05 0.07 0.10 0.12 0.13 0.15 0.16 0.17 0.19 0.25 0.29 0.31
0.00 0.00 0.00 0.00 0.00 0.00 0.00 0.00 0.00 0.00 0.00 0.00 0.00 0.00 0.00 0.00 0.00 0.01 0.00 0.00 0.01 0.04 0.11 0.14 0.20 0.26 0.23 0.19 0.16 0.12 0.08 0.07 0.09 0.14 0.18 0.19 0.16 0.17
0.00 0.00 0.00 0.00 0.00 0.00 0.00 0.00 0.00 0.01 0.01 0.02 0.01 0.00 0.00 0.00 0.00 0.00 0.00 0.01 0.01 0.02 0.05 0.07 0.13 0.18 0.20 0.23 0.27 0.26 0.26 0.25 0.20 0.14 0.12 0.15 0.20 0.21
0.00 0.00 0.00 0.00 0.00 0.00 0.00 0.00 0.00 0.00 0.00 0.00 0.00 0.00 0.00 0.00 0.00 0.00 0.00 0.00 0.02 0.07 0.10 0.12 0.12 0.11 0.10 0.13 0.14 0.20 0.23 0.26 0.31 0.32 0.28 0.22 0.18 0.19
0.00 0.00 0.00 0.00 0.00 0.00 0.00 0.00 0.00 0.00 0.00 0.00 0.00 0.00 0.00 0.00 0.00 0.00 0.00 0.00 0.00 0.01 0.02 0.03 0.07 0.07 0.10 0.15 0.22 0.23 0.19 0.17 0.16 0.20 0.26 0.30 0.33 0.37
0.00 0.00 0.00 0.00 0.00 0.00 0.00 0.00 0.00 0.00 0.00 0.00 0.00 0.00 0.00 0.00 0.00 0.00 0.00 0.01 0.01 0.00 0.00 0.01 0.00 0.01 0.01 0.06 0.12 0.14 0.18 0.20 0.20 0.20 0.28 0.35 0.46 0.54
0.00 0.00 0.00 0.00 0.00 0.00 0.00 0.00 0.00 0.00 0.00 0.00 0.00 0.00 0.00 0.00 0.01 0.02 0.02 0.01 0.00 0.00 0.00 0.00 0.00 0.00 0.00 0.00 0.01 0.03 0.08 0.12 0.17 0.20 0.25 0.31 0.41 0.49
0.00 0.00 0.00 0.00 0.00 0.00 0.00 0.00 0.00 0.00 0.00 0.00 0.00 0.01 0.02 0.03 0.02 0.03 0.02 0.02 0.01 0.00 0.00 0.00 0.00 0.00 0.00 0.00 0.00 0.01 0.01 0.03 0.07 0.14 0.21 0.27 0.31 0.35
0.00 0.00 0.00 0.00 0.00 0.00 0.01 0.01 0.01 0.00 0.00 0.00 0.00 0.00 0.00 0.00 0.00 0.00 0.00 0.01 0.01 0.01 0.00 0.00 0.00 0.00 0.02 0.00 0.00 0.00 0.00 0.01 0.03 0.06 0.10 0.17 0.28 0.25
0.00 0.00 0.00 0.00 0.01 0.02 0.03 0.03 0.03 0.02 0.02 0.02 0.01 0.00 0.00 0.00 0.00 0.00 0.00 0.00 0.00 0.01 0.00 0.01 0.02 0.01 0.02 0.01 0.00 0.00 0.00 0.01 0.02 0.05 0.09 0.15 0.22 0.23
0.00 0.00 0.00 0.00 0.02 0.03 0.03 0.02 0.03 0.02 0.00 0.00 0.00 0.00 0.00 0.00 0.00 0.00 0.00 0.00 0.00 0.01 0.00 0.01 0.02 0.01 0.03 0.04 0.01 0.00 0.00 0.00 0.01 0.02 0.04 0.16 0.16 0.24
0.00 0.00 0.01 0.01 0.02 0.02 0.01 0.01 0.01 0.00 0.00 0.00 0.00 0.00 0.00 0.00 0.00 0.00 0.00 0.00 0.00 0.00 0.00 0.00 0.01 0.01 0.04 0.07 0.04 0.01 0.00 0.00 0.00 0.03 0.06 0.08 0.09 0.09
0.00 0.00 0.01 0.02 0.01 0.00 0.00 0.00 0.00 0.00 0.01 0.02 0.02 0.01 0.00 0.00 0.00 0.00 0.00 0.00 0.00 0.00 0.00 0.00 0.00 0.01 0.03 0.03 0.05 0.03 0.00 0.01 0.00 0.01 0.05 0.12 0.13 0.09
0.02 0.01 0.00 0.00 0.00 0.00 0.00 0.00 0.00 0.00 0.00 0.00 0.01 0.00 0.00 0.00 0.00 0.00 0.00 0.01 0.02 0.01 0.00 0.00 0.00 0.01 0.01 0.02 0.06 0.02 0.01 0.00 0.00 0.01 0.02 0.07 0.14 0.12
0.02 0.00 0.00 0.00 0.00 0.00 0.00 0.01 0.00 0.00 0.00 0.00 0.00 0.00 0.00 0.00 0.01 0.00 0.01 0.03 0.03 0.02 0.01 0.00 0.01 0.03 0.03 0.01 0.02 0.01 0.01 0.01 0.00 0.01 0.02 0.05 0.07 0.09
0.00 0.00 0.00 0.00 0.00 0.00 0.00 0.00 0.00 0.00 0.00 0.00 0.01 0.01 0.01 0.02 0.02 0.03 0.02 0.02 0.03 0.01 0.01 0.01 0.01 0.08 0.14 0.05 0.00 0.00 0.00 0.00 0.01 0.01 0.02 0.03 0.03 0.03
0.00 0.00 0.00 0.00 0.00 0.00 0.00 0.00 0.01 0.00 0.00 0.01 0.01 0.02 0.02 0.03 0.04 0.03 0.02 0.04 0.03 0.02 0.02 0.01 0.01 0.02 0.12 0.05 0.04 0.01 0.00 0.01 0.01 0.02 0.02 0.03 0.04 0.07
0.00 0.00 0.00 0.00 0.00 0.00 0.00 0.00 0.01 0.01 0.02 0.03 0.03 0.03 0.03 0.07 0.06 0.02 0.03 0.03 0.07 0.11 0.09 0.01 0.00 0.01 0.11 0.28 0.26 0.04 0.00 0.01 0.02 0.03 0.04 0.10 0.10 0.08
0.00 0.00 0.00 0.00 0.00 0.01 0.01 0.02 0.02 0.01 0.02 0.02 0.02 0.03 0.03 0.07 0.08 0.05 0.04 0.05 0.03 0.02 0.03 0.00 0.00 0.02 0.12 0.23 0.12 0.01 0.00 0.00 0.01 0.05 0.06 0.11 0.18 0.16
0.00 0.00 0.00 0.00 0.01 0.02 0.03 0.04 0.04 0.02 0.02 0.03 0.04 0.04 0.06 0.09 0.04 0.07 0.05 0.05 0.06 0.07 0.04 0.05 0.01 0.05 0.09 0.09 0.11 0.08 0.01 0.01 0.02 0.06 0.10 0.12 0.06 0.04

GFSNE_prec_precacc24_144.txt.gz
Total_Precipitation_Accumulation
0.15 0.19 0.21 0.23 0.19 0.16 0.17 0.20 0.22 0.26 0.34 0.42 0.46 0.46 0.44 0.42 0.38 0.35 0.34 0.32 0.29 0.32 0.33 0.33 0.40 0.37 0.33 0.30 0.35 0.38 0.37 0.41 0.54 0.66 0.92 1.22 1.47 1.97
0.01 0.02 0.04 0.06 0.05 0.04 0.05 0.06 0.09 0.12 0.13 0.17 0.22 0.20 0.16 0.15 0.16 0.15 0.15 0.18 0.19 0.16 0.19 0.22 0.18 0.17 0.18 0.22 0.21 0.19 0.23 0.28 0.36 0.50 0.53 0.60 0.77 0.86
0.00 0.00 0.00 0.00 0.00 0.00 0.01 0.01 0.01 0.01 0.01 0.03 0.04 0.04 0.04 0.04 0.03 0.02 0.02 0.02 0.02 0.03 0.05 0.05 0.06 0.07 0.08 0.10 0.10 0.10 0.10 0.10 0.14 0.23 0.32 0.39 0.47 0.59
0.00 0.00 0.00 0.00 0.00 0.00 0.00 0.00 0.00 0.00 0.00 0.00 0.00 0.00 0.00 0.00 0.00 0.00 0.00 0.00 0.00 0.00 0.00 0.00 0.00 0.01 0.01 0.04 0.06 0.07 0.06 0.07 0.09 0.10 0.13 0.18 0.24 0.30
0.00 0.00 0.00 0.00 0.00 0.00 0.00 0.00 0.00 0.00 0.00 0.00 0.00 0.00 0.00 0.00 0.00 0.00 0.00 0.00 0.00 0.00 0.00 0.00 0.00 0.02 0.04 0.05 0.06 0.05 0.03 0.03 0.06 0.10 0.16 0.16 0.13 0.15
0.00 0.00 0.00 0.00 0.00 0.00 0.00 0.00 0.00 0.00 0.00 0.00 0.00 0.00 0.00 0.00 0.00 0.00 0.00 0.00 0.00 0.00 0.00 0.00 0.00 0.01 0.02 0.05 0.08 0.15 0.18 0.17 0.13 0.08 0.09 0.12 0.16 0.19
0.00 0.00 0.00 0.00 0.00 0.00 0.00 0.00 0.00 0.00 0.00 0.00 0.00 0.00 0.00 0.00 0.00 0.00 0.00 0.00 0.00 0.00 0.00 0.00 0.00 0.00 0.01 0.03 0.05 0.10 0.13 0.17 0.22 0.24 0.21 0.17 0.13 0.13
0.00 0.00 0.00 0.00 0.00 0.00 0.00 0.00 0.00 0.00 0.00 0.00 0.00 0.00 0.00 0.00 0.00 0.00 0.00 0.00 0.00 0.00 0.00 0.00 0.00 0.00 0.01 0.04 0.11 0.14 0.13 0.14 0.14 0.18 0.20 0.22 0.22 0.23
0.00 0.00 0.00 0.00 0.00 0.00 0.00 0.00 0.00 0.00 0.00 0.00 0.00 0.00 0.00 0.00 0.00 0.00 0.00 0.01 0.01 0.00 0.00 0.00 0.00 0.00 0.00 0.03 0.09 0.12 0.17 0.18 0.19 0.18 0.18 0.21 0.24 0.27
0.00 0.00 0.00 0.00 0.00 0.00 0.00 0.00 0.00 0.00 0.00 0.00 0.00 0.00 0.00 0.00 0.01 0.02 0.02 0.01 0.00 0.00 0.00 0.00 0.00 0.00 0.00 0.00 0.01 0.03 0.07 0.12 0.16 0.19 0.19 0.18 0.19 0.22
0.00 0.00 0.00 0.00 0.00 0.00 0.00 0.00 0.00 0.00 0.00 0.00 0.00 0.01 0.02 0.03 0.02 0.03 0.02 0.02 0.01 0.00 0.00 0.00 0.00 0.00 0.00 0.00 0.00 0.01 0.01 0.02 0.05 0.10 0.15 0.17 0.17 0.18
0.01 0.00 0.00 0.00 0.00 0.00 0.00 0.01 0.01 0.00 0.00 0.00 0.00 0.00 0.00 0.00 0.00 0.00 0.00 0.01 0.01 0.01 0.00 0.00 0.00 0.00 0.01 0.00 0.00 0.00 0.00 0.00 0.00 0.02 0.05 0.11 0.19 0.18
0.01 0.00 0.00 0.00 0.00 0.01 0.02 0.01 0.02 0.02 0.01 0.02 0.01 0.00 0.00 0.00 0.00 0.00 0.00 0.00 0.00 0.01 0.00 0.01 0.02 0.01 0.02 0.01 0.00 0.00 0.00 0.00 0.00 0.01 0.03 0.06 0.14 0.18
0.00 0.00 0.00 0.00 0.02 0.02 0.02 0.01 0.02 0.01 0.00 0.00 0.00 0.00 0.00 0.00 0.00 0.00 0.00 0.00 0.00 0.01 0.00 0.01 0.02 0.01 0.03 0.04 0.01 0.00 0.00 0.00 0.00 0.00 0.01 0.07 0.10 0.17
0.00 0.00 0.01 0.01 0.02 0.01 0.00 0.00 0.00 0.00 0.00 0.00 0.00 0.00 0.00 0.00 0.00 0.00 0.00 0.00 0.00 0.00 0.00 0.00 0.01 0.01 0.04 0.07 0.03 0.01 0.00 0.00 0.00 0.00 0.00 0.02 0.04 0.06
0.01 0.00 0.01 0.01 0.01 0.00 0.00 0.00 0.00 0.00 0.00 0.01 0.01 0.01 0.00 0.00 0.00 0.00 0.00 0.00 0.00 0.00 0.00 0.00 0.00 0.01 0.03 0.03 0.05 0.03 0.00 0.00 0.00 0.00 0.00 0.01 0.05 0.06
0.03 0.02 0.00 0.00 0.00 0.00 0.00 0.00 0.00 0.00 0.00 0.00 0.00 0.00 0.00 0.00 0.00 0.00 0.00 0.01 0.02 0.01 0.00 0.00 0.00 0.00 0.01 0.02 0.06 0.02 0.00 0.00 0.00 0.00 0.01 0.01 0.03 0.06
0.04 0.01 0.00 0.00 0.00 0.00 0.00 0.00 0.00 0.00 0.00 0.00 0.00 0.00 0.00 0.00 0.01 0.01 0.01 0.03 0.04 0.02 0.01 0.00 0.01 0.02 0.02 0.01 0.01 0.01 0.00 0.00 0.00 0.00 0.01 0.02 0.01 0.02
0.02 0.00 0.00 0.00 0.00 0.00 0.00 0.00 0.00 0.00 0.00 0.00 0.01 0.01 0.01 0.02 0.02 0.03 0.02 0.03 0.03 0.01 0.01 0.01 0.01 0.06 0.12 0.04 0.00 0.00 0.00 0.00 0.00 0.00 0.00 0.01 0.01 0.00
0.01 0.00 0.00 0.00 0.00 0.00 0.00 0.00 0.00 0.00 0.00 0.01 0.01 0.01 0.02 0.03 0.04 0.03 0.02 0.04 0.03 0.02 0.01 0.01 0.01 0.02 0.10 0.04 0.04 0.01 0.00 0.00 0.00 0.01 0.01 0.01 0.01 0.01
0.02 0.01 0.00 0.00 0.00 0.00 0.00 0.00 0.01 0.01 0.02 0.03 0.02 0.03 0.03 0.08 0.06 0.02 0.03 0.03 0.07 0.12 0.09 0.01 0.00 0.00 0.09 0.27 0.21 0.02 0.00 0.00 0.00 0.01 0.02 0.06 0.04 0.02
0.03 0.02 0.00 0.00 0.00 0.01 0.01 0.02 0.02 0.01 0.01 0.02 0.02 0.02 0.03 0.08 0.08 0.05 0.04 0.05 0.03 0.03 0.03 0.00 0.00 0.01 0.08 0.18 0.10 0.00 0.00 0.00 0.00 0.00 0.01 0.08 0.12 0.12
0.04 0.02 0.01 0.00 0.01 0.02 0.02 0.03 0.03 0.02 0.02 0.03 0.04 0.04 0.06 0.09 0.05 0.07 0.06 0.05 0.06 0.07 0.04 0.04 0.01 0.04 0.06 0.06 0.09 0.06 0.01 0.00 0.00 0.00 0.00 0.02 0.04 0.04

GFSNE_prec_precacc24_147.txt.gz
Total_Precipitation_Accumulation
0.00 0.00 0.02 0.08 0.14 0.15 0.17 0.20 0.22 0.26 0.34 0.42 0.45 0.45 0.43 0.41 0.38 0.35 0.34 0.32 0.29 0.32 0.33 0.33 0.40 0.37 0.33 0.30 0.33 0.35 0.31 0.32 0.41 0.52 0.70 0.93 1.21 1.80
0.00 0.00 0.02 0.05 0.05 0.04 0.05 0.06 0.09 0.12 0.13 0.17 0.22 0.20 0.16 0.15 0.16 0.15 0.15 0.18 0.19 0.16 0.19 0.22 0.18 0.17 0.18 0.22 0.20 0.19 0.22 0.24 0.29 0.38 0.38 0.41 0.61 0.74
0.00 0.00 0.00 0.00 0.00 0.00 0.01 0.01 0.01 0.01 0.01 0.03 0.04 0.04 0.04 0.04 0.03 0.02 0.02 0.02 0.02 0.03 0.05 0.05 0.06 0.06 0.08 0.08 0.07 0.09 0.10 0.09 0.12 0.17 0.23 0.27 0.33 0.48
0.00 0.00 0.00 0.00 0.00 0.00 0.00 0.00 0.00 0.00 0.00 0.00 0.00 0.00 0.00 0.00 0.00 0.00 0.00 0.00 0.00 0.00 0.00 0.00 0.00 0.00 0.00 0.01 0.02 0.02 0.02 0.04 0.05 0.05 0.07 0.10 0.14 0.20
0.00 0.00 0.00 0.00 0.00 0.00 0.00 0.00 0.00 0.00 0.00 0.00 0.00 0.00 0.00 0.00 0.00 0.00 0.00 0.00 0.00 0.00 0.00 0.00 0.00 0.00 0.00 0.00 0.00 0.00 0.01 0.02 0.03 0.06 0.06 0.05 0.04 0.06
0.00 0.00 0.00 0.00 0.00 0.00 0.00 0.00 0.00 0.00 0.00 0.00 0.00 0.00 0.00 0.00 0.00 0.00 0.00 0.00 0.00 0.00 0.00 0.00 0.00 0.00 0.00 0.00 0.00 0.00 0.00 0.02 0.03 0.04 0.04 0.04 0.05 0.08
0.00 0.00 0.00 0.00 0.00 0.00 0.00 0.00 0.00 0.00 0.00 0.00 0.00 0.00 0.00 0.00 0.00 0.00 0.00 0.00 0.00 0.00 0.00 0.00 0.00 0.00 0.00 0.00 0.00 0.00 0.01 0.02 0.03 0.05 0.09 0.11 0.07 0.06
0.00 0.00 0.00 0.00 0.00 0.00 0.00 0.00 0.00 0.00 0.00 0.00 0.00 0.00 0.00 0.00 0.00 0.00 0.00 0.00 0.00 0.00 0.00 0.00 0.00 0.00 0.00 0.00 0.00 0.01 0.02 0.04 0.04 0.05 0.09 0.12 0.13 0.16
0.00 0.00 0.00 0.00 0.00 0.00 0.00 0.00 0.00 0.00 0.00 0.00 0.00 0.00 0.00 0.00 0.00 0.00 0.00 0.01 0.01 0.00 0.00 0.00 0.00 0.00 0.00 0.00 0.00 0.00 0.04 0.06 0.08 0.09 0.12 0.17 0.20 0.21
0.00 0.00 0.00 0.00 0.00 0.00 0.00 0.00 0.00 0.00 0.00 0.00 0.00 0.00 0.00 0.00 0.01 0.02 0.02 0.01 0.00 0.00 0.00 0.00 0.00 0.00 0.00 0.00 0.00 0.00 0.01 0.02 0.06 0.09 0.11 0.14 0.16 0.18
0.00 0.00 0.00 0.00 0.00 0.00 0.00 0.00 0.00 0.00 0.00 0.00 0.00 0.01 0.02 0.03 0.03 0.03 0.02 0.02 0.01 0.00 0.00 0.00 0.00 0.00 0.00 0.00 0.00 0.00 0.00 0.00 0.01 0.04 0.10 0.15 0.16 0.16
0.01 0.00 0.00 0.00 0.00 0.00 0.00 0.00 0.01 0.00 0.00 0.00 0.00 0.00 0.00 0.00 0.00 0.00 0.00 0.01 0.01 0.01 0.00 0.00 0.00 0.00 0.01 0.00 0.00 0.00 0.00 0.00 0.00 0.01 0.02 0.08 0.16 0.16
0.01 0.00 0.00 0.00 0.01 0.01 0.02 0.01 0.01 0.01 0.00 0.00 0.00 0.00 0.00 0.00 0.00 0.00 0.00 0.00 0.00 0.01 0.00 0.01 0.02 0.01 0.01 0.01 0.00 0.00 0.00 0.00 0.00 0.00 0.00 0.01 0.07 0.14
0.00 0.00 0.00 0.00 0.02 0.02 0.01 0.01 0.01 0.01 0.00 0.00 0.00 0.00 0.00 0.00 0.00 0.00 0.00 0.00 0.00 0.01 0.00 0.01 0.02 0.01 0.03 0.04 0.01 0.00 0.00 0.00 0.00 0.00 0.00 0.00 0.02 0.07
0.00 0.00 0.01 0.02 0.02 0.01 0.00 0.00 0.00 0.00 0.00 0.00 0.00 0.00 0.00 0.00 0.00 0.00 0.00 0.00 0.00 0.00 0.00 0.00 0.01 0.01 0.03 0.06 0.03 0.01 0.00 0.00 0.00 0.00 0.00 0.00 0.00 0.01
0.01 0.01 0.03 0.03 0.02 0.00 0.00 0.00 0.00 0.00 0.00 0.01 0.00 0.00 0.00 0.00 0.00 0.00 0.00 0.00 0.00 0.00 0.00 0.00 0.00 0.01 0.03 0.02 0.04 0.02 0.00 0.00 0.00 0.00 0.00 0.00 0.00 0.01
0.09 0.09 0.06 0.03 0.01 0.00 0.00 0.00 0.00 0.00 0.00 0.00 0.00 0.00 0.00 0.00 0.00 0.00 0.00 0.01 0.02 0.01 0.00 0.00 0.00 0.00 0.01 0.01 0.05 0.01 0.00 0.00 0.00 0.00 0.00 0.00 0.00 0.00
0.17 0.06 0.03 0.04 0.03 0.01 0.00 0.00 0.00 0.00 0.00 0.00 0.00 0.00 0.00 0.00 0.01 0.01 0.01 0.03 0.04 0.01 0.01 0.00 0.01 0.02 0.02 0.01 0.01 0.01 0.00 0.00 0.00 0.00 0.00 0.02 0.01 0.00
0.11 0.02 0.03 0.05 0.04 0.02 0.00 0.00 0.00 0.00 0.00 0.00 0.01 0.01 0.01 0.02 0.02 0.03 0.02 0.03 0.03 0.01 0.00 0.01 0.01 0.06 0.11 0.04 0.00 0.00 0.00 0.00 0.00 0.00 0.00 0.01 0.00 0.00
0.06 0.03 0.05 0.07 0.05 0.02 0.00 0.00 0.00 0.00 0.00 0.01 0.01 0.01 0.02 0.03 0.04 0.03 0.02 0.04 0.03 0.01 0.01 0.00 0.01 0.01 0.10 0.04 0.04 0.00 0.00 0.00 0.00 0.00 0.00 0.00 0.00 0.00
0.08 0.07 0.07 0.07 0.03 0.01 0.00 0.00 0.01 0.01 0.01 0.02 0.02 0.03 0.03 0.07 0.06 0.02 0.02 0.03 0.07 0.11 0.08 0.01 0.00 0.00 0.09 0.26 0.18 0.01 0.00 0.00 0.00 0.00 0.01 0.04 0.03 0.01
0.08 0.08 0.05 0.04 0.02 0.01 0.01 0.01 0.01 0.01 0.01 0.02 0.01 0.02 0.03 0.07 0.07 0.05 0.04 0.05 0.03 0.03 0.03 0.00 0.00 0.01 0.08 0.17 0.08 0.00 0.00 0.00 0.00 0.00 0.00 0.04 0.08 0.10
0.09 0.09 0.05 0.02 0.01 0.01 0.01 0.02 0.02 0.02 0.01 0.02 0.03 0.03 0.05 0.08 0.04 0.06 0.05 0.05 0.05 0.07 0.04 0.04 0.01 0.04 0.06 0.05 0.08 0.05 0.00 0.00 0.00 0.00 0.00 0.00 0.00 0.01

GFSNE_prec_precacc24_150.txt.gz
Total_Precipitation_Accumulation
0.00 0.00 0.00 0.00 0.00 0.00 0.00 0.00 0.04 0.12 0.25 0.35 0.41 0.44 0.43 0.41 0.37 0.34 0.34 0.32 0.29 0.31 0.32 0.33 0.39 0.37 0.33 0.30 0.33 0.35 0.31 0.31 0.37 0.45 0.61 0.84 1.12 1.70
0.00 0.00 0.00 0.00 0.00 0.00 0.00 0.00 0.01 0.04 0.08 0.15 0.22 0.19 0.16 0.15 0.16 0.15 0.15 0.18 0.19 0.16 0.19 0.22 0.18 0.17 0.18 0.22 0.20 0.19 0.22 0.24 0.29 0.38 0.36 0.37 0.53 0.64
0.00 0.00 0.00 0.00 0.00 0.00 0.00 0.00 0.01 0.01 0.01 0.02 0.04 0.04 0.04 0.04 0.03 0.02 0.02 0.02 0.02 0.03 0.05 0.05 0.05 0.06 0.08 0.08 0.07 0.09 0.09 0.09 0.12 0.17 0.23 0.25 0.28 0.38
0.00 0.00 0.00 0.00 0.00 0.00 0.00 0.00 0.00 0.00 0.00 0.00 0.00 0.00 0.00 0.00 0.00 0.00 0.00 0.00 0.00 0.00 0.00 0.00 0.00 0.00 0.00 0.01 0.02 0.02 0.02 0.02 0.03 0.04 0.07 0.10 0.13 0.17
0.00 0.00 0.00 0.00 0.00 0.00 0.00 0.00 0.00 0.00 0.00 0.00 0.00 0.00 0.00 0.00 0.00 0.00 0.00 0.00 0.00 0.00 0.00 0.00 0.00 0.00 0.00 0.00 0.00 0.00 0.00 0.01 0.01 0.02 0.02 0.02 0.03 0.05
0.00 0.00 0.00 0.00 0.00 0.00 0.00 0.00 0.00 0.00 0.00 0.00 0.00 0.00 0.00 0.00 0.00 0.00 0.00 0.00 0.00 0.00 0.00 0.00 0.00 0.00 0.00 0.00 0.00 0.00 0.00 0.00 0.00 0.01 0.02 0.02 0.03 0.06
0.00 0.00 0.00 0.00 0.00 0.00 0.00 0.00 0.00 0.00 0.00 0.00 0.00 0.00 0.00 0.00 0.00 0.00 0.00 0.00 0.00 0.00 0.00 0.00 0.00 0.00 0.00 0.00 0.00 0.00 0.00 0.00 0.00 0.00 0.00 0.01 0.01 0.02
0.00 0.00 0.00 0.00 0.00 0.00 0.00 0.00 0.00 0.00 0.00 0.00 0.00 0.00 0.00 0.00 0.00 0.00 0.00 0.00 0.00 0.00 0.00 0.00 0.00 0.00 0.00 0.00 0.00 0.00 0.00 0.00 0.00 0.00 0.00 0.00 0.00 0.01
0.00 0.00 0.00 0.00 0.00 0.00 0.00 0.00 0.00 0.00 0.00 0.00 0.00 0.00 0.00 0.00 0.00 0.00 0.00 0.01 0.01 0.00 0.00 0.00 0.00 0.00 0.00 0.00 0.00 0.00 0.00 0.00 0.00 0.00 0.00 0.00 0.01 0.02
0.00 0.00 0.00 0.00 0.00 0.00 0.00 0.00 0.00 0.00 0.00 0.00 0.00 0.00 0.00 0.00 0.01 0.02 0.02 0.01 0.00 0.00 0.00 0.00 0.00 0.00 0.00 0.00 0.00 0.00 0.00 0.00 0.00 0.00 0.00 0.00 0.02 0.04
0.00 0.00 0.00 0.00 0.00 0.00 0.00 0.00 0.00 0.00 0.00 0.00 0.00 0.00 0.01 0.02 0.03 0.03 0.02 0.02 0.01 0.00 0.00 0.00 0.00 0.00 0.00 0.00 0.00 0.00 0.00 0.00 0.00 0.00 0.00 0.00 0.01 0.01
0.01 0.00 0.00 0.00 0.00 0.00 0.00 0.00 0.01 0.00 0.00 0.00 0.00 0.00 0.00 0.00 0.00 0.01 0.00 0.01 0.01 0.01 0.00 0.00 0.00 0.00 0.01 0.00 0.00 0.00 0.00 0.00 0.00 0.00 0.00 0.00 0.00 0.01
0.01 0.00 0.00 0.00 0.01 0.01 0.02 0.01 0.01 0.01 0.00 0.00 0.00 0.00 0.00 0.00 0.00 0.00 0.00 0.00 0.00 0.01 0.00 0.01 0.02 0.01 0.01 0.01 0.00 0.00 0.00 0.00 0.00 0.00 0.00 0.00 0.00 0.01
0.00 0.00 0.00 0.00 0.03 0.03 0.03 0.02 0.01 0.01 0.00 0.00 0.00 0.00 0.00 0.00 0.00 0.00 0.00 0.00 0.00 0.01 0.00 0.01 0.02 0.01 0.03 0.03 0.01 0.00 0.00 0.00 0.00 0.00 0.00 0.00 0.00 0.00
0.00 0.01 0.01 0.03 0.05 0.04 0.03 0.03 0.02 0.02 0.01 0.01 0.00 0.00 0.00 0.00 0.00 0.00 0.00 0.00 0.00 0.00 0.00 0.00 0.01 0.01 0.03 0.06 0.03 0.00 0.00 0.00 0.00 0.00 0.00 0.00 0.00 0.00
0.04 0.05 0.07 0.09 0.09 0.06 0.03 0.03 0.02 0.02 0.02 0.01 0.00 0.00 0.00 0.00 0.00 0.00 0.00 0.00 0.00 0.00 0.00 0.00 0.00 0.01 0.03 0.02 0.03 0.02 0.00 0.00 0.00 0.00 0.00 0.00 0.00 0.00
0.16 0.17 0.14 0.14 0.09 0.06 0.03 0.02 0.02 0.02 0.01 0.00 0.00 0.01 0.01 0.00 0.00 0.00 0.00 0.01 0.02 0.01 0.00 0.00 0.00 0.00 0.01 0.01 0.04 0.01 0.00 0.00 0.00 0.00 0.00 0.00 0.00 0.00
0.24 0.11 0.08 0.11 0.13 0.10 0.07 0.05 0.03 0.01 0.00 0.00 0.01 0.01 0.00 0.00 0.01 0.01 0.01 0.03 0.03 0.01 0.00 0.00 0.00 0.02 0.02 0.01 0.01 0.01 0.00 0.00 0.00 0.00 0.00 0.02 0.01 0.00
0.19 0.06 0.08 0.13 0.15 0.13 0.10 0.06 0.02 0.00 0.00 0.01 0.01 0.01 0.01 0.02 0.02 0.03 0.02 0.03 0.03 0.01 0.00 0.00 0.01 0.06 0.10 0.04 0.00 0.00 0.00 0.00 0.00 0.00 0.00 0.01 0.00 0.00
0.12 0.08 0.10 0.16 0.18 0.14 0.10 0.05 0.02 0.01 0.01 0.01 0.01 0.01 0.02 0.03 0.03 0.03 0.02 0.03 0.03 0.01 0.01 0.00 0.01 0.01 0.09 0.04 0.04 0.00 0.00 0.00 0.00 0.00 0.00 0.00 0.00 0.00
0.13 0.14 0.13 0.18 0.13 0.08 0.05 0.03 0.01 0.01 0.01 0.01 0.01 0.02 0.03 0.07 0.05 0.02 0.02 0.03 0.07 0.11 0.07 0.00 0.00 0.00 0.09 0.25 0.17 0.01 0.00 0.00 0.00 0.00 0.01 0.04 0.03 0.01
0.11 0.13 0.09 0.09 0.07 0.04 0.03 0.02 0.01 0.01 0.01 0.01 0.01 0.02 0.03 0.07 0.07 0.04 0.03 0.05 0.03 0.02 0.03 0.00 0.00 0.01 0.08 0.16 0.07 0.00 0.00 0.00 0.00 0.00 0.00 0.05 0.08 0.08
0.12 0.13 0.11 0.05 0.04 0.03 0.03 0.02 0.01 0.01 0.01 0.02 0.02 0.03 0.05 0.08 0.04 0.06 0.05 0.04 0.05 0.07 0.03 0.04 0.01 0.03 0.05 0.04 0.06 0.04 0.00 0.00 0.00 0.00 0.00 0.00 0.00 0.00

GFSNE_prec_precacc24_153.txt.gz
Total_Precipitation_Accumulation
0.00 0.00 0.00 0.00 0.00 0.00 0.00 0.00 0.00 0.00 0.00 0.00 0.00 0.02 0.07 0.16 0.26 0.31 0.34 0.31 0.29 0.31 0.32 0.33 0.39 0.37 0.33 0.30 0.33 0.34 0.31 0.31 0.37 0.45 0.61 0.80 1.06 1.64
0.00 0.00 0.00 0.00 0.00 0.00 0.00 0.00 0.00 0.00 0.00 0.00 0.00 0.00 0.01 0.04 0.08 0.10 0.14 0.18 0.19 0.16 0.19 0.22 0.18 0.17 0.18 0.22 0.20 0.19 0.21 0.24 0.28 0.38 0.36 0.36 0.50 0.60
0.00 0.00 0.00 0.00 0.00 0.00 0.00 0.00 0.00 0.00 0.00 0.00 0.00 0.00 0.00 0.00 0.01 0.02 0.02 0.02 0.02 0.03 0.05 0.05 0.05 0.06 0.08 0.08 0.07 0.08 0.09 0.09 0.11 0.16 0.23 0.24 0.25 0.35
0.00 0.00 0.00 0.00 0.00 0.00 0.00 0.00 0.00 0.00 0.00 0.00 0.00 0.00 0.00 0.00 0.00 0.00 0.00 0.00 0.00 0.00 0.00 0.00 0.00 0.00 0.00 0.01 0.02 0.02 0.02 0.02 0.03 0.04 0.06 0.10 0.13 0.14
0.00 0.00 0.00 0.00 0.00 0.00 0.00 0.00 0.00 0.00 0.00 0.00 0.00 0.00 0.00 0.00 0.00 0.00 0.00 0.00 0.00 0.00 0.00 0.00 0.00 0.00 0.00 0.00 0.00 0.00 0.00 0.01 0.01 0.02 0.02 0.02 0.02 0.04
0.00 0.00 0.00 0.00 0.00 0.00 0.00 0.00 0.00 0.00 0.00 0.00 0.00 0.00 0.00 0.00 0.00 0.00 0.00 0.00 0.00 0.00 0.00 0.00 0.00 0.00 0.00 0.00 0.00 0.00 0.00 0.00 0.00 0.01 0.02 0.02 0.02 0.02
0.00 0.00 0.00 0.00 0.00 0.00 0.00 0.00 0.00 0.00 0.00 0.00 0.00 0.00 0.00 0.00 0.00 0.00 0.00 0.00 0.00 0.00 0.00 0.00 0.00 0.00 0.00 0.00 0.00 0.00 0.00 0.00 0.00 0.00 0.00 0.00 0.01 0.01
0.00 0.00 0.00 0.00 0.00 0.00 0.00 0.00 0.00 0.00 0.00 0.00 0.00 0.00 0.00 0.00 0.00 0.00 0.00 0.00 0.00 0.00 0.00 0.00 0.00 0.00 0.00 0.00 0.00 0.00 0.00 0.00 0.00 0.00 0.00 0.00 0.00 0.00
0.00 0.00 0.00 0.00 0.00 0.00 0.00 0.00 0.00 0.00 0.00 0.00 0.00 0.00 0.00 0.00 0.00 0.00 0.00 0.01 0.01 0.00 0.00 0.00 0.00 0.00 0.00 0.00 0.00 0.00 0.00 0.00 0.00 0.00 0.00 0.00 0.00 0.00
0.00 0.00 0.00 0.00 0.00 0.00 0.00 0.00 0.00 0.00 0.00 0.00 0.00 0.00 0.00 0.00 0.01 0.02 0.02 0.01 0.00 0.00 0.00 0.00 0.00 0.00 0.00 0.00 0.00 0.00 0.00 0.00 0.00 0.00 0.00 0.00 0.00 0.00
0.00 0.00 0.00 0.00 0.00 0.00 0.00 0.00 0.00 0.00 0.00 0.00 0.00 0.00 0.01 0.01 0.02 0.02 0.02 0.02 0.01 0.00 0.00 0.00 0.00 0.00 0.00 0.00 0.00 0.00 0.00 0.00 0.00 0.00 0.00 0.00 0.00 0.00
0.01 0.00 0.00 0.00 0.00 0.00 0.00 0.01 0.01 0.00 0.00 0.00 0.01 0.00 0.00 0.00 0.00 0.01 0.00 0.01 0.01 0.01 0.00 0.00 0.00 0.00 0.01 0.00 0.00 0.00 0.00 0.00 0.00 0.00 0.00 0.00 0.00 0.00
0.01 0.00 0.00 0.00 0.00 0.01 0.03 0.07 0.02 0.01 0.01 0.02 0.02 0.01 0.00 0.00 0.00 0.00 0.00 0.00 0.00 0.01 0.00 0.01 0.02 0.01 0.01 0.01 0.00 0.00 0.00 0.00 0.00 0.00 0.00 0.00 0.00 0.00
0.00 0.00 0.00 0.00 0.03 0.06 0.07 0.09 0.04 0.07 0.05 0.05 0.04 0.02 0.00 0.00 0.00 0.00 0.00 0.00 0.00 0.01 0.00 0.01 0.02 0.01 0.03 0.03 0.01 0.00 0.00 0.00 0.00 0.00 0.00 0.00 0.00 0.00
0.01 0.01 0.02 0.04 0.07 0.09 0.09 0.11 0.11 0.13 0.08 0.04 0.03 0.01 0.00 0.00 0.00 0.00 0.00 0.00 0.00 0.00 0.00 0.00 0.01 0.01 0.03 0.06 0.03 0.00 0.00 0.00 0.00 0.00 0.00 0.00 0.00 0.00
0.04 0.05 0.08 0.10 0.11 0.10 0.07 0.07 0.13 0.15 0.08 0.04 0.05 0.03 0.02 0.01 0.00 0.00 0.01 0.00 0.00 0.00 0.00 0.00 0.00 0.01 0.03 0.02 0.03 0.02 0.00 0.00 0.00 0.00 0.00 0.00 0.00 0.00
0.17 0.18 0.15 0.15 0.12 0.11 0.09 0.07 0.11 0.12 0.13 0.07 0.05 0.04 0.03 0.02 0.01 0.01 0.00 0.01 0.02 0.01 0.00 0.00 0.00 0.00 0.01 0.01 0.04 0.01 0.00 0.00 0.00 0.00 0.00 0.00 0.00 0.00
0.25 0.13 0.10 0.14 0.15 0.15 0.14 0.12 0.10 0.10 0.08 0.06 0.05 0.04 0.04 0.03 0.02 0.01 0.01 0.02 0.03 0.01 0.00 0.00 0.00 0.02 0.02 0.01 0.01 0.01 0.00 0.00 0.00 0.00 0.00 0.02 0.01 0.00
0.20 0.08 0.11 0.16 0.18 0.18 0.15 0.12 0.09 0.06 0.04 0.06 0.06 0.05 0.04 0.03 0.03 0.02 0.02 0.02 0.02 0.01 0.00 0.00 0.01 0.06 0.10 0.03 0.00 0.00 0.00 0.00 0.00 0.00 0.00 0.00 0.00 0.00
0.13 0.10 0.13 0.19 0.22 0.19 0.15 0.10 0.06 0.05 0.04 0.05 0.05 0.04 0.03 0.03 0.03 0.02 0.02 0.03 0.02 0.01 0.01 0.00 0.01 0.02 0.09 0.04 0.04 0.00 0.00 0.00 0.00 0.00 0.00 0.00 0.00 0.00
0.13 0.16 0.17 0.21 0.17 0.12 0.08 0.07 0.05 0.04 0.05 0.05 0.04 0.04 0.03 0.06 0.04 0.02 0.02 0.03 0.06 0.10 0.07 0.00 0.00 0.00 0.09 0.23 0.16 0.01 0.00 0.00 0.00 0.00 0.01 0.04 0.02 0.01
0.11 0.14 0.12 0.11 0.09 0.06 0.05 0.05 0.05 0.05 0.03 0.03 0.03 0.03 0.02 0.05 0.06 0.03 0.03 0.04 0.03 0.03 0.03 0.00 0.00 0.02 0.08 0.16 0.07 0.00 0.00 0.00 0.00 0.00 0.00 0.05 0.08 0.09
0.14 0.14 0.12 0.07 0.07 0.06 0.05 0.05 0.04 0.02 0.01 0.02 0.02 0.02 0.03 0.05 0.03 0.05 0.04 0.04 0.05 0.06 0.03 0.04 0.02 0.04 0.05 0.04 0.06 0.04 0.00 0.00 0.00 0.00 0.00 0.00 0.00 0.00

GFSNE_prec_precacc24_156.txt.gz
Total_Precipitation_Accumulation
0.00 0.00 0.00 0.00 0.00 0.00 0.00 0.00 0.00 0.00 0.00 0.00 0.00 0.00 0.00 0.00 0.00 0.00 0.00 0.01 0.02 0.05 0.11 0.21 0.29 0.32 0.32 0.30 0.33 0.34 0.30 0.30 0.37 0.44 0.61 0.79 1.03 1.55
0.00 0.00 0.00 0.00 0.00 0.00 0.00 0.00 0.00 0.00 0.00 0.00 0.00 0.00 0.00 0.00 0.00 0.00 0.00 0.01 0.02 0.03 0.07 0.10 0.11 0.14 0.18 0.22 0.20 0.18 0.21 0.24 0.28 0.37 0.35 0.36 0.50 0.58
0.00 0.00 0.00 0.00 0.00 0.00 0.00 0.00 0.00 0.00 0.00 0.00 0.00 0.00 0.00 0.00 0.00 0.00 0.00 0.00 0.00 0.00 0.02 0.03 0.04 0.06 0.08 0.08 0.07 0.08 0.09 0.09 0.11 0.16 0.23 0.24 0.25 0.34
0.00 0.00 0.00 0.00 0.00 0.00 0.00 0.00 0.00 0.00 0.00 0.00 0.00 0.00 0.00 0.00 0.00 0.00 0.00 0.00 0.00 0.00 0.00 0.00 0.00 0.00 0.00 0.01 0.02 0.02 0.02 0.02 0.03 0.04 0.06 0.10 0.13 0.14
0.00 0.00 0.00 0.00 0.00 0.00 0.00 0.00 0.00 0.00 0.00 0.00 0.00 0.00 0.00 0.00 0.00 0.00 0.00 0.00 0.00 0.00 0.00 0.00 0.00 0.00 0.00 0.00 0.00 0.00 0.00 0.01 0.01 0.02 0.02 0.02 0.02 0.04
0.00 0.00 0.00 0.00 0.00 0.00 0.00 0.00 0.00 0.00 0.00 0.00 0.00 0.00 0.00 0.00 0.00 0.00 0.00 0.00 0.00 0.00 0.00 0.00 0.00 0.00 0.00 0.00 0.00 0.00 0.00 0.00 0.00 0.01 0.02 0.02 0.02 0.02
0.00 0.00 0.00 0.00 0.00 0.00 0.00 0.00 0.00 0.00 0.00 0.00 0.00 0.00 0.00 0.00 0.00 0.00 0.00 0.00 0.00 0.00 0.00 0.00 0.00 0.00 0.00 0.00 0.00 0.00 0.00 0.00 0.00 0.00 0.00 0.00 0.01 0.01
0.00 0.00 0.00 0.00 0.00 0.00 0.00 0.00 0.00 0.00 0.00 0.00 0.00 0.00 0.00 0.00 0.00 0.00 0.00 0.00 0.00 0.00 0.00 0.00 0.00 0.00 0.00 0.00 0.00 0.00 0.00 0.00 0.00 0.00 0.00 0.00 0.00 0.00
0.00 0.00 0.00 0.00 0.00 0.00 0.00 0.00 0.00 0.00 0.00 0.00 0.00 0.00 0.00 0.00 0.00 0.00 0.00 0.01 0.00 0.00 0.00 0.00 0.00 0.00 0.00 0.00 0.00 0.00 0.00 0.00 0.00 0.00 0.00 0.00 0.00 0.00
0.00 0.00 0.00 0.00 0.00 0.00 0.00 0.00 0.00 0.00 0.00 0.00 0.00 0.00 0.00 0.00 0.00 0.01 0.01 0.01 0.00 0.00 0.00 0.00 0.00 0.00 0.00 0.00 0.00 0.00 0.00 0.00 0.00 0.00 0.00 0.00 0.00 0.00
0.00 0.00 0.00 0.00 0.00 0.00 0.00 0.00 0.00 0.00 0.00 0.00 0.00 0.00 0.02 0.03 0.02 0.02 0.01 0.01 0.00 0.00 0.00 0.00 0.00 0.00 0.00 0.00 0.00 0.00 0.00 0.00 0.00 0.00 0.00 0.00 0.00 0.00
0.01 0.00 0.00 0.00 0.00 0.01 0.01 0.01 0.02 0.00 0.00 0.02 0.03 0.03 0.03 0.04 0.04 0.02 0.01 0.01 0.00 0.00 0.00 0.00 0.00 0.00 0.00 0.00 0.00 0.00 0.00 0.00 0.00 0.00 0.00 0.00 0.00 0.00
0.01 0.00 0.00 0.00 0.01 0.02 0.04 0.08 0.04 0.02 0.04 0.07 0.06 0.10 0.08 0.05 0.05 0.03 0.00 0.01 0.01 0.01 0.00 0.00 0.01 0.01 0.01 0.00 0.00 0.00 0.00 0.00 0.00 0.00 0.00 0.00 0.00 0.00
0.01 0.00 0.00 0.01 0.04 0.07 0.08 0.10 0.07 0.12 0.14 0.11 0.10 0.09 0.08 0.06 0.03 0.02 0.02 0.00 0.00 0.00 0.00 0.00 0.01 0.01 0.03 0.03 0.01 0.00 0.00 0.00 0.00 0.00 0.00 0.00 0.00 0.00
0.02 0.02 0.03 0.05 0.08 0.09 0.09 0.12 0.14 0.19 0.16 0.08 0.08 0.06 0.04 0.05 0.06 0.04 0.02 0.02 0.01 0.00 0.00 0.00 0.01 0.01 0.02 0.05 0.02 0.00 0.00 0.00 0.00 0.00 0.00 0.00 0.00 0.00
0.05 0.06 0.09 0.10 0.12 0.11 0.07 0.08 0.14 0.21 0.16 0.07 0.09 0.08 0.10 0.09 0.06 0.03 0.04 0.03 0.03 0.01 0.00 0.00 0.00 0.00 0.02 0.02 0.02 0.02 0.00 0.00 0.00 0.00 0.00 0.00 0.00 0.00
0.19 0.19 0.15 0.15 0.13 0.11 0.09 0.07 0.12 0.16 0.21 0.13 0.11 0.10 0.08 0.07 0.07 0.06 0.05 0.04 0.04 0.01 0.00 0.00 0.00 0.00 0.00 0.01 0.03 0.01 0.00 0.00 0.00 0.00 0.00 0.00 0.00 0.00
0.27 0.14 0.10 0.15 0.17 0.16 0.15 0.12 0.11 0.13 0.12 0.11 0.11 0.11 0.09 0.08 0.08 0.07 0.05 0.04 0.03 0.01 0.00 0.00 0.00 0.02 0.02 0.01 0.01 0.01 0.00 0.00 0.00 0.00 0.00 0.01 0.00 0.00
0.21 0.09 0.12 0.18 0.20 0.19 0.16 0.12 0.10 0.08 0.08 0.11 0.12 0.11 0.09 0.08 0.08 0.07 0.04 0.03 0.02 0.01 0.00 0.00 0.01 0.05 0.09 0.03 0.00 0.00 0.00 0.00 0.00 0.00 0.00 0.00 0.00 0.00
0.13 0.12 0.15 0.20 0.23 0.20 0.16 0.12 0.07 0.07 0.09 0.09 0.10 0.10 0.08 0.07 0.07 0.05 0.03 0.03 0.02 0.01 0.01 0.01 0.01 0.01 0.08 0.03 0.04 0.00 0.00 0.00 0.00 0.00 0.00 0.00 0.00 0.00
0.14 0.17 0.18 0.23 0.18 0.14 0.11 0.10 0.07 0.06 0.07 0.08 0.07 0.06 0.05 0.07 0.06 0.03 0.02 0.03 0.06 0.09 0.06 0.00 0.00 0.01 0.08 0.22 0.14 0.01 0.00 0.00 0.00 0.00 0.01 0.04 0.02 0.01
0.12 0.16 0.13 0.13 0.11 0.08 0.07 0.07 0.07 0.08 0.07 0.06 0.05 0.05 0.04 0.05 0.05 0.03 0.02 0.03 0.03 0.03 0.03 0.01 0.00 0.02 0.08 0.14 0.06 0.00 0.00 0.00 0.00 0.00 0.00 0.05 0.08 0.09
0.16 0.16 0.13 0.09 0.08 0.07 0.07 0.07 0.05 0.05 0.04 0.03 0.03 0.04 0.03 0.04 0.03 0.04 0.04 0.03 0.04 0.06 0.03 0.04 0.02 0.04 0.05 0.04 0.06 0.04 0.00 0.00 0.00 0.00 0.00 0.00 0.00 0.00

GFSNE_prec_precacc24_159.txt.gz
Total_Precipitation_Accumulation
0.00 0.00 0.00 0.00 0.00 0.00 0.00 0.00 0.00 0.00 0.00 0.00 0.00 0.00 0.00 0.00 0.00 0.00 0.00 0.00 0.00 0.00 0.02 0.02 0.02 0.05 0.08 0.13 0.16 0.20 0.23 0.27 0.35 0.43 0.59 0.76 0.95 1.45
0.00 0.00 0.00 0.00 0.00 0.00 0.00 0.00 0.00 0.00 0.00 0.00 0.00 0.00 0.00 0.00 0.00 0.00 0.00 0.00 0.00 0.00 0.00 0.00 0.00 0.00 0.00 0.01 0.06 0.10 0.15 0.18 0.25 0.37 0.35 0.35 0.49 0.56
0.00 0.00 0.00 0.00 0.00 0.00 0.00 0.00 0.00 0.00 0.00 0.00 0.00 0.00 0.00 0.00 0.00 0.00 0.00 0.00 0.00 0.00 0.00 0.00 0.00 0.00 0.00 0.00 0.02 0.03 0.06 0.07 0.11 0.16 0.22 0.24 0.25 0.34
0.00 0.00 0.00 0.00 0.00 0.00 0.00 0.00 0.00 0.00 0.00 0.00 0.00 0.00 0.00 0.00 0.00 0.00 0.00 0.00 0.00 0.00 0.00 0.00 0.00 0.00 0.00 0.00 0.00 0.01 0.01 0.02 0.03 0.04 0.06 0.10 0.13 0.14
0.00 0.00 0.00 0.00 0.00 0.00 0.00 0.00 0.00 0.00 0.00 0.00 0.00 0.00 0.00 0.00 0.00 0.00 0.00 0.00 0.00 0.00 0.00 0.00 0.00 0.00 0.00 0.00 0.00 0.00 0.00 0.01 0.01 0.02 0.02 0.02 0.02 0.04
0.00 0.00 0.00 0.00 0.00 0.00 0.00 0.00 0.00 0.00 0.00 0.00 0.00 0.00 0.00 0.00 0.00 0.00 0.00 0.00 0.00 0.00 0.00 0.00 0.00 0.00 0.00 0.00 0.00 0.00 0.00 0.00 0.00 0.01 0.02 0.02 0.02 0.02
0.00 0.00 0.00 0.00 0.00 0.00 0.00 0.00 0.00 0.00 0.00 0.00 0.00 0.00 0.00 0.00 0.00 0.00 0.00 0.00 0.00 0.00 0.00 0.00 0.00 0.00 0.00 0.00 0.00 0.00 0.00 0.00 0.00 0.00 0.00 0.00 0.01 0.01
0.00 0.00 0.00 0.00 0.00 0.00 0.00 0.00 0.00 0.00 0.00 0.00 0.00 0.00 0.00 0.00 0.00 0.00 0.00 0.00 0.00 0.00 0.00 0.00 0.00 0.00 0.00 0.00 0.00 0.00 0.00 0.00 0.00 0.00 0.00 0.00 0.00 0.00
0.00 0.00 0.00 0.00 0.00 0.00 0.00 0.00 0.00 0.00 0.00 0.00 0.00 0.00 0.00 0.00 0.00 0.01 0.01 0.00 0.00 0.00 0.00 0.00 0.00 0.00 0.00 0.00 0.00 0.00 0.00 0.00 0.00 0.00 0.00 0.00 0.00 0.00
0.00 0.00 0.00 0.00 0.00 0.00 0.00 0.00 0.00 0.00 0.00 0.00 0.00 0.00 0.00 0.00 0.02 0.02 0.02 0.03 0.02 0.01 0.00 0.00 0.00 0.00 0.00 0.00 0.00 0.00 0.00 0.00 0.00 0.00 0.00 0.00 0.00 0.00
0.00 0.00 0.00 0.00 0.00 0.01 0.01 0.00 0.00 0.00 0.00 0.01 0.01 0.00 0.02 0.04 0.07 0.10 0.09 0.07 0.05 0.01 0.00 0.00 0.00 0.00 0.00 0.00 0.00 0.00 0.00 0.00 0.00 0.00 0.00 0.00 0.00 0.00
0.01 0.00 0.00 0.01 0.01 0.01 0.02 0.02 0.03 0.00 0.01 0.02 0.03 0.03 0.04 0.08 0.12 0.15 0.05 0.07 0.06 0.05 0.00 0.00 0.00 0.00 0.00 0.00 0.00 0.00 0.00 0.00 0.00 0.00 0.00 0.00 0.00 0.00
0.02 0.00 0.00 0.01 0.01 0.02 0.06 0.09 0.05 0.03 0.05 0.08 0.07 0.10 0.10 0.11 0.12 0.14 0.09 0.06 0.05 0.03 0.00 0.00 0.01 0.00 0.01 0.00 0.00 0.00 0.00 0.00 0.00 0.00 0.00 0.00 0.00 0.00
0.01 0.00 0.00 0.01 0.05 0.07 0.09 0.11 0.08 0.13 0.16 0.12 0.12 0.11 0.11 0.12 0.10 0.11 0.11 0.07 0.03 0.03 0.02 0.00 0.01 0.01 0.03 0.03 0.00 0.00 0.00 0.00 0.00 0.00 0.00 0.00 0.00 0.00
0.02 0.03 0.04 0.06 0.09 0.10 0.10 0.13 0.15 0.20 0.16 0.10 0.10 0.08 0.08 0.11 0.14 0.18 0.15 0.12 0.07 0.03 0.03 0.01 0.02 0.02 0.03 0.04 0.02 0.00 0.00 0.00 0.00 0.00 0.00 0.00 0.00 0.00
0.06 0.07 0.10 0.12 0.13 0.11 0.08 0.08 0.14 0.21 0.17 0.09 0.10 0.11 0.14 0.14 0.11 0.10 0.13 0.10 0.10 0.06 0.03 0.02 0.02 0.01 0.02 0.01 0.02 0.02 0.00 0.00 0.00 0.00 0.00 0.00 0.00 0.00
0.20 0.20 0.16 0.16 0.13 0.12 0.10 0.08 0.13 0.17 0.23 0.15 0.15 0.15 0.13 0.12 0.10 0.09 0.10 0.09 0.09 0.05 0.03 0.02 0.01 0.00 0.00 0.01 0.02 0.01 0.00 0.00 0.00 0.00 0.00 0.00 0.00 0.00
0.28 0.16 0.12 0.15 0.17 0.16 0.16 0.13 0.12 0.14 0.13 0.15 0.16 0.17 0.14 0.11 0.10 0.10 0.09 0.07 0.06 0.03 0.02 0.00 0.00 0.02 0.01 0.00 0.00 0.00 0.00 0.00 0.00 0.00 0.00 0.01 0.00 0.00
0.23 0.10 0.13 0.18 0.20 0.20 0.17 0.14 0.11 0.09 0.09 0.13 0.15 0.15 0.15 0.13 0.12 0.09 0.07 0.07 0.05 0.02 0.01 0.01 0.01 0.04 0.08 0.03 0.00 0.00 0.00 0.00 0.00 0.00 0.00 0.00 0.00 0.00
0.15 0.14 0.16 0.21 0.24 0.21 0.17 0.14 0.10 0.10 0.12 0.14 0.16 0.15 0.13 0.11 0.10 0.07 0.05 0.04 0.02 0.01 0.01 0.01 0.01 0.01 0.07 0.03 0.04 0.00 0.00 0.00 0.00 0.00 0.00 0.00 0.00 0.00
0.15 0.18 0.20 0.25 0.20 0.15 0.12 0.13 0.13 0.13 0.12 0.13 0.12 0.12 0.10 0.09 0.08 0.05 0.03 0.03 0.05 0.08 0.05 0.01 0.00 0.00 0.07 0.19 0.12 0.00 0.00 0.00 0.00 0.00 0.00 0.04 0.02 0.01
0.13 0.17 0.15 0.14 0.12 0.09 0.09 0.09 0.12 0.13 0.11 0.09 0.09 0.08 0.06 0.06 0.06 0.03 0.02 0.03 0.02 0.02 0.02 0.01 0.01 0.02 0.07 0.13 0.06 0.00 0.00 0.00 0.00 0.00 0.00 0.05 0.08 0.09
0.18 0.18 0.15 0.10 0.09 0.09 0.09 0.09 0.09 0.08 0.08 0.06 0.06 0.06 0.06 0.06 0.03 0.02 0.02 0.02 0.03 0.04 0.02 0.04 0.03 0.04 0.04 0.04 0.05 0.04 0.00 0.00 0.00 0.00 0.00 0.00 0.00 0.00

GFSNE_prec_precacc24_165.txt.gz
Total_Precipitation_Accumulation
0.00 0.00 0.00 0.00 0.00 0.00 0.00 0.00 0.00 0.00 0.00 0.00 0.00 0.00 0.00 0.00 0.00 0.00 0.00 0.00 0.00 0.00 0.00 0.00 0.00 0.00 0.00 0.00 0.00 0.00 0.00 0.00 0.01 0.04 0.08 0.12 0.23 0.37
0.00 0.00 0.00 0.00 0.00 0.00 0.00 0.00 0.00 0.00 0.00 0.00 0.00 0.00 0.00 0.00 0.00 0.00 0.00 0.00 0.00 0.00 0.00 0.00 0.00 0.00 0.00 0.00 0.00 0.00 0.00 0.00 0.00 0.01 0.02 0.05 0.09 0.16
0.00 0.00 0.00 0.00 0.00 0.00 0.00 0.00 0.00 0.00 0.00 0.00 0.00 0.00 0.00 0.00 0.00 0.00 0.00 0.00 0.00 0.00 0.00 0.00 0.00 0.00 0.00 0.00 0.00 0.00 0.00 0.00 0.00 0.00 0.00 0.01 0.05 0.11
0.00 0.00 0.00 0.00 0.00 0.00 0.00 0.00 0.00 0.00 0.00 0.00 0.00 0.00 0.00 0.00 0.00 0.00 0.00 0.00 0.00 0.00 0.00 0.00 0.00 0.00 0.00 0.00 0.00 0.00 0.00 0.00 0.00 0.00 0.00 0.00 0.00 0.02
0.00 0.00 0.00 0.00 0.00 0.00 0.00 0.00 0.00 0.00 0.00 0.00 0.00 0.00 0.00 0.00 0.00 0.00 0.00 0.00 0.00 0.00 0.00 0.00 0.00 0.00 0.00 0.00 0.00 0.00 0.00 0.00 0.00 0.00 0.00 0.00 0.00 0.00
0.00 0.00 0.00 0.00 0.00 0.00 0.00 0.00 0.00 0.00 0.00 0.00 0.00 0.00 0.00 0.00 0.00 0.00 0.00 0.00 0.00 0.00 0.00 0.00 0.00 0.00 0.00 0.00 0.00 0.00 0.00 0.00 0.00 0.00 0.00 0.00 0.00 0.00
0.00 0.00 0.00 0.00 0.00 0.00 0.00 0.00 0.00 0.00 0.00 0.00 0.00 0.00 0.00 0.00 0.00 0.00 0.00 0.00 0.00 0.00 0.00 0.00 0.00 0.00 0.00 0.00 0.00 0.00 0.00 0.00 0.00 0.00 0.00 0.00 0.00 0.00
0.00 0.00 0.00 0.00 0.00 0.00 0.00 0.00 0.00 0.00 0.01 0.01 0.00 0.00 0.00 0.00 0.00 0.00 0.00 0.00 0.00 0.00 0.00 0.00 0.00 0.00 0.00 0.00 0.00 0.00 0.00 0.00 0.00 0.00 0.00 0.00 0.00 0.00
0.00 0.00 0.00 0.00 0.00 0.00 0.00 0.00 0.00 0.01 0.01 0.01 0.01 0.00 0.00 0.00 0.00 0.01 0.01 0.01 0.00 0.00 0.01 0.01 0.00 0.00 0.00 0.00 0.00 0.00 0.00 0.00 0.00 0.00 0.00 0.00 0.00 0.00
0.00 0.00 0.00 0.00 0.00 0.00 0.00 0.00 0.00 0.00 0.00 0.00 0.00 0.00 0.00 0.01 0.03 0.03 0.05 0.06 0.05 0.02 0.02 0.03 0.00 0.00 0.00 0.00 0.00 0.00 0.00 0.00 0.00 0.00 0.00 0.00 0.00 0.00
0.00 0.00 0.00 0.00 0.00 0.01 0.02 0.01 0.01 0.00 0.00 0.01 0.01 0.02 0.04 0.07 0.10 0.15 0.20 0.19 0.15 0.03 0.01 0.04 0.01 0.01 0.01 0.00 0.00 0.00 0.00 0.00 0.00 0.00 0.00 0.00 0.00 0.00
0.01 0.00 0.01 0.01 0.01 0.03 0.04 0.03 0.04 0.00 0.01 0.02 0.04 0.05 0.06 0.10 0.14 0.18 0.13 0.19 0.15 0.15 0.03 0.03 0.04 0.06 0.06 0.00 0.00 0.00 0.00 0.00 0.00 0.00 0.01 0.01 0.00 0.00
0.02 0.00 0.00 0.01 0.02 0.04 0.08 0.12 0.09 0.05 0.07 0.10 0.09 0.11 0.10 0.11 0.12 0.15 0.13 0.13 0.16 0.15 0.02 0.05 0.09 0.08 0.06 0.02 0.00 0.00 0.00 0.00 0.00 0.01 0.02 0.01 0.00 0.00
0.01 0.01 0.00 0.02 0.06 0.09 0.11 0.13 0.11 0.16 0.17 0.13 0.13 0.11 0.12 0.13 0.11 0.11 0.14 0.14 0.12 0.13 0.09 0.08 0.06 0.04 0.08 0.07 0.03 0.00 0.00 0.00 0.00 0.00 0.00 0.00 0.00 0.00
0.02 0.03 0.05 0.07 0.10 0.11 0.11 0.14 0.16 0.21 0.17 0.11 0.10 0.09 0.08 0.12 0.17 0.21 0.21 0.21 0.20 0.15 0.12 0.09 0.05 0.07 0.09 0.06 0.02 0.00 0.01 0.00 0.00 0.00 0.00 0.00 0.00 0.00
0.06 0.07 0.11 0.13 0.14 0.11 0.08 0.08 0.14 0.21 0.19 0.12 0.13 0.12 0.15 0.17 0.15 0.14 0.19 0.17 0.22 0.20 0.16 0.11 0.08 0.05 0.06 0.03 0.03 0.03 0.02 0.01 0.00 0.00 0.00 0.00 0.00 0.00
0.21 0.20 0.16 0.17 0.14 0.12 0.10 0.09 0.13 0.18 0.25 0.17 0.17 0.17 0.15 0.15 0.15 0.15 0.19 0.17 0.18 0.11 0.13 0.13 0.11 0.08 0.04 0.04 0.04 0.02 0.01 0.00 0.00 0.00 0.00 0.00 0.00 0.00
0.30 0.17 0.13 0.16 0.18 0.18 0.17 0.13 0.12 0.14 0.14 0.19 0.20 0.21 0.19 0.15 0.15 0.15 0.15 0.11 0.12 0.09 0.10 0.09 0.08 0.08 0.06 0.02 0.01 0.01 0.01 0.00 0.00 0.00 0.00 0.01 0.00 0.00
0.24 0.11 0.14 0.20 0.21 0.21 0.18 0.15 0.12 0.10 0.11 0.17 0.19 0.19 0.20 0.18 0.18 0.13 0.12 0.12 0.11 0.08 0.07 0.07 0.07 0.07 0.08 0.03 0.00 0.00 0.00 0.01 0.01 0.01 0.01 0.01 0.00 0.00
0.15 0.14 0.17 0.23 0.27 0.23 0.19 0.17 0.13 0.12 0.15 0.18 0.21 0.20 0.18 0.17 0.13 0.11 0.11 0.08 0.07 0.07 0.07 0.07 0.05 0.04 0.06 0.04 0.05 0.01 0.02 0.03 0.02 0.01 0.00 0.00 0.00 0.00
0.16 0.20 0.22 0.26 0.22 0.18 0.16 0.16 0.16 0.17 0.17 0.18 0.16 0.18 0.16 0.15 0.12 0.09 0.07 0.07 0.09 0.09 0.07 0.05 0.02 0.03 0.06 0.15 0.10 0.02 0.01 0.01 0.01 0.01 0.01 0.03 0.01 0.01
0.14 0.17 0.16 0.16 0.16 0.13 0.12 0.14 0.16 0.16 0.16 0.13 0.12 0.12 0.11 0.12 0.09 0.07 0.06 0.06 0.07 0.05 0.05 0.04 0.04 0.04 0.05 0.07 0.04 0.03 0.01 0.01 0.00 0.00 0.01 0.03 0.06 0.07
0.18 0.19 0.16 0.12 0.12 0.12 0.13 0.13 0.13 0.12 0.12 0.10 0.10 0.10 0.09 0.09 0.06 0.05 0.05 0.05 0.05 0.06 0.05 0.05 0.04 0.03 0.02 0.03 0.03 0.02 0.01 0.00 0.00 0.00 0.00 0.00 0.00 0.00